ECMWFNIL_sfc_dewp_000.txt.gz
Dewpoint
49 47 47 46 45 46 47 46 47 46 47 47 48 48 49 49 51 49 50 49 49 49 49 49 49 49 49 48 48 49 50 51 50 51 51 50 50 51 52 52 53 55
49 49 49 47 48 48 48 46 46 46 47 47 47 48 48 49 49 50 49 50 50 49 49 49 49 48 47 48 49 49 49 49 48 51 49 49 49 50 50 51 51 53
49 49 48 47 48 48 47 48 47 47 47 47 47 48 49 50 50 49 49 49 48 48 48 48 47 48 48 48 48 47 47 47 47 48 49 48 49 49 49 49 50 51
49 49 48 48 47 48 47 48 47 48 48 48 47 49 49 50 49 49 49 53 48 47 47 47 48 47 47 47 46 46 46 46 47 47 47 47 48 48 47 48 48 48
49 49 49 48 47 48 47 47 46 47 47 47 48 49 50 48 48 48 48 48 47 47 46 47 46 46 46 46 45 44 46 46 46 46 45 45 46 47 47 47 46 45
49 49 48 48 47 47 47 46 46 47 47 47 48 48 46 47 47 47 47 46 46 46 45 45 45 45 45 44 44 44 44 44 45 45 45 45 45 45 45 45 44 44
48 48 48 47 47 47 46 46 47 47 47 47 47 46 46 46 46 46 45 45 45 46 45 44 44 44 44 44 44 44 44 44 44 45 44 44 45 44 44 44 44 44
48 47 47 47 47 47 46 47 47 47 47 47 45 46 46 46 45 45 45 44 44 44 44 44 43 43 43 43 44 43 43 45 44 44 44 44 43 43 43 44 44 43
48 47 46 46 47 47 46 47 47 47 47 45 45 45 46 45 45 44 44 44 44 43 43 43 43 43 43 43 43 43 43 43 44 44 43 44 43 43 43 43 43 43
47 47 46 46 46 47 46 47 47 47 47 45 45 45 45 46 44 44 44 43 43 43 42 42 42 42 42 42 42 42 43 43 43 43 44 44 43 43 43 43 43 43
48 47 46 46 46 46 46 47 46 46 47 45 45 45 44 45 46 44 43 42 42 42 41 41 41 42 41 42 42 42 42 42 42 42 43 43 43 43 44 43 43 43
48 47 46 46 46 46 46 46 46 46 46 45 46 45 44 43 43 43 43 42 41 41 40 40 41 41 40 41 41 42 42 42 42 42 42 42 42 42 42 42 43 42
48 47 47 46 47 46 46 46 46 46 46 45 45 44 44 42 41 42 43 41 41 41 40 40 40 41 40 40 41 41 41 41 42 42 42 42 42 42 42 42 42 42
48 48 47 47 47 47 47 46 46 45 45 44 45 43 42 41 40 40 41 41 41 41 41 43 41 40 40 40 41 41 41 41 41 42 41 41 41 41 42 42 42 42
48 48 47 47 47 47 46 46 45 44 44 43 43 42 43 41 41 40 39 39 39 40 40 41 40 40 41 40 40 40 40 39 39 39 38 38 38 38 38 39 39 39
49 48 47 47 46 46 46 45 45 44 43 42 41 41 41 41 40 40 39 39 38 39 39 40 40 40 44 41 40 39 38 38 38 38 37 37 38 37 37 38 38 38
48 48 47 47 46 46 45 44 44 43 42 41 40 40 40 41 39 39 38 39 38 38 37 38 39 40 39 38 38 38 38 37 37 36 36 36 36 36 36 36 37 37
50 49 47 47 46 45 44 44 43 42 41 40 40 39 40 39 38 38 38 38 38 38 37 38 38 40 38 38 38 37 38 39 37 37 37 36 36 36 35 35 35 36
48 48 46 46 45 44 44 43 42 42 40 40 39 39 39 38 37 37 37 37 37 36 37 38 38 39 38 38 38 37 37 38 37 37 36 36 35 35 35 35 35 35
48 47 47 45 44 44 43 43 42 41 40 40 39 39 37 37 36 36 36 36 37 37 37 37 38 39 38 38 37 37 36 37 37 37 36 36 36 35 35 34 34 34
48 47 46 45 44 43 43 42 42 39 40 39 38 37 36 35 35 34 36 38 36 35 35 36 37 37 36 36 36 36 36 36 36 36 36 35 35 34 34 34 34 34
47 46 46 44 44 43 42 41 41 41 39 38 37 36 35 35 34 35 35 34 34 34 33 34 35 36 36 36 36 35 36 36 35 34 34 34 33 33 33 33 33 33
45 46 45 43 42 42 41 41 40 38 38 38 36 35 34 34 33 34 35 33 34 34 32 33 33 35 35 35 35 35 35 33 33 32 32 32 32 32 33 32 33 32
46 45 43 42 42 41 41 40 39 38 38 38 36 35 34 34 34 33 32 34 33 32 33 33 32 33 34 34 35 34 35 33 32 32 31 32 32 32 32 32 32 37
45 43 42 41 41 40 40 39 37 37 38 36 36 34 34 34 36 31 31 31 32 32 37 35 32 33 34 34 34 34 35 33 32 32 31 31 32 31 32 32 32 34
44 42 41 41 40 39 38 37 37 37 36 35 34 34 33 32 34 31 30 30 31 31 32 32 32 32 34 34 34 34 35 34 33 32 31 31 31 31 32 32 32 32

ECMWFNIL_sfc_dewp_003.txt.gz
Dewpoint
48 49 46 45 44 46 46 46 47 46 47 47 47 48 48 48 49 48 48 48 47 47 47 47 47 46 48 47 47 49 49 48 49 48 48 49 48 48 48 48 49 50
46 48 48 46 46 47 46 46 47 46 46 47 47 47 47 48 48 47 47 48 48 47 47 47 47 46 46 47 46 47 46 46 46 50 47 47 47 47 47 47 48 48
46 46 47 46 45 45 46 45 47 46 46 47 46 47 48 48 48 47 46 47 47 47 46 46 46 47 46 46 45 45 45 44 45 46 47 45 46 46 46 46 46 47
47 46 46 46 45 45 47 46 46 46 46 46 46 48 49 49 47 47 47 51 46 46 45 46 46 45 45 45 44 44 44 44 45 45 44 45 46 46 45 46 46 45
47 47 46 46 46 46 47 46 46 46 46 46 46 48 50 48 47 47 47 46 45 45 45 44 44 44 45 44 43 43 44 44 44 44 43 43 44 45 45 45 44 43
48 48 47 46 47 47 46 46 46 46 46 46 47 49 48 48 47 47 47 45 45 44 44 44 44 44 43 43 43 43 43 44 44 44 44 43 44 44 44 44 43 43
48 48 47 47 47 47 46 46 46 47 46 46 48 47 47 46 46 46 45 45 44 45 43 43 43 42 43 42 42 42 42 43 43 44 44 44 45 44 43 43 44 43
48 48 48 47 46 47 46 46 46 46 46 47 46 46 46 46 45 44 44 44 43 43 42 42 42 42 42 42 42 42 41 43 43 43 43 43 43 43 43 43 43 43
48 48 48 47 46 46 46 46 46 46 47 46 45 45 45 45 45 44 43 43 42 42 42 42 42 42 42 42 42 42 41 41 43 42 42 43 42 43 43 43 43 43
48 48 47 47 46 46 45 46 46 46 47 45 45 45 45 44 44 44 43 42 43 41 41 41 41 42 42 41 41 41 41 42 41 42 42 42 42 42 42 43 43 42
46 47 46 46 46 46 46 46 46 46 45 45 45 44 43 44 44 43 42 42 42 41 40 40 40 40 40 40 41 41 41 41 41 41 41 42 42 42 44 43 42 41
48 46 45 46 46 46 46 46 46 46 45 44 44 44 42 42 43 42 42 41 41 40 40 39 39 40 39 39 39 40 40 40 40 41 41 42 42 42 42 42 42 41
48 47 46 46 46 46 46 46 46 45 45 45 44 44 43 42 41 42 41 40 40 40 40 39 39 39 39 39 39 39 39 40 40 40 41 41 41 42 41 40 41 41
49 48 47 47 46 46 46 46 45 45 45 45 44 43 42 41 40 40 40 40 40 40 40 40 39 39 38 38 39 39 39 39 39 40 40 39 39 38 38 38 38 38
48 49 48 48 47 46 46 46 45 45 45 44 43 42 42 40 40 40 40 39 39 39 39 41 39 39 39 39 38 39 38 38 38 37 37 37 37 37 37 38 38 38
49 48 47 47 46 46 45 45 45 45 44 42 42 41 41 41 40 39 39 38 38 37 38 39 39 39 42 41 41 40 39 38 38 37 37 37 37 37 37 37 37 37
49 48 47 47 47 47 46 45 45 44 42 41 41 40 40 41 39 38 38 38 38 37 36 37 38 38 39 38 38 38 39 38 38 37 37 37 36 36 36 36 36 36
48 47 47 48 47 46 46 46 45 43 42 40 40 40 40 40 38 38 38 37 37 36 35 37 37 40 38 38 38 37 38 39 37 37 37 37 36 36 36 36 36 36
48 47 47 47 47 46 46 46 45 43 41 40 40 40 40 38 37 37 37 37 36 35 35 37 36 38 37 37 37 37 36 37 36 36 36 36 36 36 36 35 35 36
49 48 47 47 47 47 45 45 43 42 41 41 40 40 38 37 36 36 36 36 36 36 35 35 35 37 37 37 36 36 35 36 35 35 34 34 35 35 35 35 35 34
49 48 47 47 47 46 45 43 43 42 41 41 40 38 37 36 36 36 36 37 36 34 33 33 34 36 35 35 35 35 35 35 35 34 34 33 33 33 34 34 34 34
48 47 46 45 45 45 44 43 42 41 40 39 38 37 36 36 35 36 36 34 34 33 33 30 32 34 34 35 35 34 35 35 34 33 32 32 32 32 32 33 33 33
48 47 46 45 45 44 43 42 40 39 39 38 37 36 36 36 35 35 35 34 34 33 30 30 30 34 34 34 34 34 35 34 33 32 32 31 31 32 32 32 33 33
47 46 45 44 44 43 42 41 40 39 39 38 36 36 35 34 34 34 33 34 34 33 31 29 30 32 34 34 34 34 35 33 33 32 31 31 31 32 32 32 33 35
47 47 46 46 45 44 42 41 40 39 39 37 36 35 35 34 35 33 33 33 33 32 37 34 31 32 35 34 34 34 35 33 32 32 31 31 31 31 31 32 31 33
46 46 45 45 44 42 42 42 40 38 37 36 35 35 34 34 34 33 33 33 33 34 34 32 30 30 32 34 34 34 35 34 33 32 31 31 31 31 31 31 31 31

ECMWFNIL_sfc_dewp_006.txt.gz
Dewpoint
48 48 46 46 45 46 47 46 46 47 48 48 49 49 50 50 51 49 49 48 49 49 48 48 48 48 48 47 48 47 48 48 49 48 47 49 48 47 48 48 48 49
48 48 48 46 45 47 47 47 47 47 48 48 49 49 49 50 50 49 48 49 50 48 48 48 48 47 47 47 47 46 46 46 47 50 46 46 47 47 47 47 47 47
48 48 47 45 44 45 46 47 47 47 47 48 48 48 49 50 49 48 48 49 48 48 47 47 47 47 46 46 46 45 45 45 46 47 48 46 47 46 47 47 47 46
47 48 48 46 45 45 46 46 47 47 46 47 47 48 49 50 49 48 49 52 48 47 47 46 47 46 46 45 45 45 45 45 46 46 45 45 46 47 46 47 47 45
47 47 48 48 46 45 46 45 46 46 46 46 47 48 50 49 48 48 49 47 47 47 46 46 45 46 46 45 44 44 46 45 45 45 45 45 45 46 46 46 45 44
48 47 47 47 47 45 46 45 45 46 46 46 46 49 48 48 48 48 48 47 47 46 45 45 45 45 44 44 44 44 44 44 44 45 44 44 45 45 45 45 44 44
48 48 47 47 46 46 46 46 45 47 46 46 47 48 48 47 48 48 47 47 46 46 45 45 44 44 44 44 44 43 44 44 44 44 44 44 45 44 44 44 44 44
49 48 48 47 46 46 46 46 45 46 46 47 47 47 47 47 47 47 47 46 45 44 44 43 43 43 43 43 43 43 43 44 44 43 43 43 43 42 43 44 44 43
49 49 48 47 46 46 46 46 46 46 47 46 46 46 47 47 46 46 45 44 44 43 43 43 43 43 43 43 43 43 42 42 43 43 42 43 42 42 42 42 43 44
48 49 48 47 46 46 46 46 46 46 47 46 46 46 46 46 45 44 44 43 44 43 43 42 42 43 43 42 42 42 42 42 42 42 42 42 42 42 41 42 43 43
49 48 48 47 46 46 46 46 46 46 47 46 45 45 45 45 45 44 43 43 43 42 42 42 42 42 42 42 42 42 42 42 42 41 41 41 42 42 43 43 43 42
49 48 48 47 47 46 46 46 46 46 46 46 45 45 45 44 44 43 43 42 42 41 41 41 41 41 41 41 41 42 42 42 42 42 42 41 41 41 41 42 42 41
49 48 48 48 47 46 46 46 46 46 46 45 45 44 44 43 43 43 43 41 41 40 40 41 41 41 40 40 40 40 40 41 41 41 40 41 40 40 41 41 40 39
49 48 48 48 48 46 47 46 46 46 45 45 45 44 43 43 42 42 42 40 40 40 40 42 40 40 39 40 41 40 42 41 40 40 40 39 39 39 39 39 39 39
50 49 48 48 47 47 47 47 46 45 45 45 45 44 44 43 41 41 40 40 40 41 41 41 40 40 40 40 40 40 39 39 39 38 38 39 38 38 38 39 39 39
49 49 48 47 47 47 46 46 46 45 45 44 44 43 42 41 41 40 40 39 40 40 40 40 40 40 44 40 41 41 40 39 39 39 38 38 38 38 38 38 38 38
49 49 48 47 47 47 47 46 46 46 45 45 43 42 41 41 40 39 39 39 39 39 38 39 39 40 39 38 38 38 39 38 38 38 38 38 38 37 37 37 37 37
49 48 47 47 47 46 46 46 46 45 43 43 43 42 41 40 39 38 39 38 38 37 37 38 38 40 38 37 37 37 38 40 38 37 37 36 36 36 36 36 36 36
48 48 47 46 46 46 46 46 45 44 43 43 42 41 41 39 38 38 37 38 37 36 36 38 37 39 37 37 37 37 37 37 36 36 36 36 35 35 35 35 35 35
48 48 46 46 46 46 46 45 45 44 43 43 42 41 39 39 38 37 37 37 36 36 36 36 35 37 37 36 36 36 35 36 36 35 35 35 35 35 34 34 34 34
48 47 46 46 46 46 45 44 44 42 42 42 41 40 39 37 37 36 37 37 36 35 34 34 34 36 36 35 35 35 35 35 35 35 35 35 35 34 34 34 33 34
48 47 46 46 46 45 44 43 43 42 42 42 41 40 39 38 37 37 37 35 35 34 33 31 32 35 35 35 35 35 35 36 35 34 34 34 33 34 33 33 33 33
48 47 46 46 46 45 44 44 43 42 41 40 39 38 37 36 36 36 36 35 34 33 31 29 29 34 35 35 35 35 35 34 34 34 33 33 33 33 33 33 33 33
47 47 46 46 46 45 44 43 42 42 41 41 39 37 37 36 36 36 35 35 34 32 30 28 29 32 35 35 35 35 35 34 33 33 32 32 32 32 33 33 33 35
48 47 46 45 45 44 43 42 42 41 41 41 41 40 38 38 37 36 34 34 34 32 36 31 29 31 35 35 35 35 36 34 33 32 31 31 31 31 32 32 32 33
48 47 46 46 44 43 43 43 42 41 41 41 40 39 38 38 38 35 34 34 33 34 34 34 30 30 34 34 35 35 35 35 33 32 31 29 30 30 31 32 32 32

ECMWFNIL_sfc_dewp_009.txt.gz
Dewpoint
54 55 54 53 53 53 54 53 54 55 55 55 54 55 55 55 54 55 54 54 54 53 53 53 52 51 50 49 48 45 46 48 47 47 47 47 47 48 47 47 48 46
55 55 54 54 53 52 53 55 54 55 55 56 56 55 56 56 56 55 54 54 54 53 53 52 51 49 48 47 47 46 46 47 47 47 48 48 47 47 48 48 48 47
54 54 54 54 53 53 54 54 55 55 55 56 57 57 56 56 56 55 54 54 53 53 53 52 51 49 48 48 47 46 46 47 47 47 47 46 46 47 47 47 47 47
54 54 54 54 54 53 54 53 53 53 54 55 55 56 56 57 55 54 55 54 53 52 52 51 50 49 48 48 48 46 47 46 46 46 46 46 45 45 46 46 45 45
53 53 53 53 53 52 53 52 53 52 52 53 55 55 55 56 55 54 54 54 53 52 51 51 50 50 49 48 47 46 46 45 46 45 44 44 45 45 45 45 44 45
53 52 51 52 52 52 51 51 51 52 52 53 54 54 55 55 54 53 53 53 53 52 51 50 49 49 48 48 47 46 45 44 45 44 42 42 42 43 41 44 44 44
54 53 53 52 53 53 52 52 52 52 52 52 53 54 55 55 54 53 52 52 52 50 49 49 48 48 48 47 46 45 45 44 43 41 40 41 41 42 42 43 41 42
55 54 53 52 53 53 52 51 52 51 53 52 52 53 54 53 52 54 52 51 50 49 49 47 47 46 46 46 44 45 45 45 43 41 41 41 42 39 40 41 42 41
54 54 53 53 53 53 52 51 52 52 52 52 51 53 53 53 53 53 52 51 51 49 47 47 46 45 46 45 44 43 42 43 43 42 41 41 40 39 37 39 40 41
54 54 54 53 53 53 53 53 52 52 51 51 51 52 51 53 53 52 51 51 50 48 47 46 46 46 45 43 42 42 41 41 41 42 41 40 39 38 37 39 39 40
54 54 54 54 53 53 53 53 52 51 51 50 51 51 51 52 52 51 51 50 49 47 46 45 45 44 43 43 44 43 42 42 41 40 41 40 40 40 39 40 39 39
54 54 54 54 54 53 53 52 52 51 51 51 50 49 51 51 51 50 50 48 47 46 45 44 43 43 42 41 41 42 43 42 42 41 41 39 39 39 38 39 39 38
54 54 54 54 54 53 53 52 51 51 50 49 50 52 51 50 50 49 49 47 46 46 45 43 43 43 43 43 41 41 41 41 41 41 39 41 39 37 37 38 38 37
54 55 55 55 54 53 52 52 51 51 50 50 50 50 50 48 48 49 49 47 46 44 44 45 44 42 41 41 40 41 40 39 38 39 38 37 38 36 37 37 37 37
54 54 54 54 54 52 52 51 51 50 51 50 49 49 49 48 49 49 46 46 45 45 44 44 43 42 41 41 40 38 37 36 36 34 36 35 35 34 35 35 35 36
52 54 54 53 53 52 51 51 50 50 50 49 48 48 49 48 48 47 45 44 44 43 44 44 43 43 43 41 39 34 35 33 36 35 33 34 34 34 34 34 34 35
51 52 53 52 52 52 51 51 50 50 49 49 49 48 48 47 46 45 45 44 43 43 42 43 43 41 39 38 38 39 36 35 34 34 34 34 34 34 33 33 33 32
50 52 52 51 52 51 50 50 50 50 49 48 48 48 48 47 46 45 45 45 44 42 42 42 40 40 37 37 37 38 38 34 35 34 35 34 33 33 31 32 32 34
49 51 51 51 51 51 50 50 49 48 48 48 47 48 48 46 45 45 44 44 42 41 40 39 36 38 36 37 37 37 37 37 31 34 33 33 33 33 33 32 33 33
47 49 51 51 51 51 50 49 48 47 48 48 48 47 46 45 44 44 43 42 41 40 39 36 33 37 36 36 37 36 36 36 33 34 34 33 32 32 33 32 32 33
47 48 50 51 51 50 50 49 48 48 47 47 46 45 45 44 44 43 43 43 42 41 39 36 35 36 35 35 36 36 36 36 35 36 34 34 34 34 33 33 32 34
46 48 50 50 50 50 49 48 48 47 46 46 46 45 44 44 44 43 42 41 40 37 35 33 34 34 34 35 35 35 36 35 34 34 33 33 32 33 32 31 31 32
46 47 49 50 50 49 47 47 47 46 46 44 44 43 42 41 41 41 40 39 38 37 37 36 33 34 34 34 35 35 35 32 34 31 31 32 33 32 31 31 32 32
45 46 48 49 49 48 47 47 47 46 45 44 42 41 41 41 41 40 39 38 37 36 36 34 33 34 34 34 34 35 35 32 30 30 32 32 32 33 33 31 31 34
45 46 48 48 49 48 48 47 47 46 46 44 44 44 43 43 42 39 39 38 37 38 38 37 36 35 34 34 35 35 35 33 30 29 30 31 31 30 32 32 32 33
45 47 48 48 48 49 48 47 46 45 44 44 43 42 41 42 41 38 38 39 38 37 38 37 37 35 36 34 35 35 35 32 30 29 30 30 31 30 31 32 31 32

ECMWFNIL_sfc_dewp_012.txt.gz
Dewpoint
56 56 55 52 49 50 53 50 51 52 50 51 50 52 52 51 51 53 53 53 52 51 51 51 50 50 49 50 50 47 49 51 50 50 50 50 50 51 50 49 50 47
58 57 55 54 51 50 52 52 52 51 51 52 51 53 53 53 53 54 53 53 53 52 51 51 50 49 49 47 49 48 48 50 49 48 51 51 50 51 51 51 49 48
58 58 57 56 54 55 56 55 53 52 50 52 53 53 54 55 54 54 54 54 53 52 52 51 50 49 49 48 49 49 49 49 49 49 49 48 49 49 50 50 49 49
58 58 58 58 57 57 57 55 54 52 51 52 54 53 55 56 55 55 54 53 53 53 52 51 50 49 48 48 49 47 49 48 47 49 49 48 48 47 48 48 47 47
57 57 57 57 57 58 57 56 54 52 52 53 55 53 55 55 55 54 54 53 53 52 52 51 50 49 49 49 48 48 48 46 48 48 46 47 47 47 47 47 46 47
57 55 55 56 57 58 57 56 54 53 52 53 54 52 53 54 53 53 53 53 52 52 52 51 50 50 49 49 49 48 47 46 47 46 45 46 44 44 41 46 46 45
56 57 57 56 57 57 57 56 55 54 53 53 52 52 52 53 52 52 51 52 51 51 50 50 50 50 49 49 48 47 46 46 45 44 43 43 44 46 43 44 40 41
56 56 56 56 57 57 57 55 55 54 55 53 53 53 51 51 50 52 51 52 50 50 49 48 49 48 48 47 46 47 48 47 46 43 43 43 45 41 44 43 45 43
54 54 54 56 57 56 56 55 55 55 54 54 53 52 51 51 50 51 51 50 50 51 49 48 48 47 48 47 47 46 45 47 46 45 45 45 44 42 38 41 43 43
56 54 54 54 56 56 56 57 55 55 54 54 52 52 51 52 50 49 50 50 50 49 49 49 48 48 47 46 45 45 44 44 44 45 44 43 42 40 38 40 41 42
56 56 56 57 56 56 56 56 56 55 54 52 53 52 51 52 50 50 51 49 51 49 49 48 47 47 46 46 46 46 45 45 43 42 44 43 43 42 43 41 40 41
57 56 56 56 57 57 57 56 55 55 54 54 52 51 52 52 51 51 50 48 48 49 48 48 47 47 45 44 45 45 45 45 44 44 43 41 41 40 38 39 41 39
56 56 56 56 56 56 56 55 54 55 54 53 52 52 52 52 52 51 51 49 48 49 48 48 47 46 45 46 45 44 44 44 44 44 43 43 39 37 37 39 38 37
51 54 55 55 56 56 56 56 55 55 54 53 53 52 52 52 51 50 50 49 49 49 48 48 47 45 45 45 44 44 44 44 43 43 40 40 40 37 38 37 37 37
45 47 51 52 53 54 55 55 55 55 54 53 53 53 54 53 51 49 49 49 49 49 48 48 47 47 46 45 44 43 44 42 41 37 37 36 36 36 36 36 35 36
44 46 47 50 52 53 53 54 54 55 55 54 53 53 53 52 51 50 49 50 49 48 47 48 48 47 46 41 41 42 41 38 39 38 35 35 35 36 36 37 36 36
41 44 46 48 50 52 53 53 54 54 54 54 54 53 53 51 51 50 51 52 49 48 48 48 47 44 36 35 35 35 39 39 38 36 35 35 35 36 35 35 35 32
36 38 41 45 48 48 51 51 53 53 52 53 54 53 53 52 52 51 51 50 50 48 48 48 46 37 34 35 35 35 35 36 36 35 35 34 35 34 32 33 34 35
34 35 37 41 45 48 50 52 51 51 51 52 53 54 54 52 51 50 50 50 48 47 47 46 39 35 34 35 36 35 34 35 31 34 32 34 34 34 34 34 34 34
34 35 37 39 44 48 50 50 50 50 51 51 52 53 53 52 52 51 50 49 48 47 46 43 37 36 35 35 35 34 33 35 32 35 34 33 33 33 35 34 35 34
37 36 38 39 41 44 48 49 50 51 50 50 51 52 52 51 51 50 49 48 47 46 44 41 36 35 34 34 34 34 33 35 35 36 34 35 36 36 36 35 35 36
39 39 40 40 41 43 45 47 49 50 50 51 51 51 51 51 50 49 48 47 46 45 41 37 35 34 34 34 34 34 33 34 34 36 35 34 33 33 33 33 33 33
41 40 40 41 42 42 43 47 49 49 49 49 50 50 49 49 49 48 47 46 44 42 40 36 32 34 33 34 34 34 33 32 34 33 32 33 34 34 34 34 34 33
41 40 40 41 42 43 44 47 49 49 49 49 50 49 48 48 48 46 45 43 42 40 37 34 31 34 34 34 34 34 33 33 32 32 32 32 32 33 34 33 34 39
41 41 41 41 42 43 45 47 48 48 48 49 50 49 48 46 44 43 42 41 40 39 39 36 32 34 34 33 34 33 35 33 31 30 31 31 31 30 32 33 32 35
43 43 43 43 43 45 47 48 48 48 48 49 50 47 46 44 44 43 43 45 43 40 39 37 35 33 34 34 34 34 34 32 31 28 29 30 31 30 31 32 31 31

ECMWFNIL_sfc_dewp_015.txt.gz
Dewpoint
51 52 51 49 48 50 51 50 51 51 50 50 50 52 49 51 51 53 53 52 52 51 50 51 50 51 50 50 50 47 48 51 50 50 50 50 50 51 51 50 50 48
55 53 51 50 48 48 51 51 52 51 50 51 51 52 52 52 52 53 53 52 51 51 51 50 50 49 48 47 49 48 48 50 48 47 52 51 51 51 51 51 49 50
55 55 54 52 50 50 53 52 52 52 50 51 53 53 53 53 52 53 54 53 51 51 51 51 51 49 49 49 50 49 50 50 50 49 49 49 50 49 50 48 49 48
56 56 55 55 53 51 52 53 52 51 51 51 51 53 53 54 52 53 54 52 52 52 52 51 51 50 48 48 49 48 49 49 48 50 49 49 49 47 48 48 47 46
57 56 56 55 54 54 54 54 53 50 50 51 52 53 53 55 53 52 53 52 53 52 52 51 50 50 49 49 48 48 48 47 49 50 47 48 48 49 48 48 47 48
56 54 53 53 54 55 54 54 52 51 50 51 53 52 53 55 52 51 52 52 51 51 51 51 49 49 49 48 49 49 47 47 48 48 46 47 47 47 44 48 47 48
54 54 55 53 53 54 56 56 55 53 48 51 51 53 53 54 52 51 50 51 50 49 49 50 50 50 49 50 48 49 48 48 46 45 44 44 45 44 43 44 41 41
53 56 56 56 55 55 56 56 56 55 53 51 52 53 52 53 51 51 50 51 49 48 49 48 49 48 48 49 47 48 48 49 47 44 44 44 45 44 45 43 45 44
53 53 53 54 55 54 56 55 56 59 58 55 50 51 52 52 52 51 50 50 49 49 48 48 48 47 49 49 48 48 47 48 47 45 45 46 45 43 41 43 44 46
54 55 55 54 53 52 53 56 57 56 56 57 54 51 51 52 49 50 50 50 50 49 48 48 48 48 48 47 45 47 47 46 46 46 46 46 45 43 39 41 43 43
55 55 55 58 59 58 59 59 56 54 55 53 55 53 53 51 50 49 50 50 51 49 49 49 49 48 48 47 47 48 47 47 45 44 45 44 44 43 45 40 42 42
56 57 56 57 58 58 59 59 58 58 55 56 53 52 52 53 49 49 48 48 49 49 49 48 49 49 47 47 46 47 47 47 46 45 45 43 43 43 41 43 42 40
51 54 56 56 57 59 60 59 59 60 55 55 54 53 54 50 50 50 49 49 48 49 49 49 48 48 48 48 46 46 47 46 46 45 45 44 44 41 40 40 39 39
46 46 46 48 52 55 58 59 58 58 58 59 58 57 55 52 52 51 51 49 49 49 49 49 49 48 48 47 46 47 47 46 45 46 45 45 44 40 40 39 39 38
47 46 48 47 47 48 49 51 55 59 59 58 58 57 56 54 52 52 51 51 50 50 49 50 50 50 48 48 47 46 46 46 46 45 44 44 42 40 40 38 37 38
42 44 45 46 47 48 49 50 49 50 53 56 57 57 56 54 53 52 52 53 52 51 49 51 51 51 49 45 46 46 46 46 47 45 42 41 40 39 39 38 37 38
35 37 40 41 43 45 48 48 47 49 50 51 53 54 55 54 54 53 53 57 57 54 50 52 56 53 41 41 41 42 46 46 44 42 41 40 39 39 38 39 39 35
33 33 33 35 37 38 41 44 47 49 49 49 51 53 54 54 54 54 53 53 54 53 55 54 54 41 37 37 37 38 41 43 43 41 40 39 38 38 36 36 36 37
30 30 31 33 34 35 38 43 45 47 49 49 49 50 52 54 53 54 53 53 54 51 51 51 50 37 36 36 35 35 35 39 39 40 38 37 37 37 35 35 35 35
32 31 33 34 35 36 37 37 41 44 47 49 49 49 51 53 54 54 54 53 53 52 51 51 41 37 35 35 35 34 32 33 37 38 37 36 36 36 37 36 36 35
34 33 35 35 35 36 37 36 37 41 45 47 48 48 48 50 53 53 54 54 53 53 53 47 42 35 34 34 33 33 31 32 37 38 36 35 35 36 36 36 36 36
37 37 37 35 35 35 36 37 39 41 44 47 47 47 48 48 50 51 52 52 52 53 52 40 38 33 33 33 32 32 32 38 36 37 35 34 36 36 36 36 36 36
36 37 38 38 37 35 35 37 38 39 42 45 46 47 47 48 48 49 50 51 50 50 49 38 34 33 32 32 32 32 32 33 37 35 35 36 36 36 35 36 36 36
37 36 36 36 36 36 36 37 39 39 40 44 45 45 45 46 47 48 49 50 50 50 41 37 33 34 33 33 32 31 34 35 34 35 34 34 34 35 36 34 35 44
36 38 38 38 37 38 39 38 39 40 40 44 45 45 45 45 46 47 49 49 49 46 39 36 34 34 34 33 33 32 35 36 32 31 32 33 33 33 34 34 33 40
38 39 40 40 40 42 43 42 41 41 42 44 45 43 43 43 45 46 47 44 41 37 36 34 33 34 35 33 33 33 33 36 33 27 30 32 32 31 32 33 32 31

ECMWFNIL_sfc_dewp_018.txt.gz
Dewpoint
58 57 57 58 57 57 56 58 57 57 58 58 57 55 56 57 56 59 58 58 58 57 56 56 56 56 56 55 55 51 53 55 54 54 52 53 53 53 53 52 52 52
57 57 56 56 57 56 57 60 58 57 58 58 57 57 56 57 56 58 57 57 57 57 56 56 56 54 55 54 55 54 53 54 52 52 55 55 54 54 54 52 51 52
56 58 56 56 56 58 57 59 60 58 58 59 59 58 56 56 56 58 57 57 55 56 57 56 55 54 54 55 55 55 55 54 54 54 53 50 53 53 52 52 52 51
58 58 57 57 57 58 57 56 60 59 59 59 60 58 56 56 56 57 57 56 56 55 56 57 56 55 54 54 54 55 54 54 53 54 53 53 52 50 52 52 51 50
59 59 60 59 58 59 58 56 57 58 59 58 60 59 57 57 56 57 57 56 56 55 55 55 56 55 55 54 53 54 53 54 53 53 53 53 53 52 52 53 51 51
59 57 59 61 62 59 60 58 57 58 58 58 58 57 58 57 55 55 56 55 55 55 54 53 53 54 53 53 54 54 53 53 52 54 51 51 49 50 48 52 50 51
61 61 61 61 61 61 60 60 61 60 60 59 56 57 58 57 55 54 53 54 53 54 52 53 52 53 53 52 52 53 51 53 50 50 50 50 50 49 47 48 47 47
62 61 60 60 61 61 59 59 61 61 61 62 60 59 56 56 55 55 54 54 52 51 52 51 52 51 52 53 51 52 51 54 50 48 49 48 49 48 49 50 49 48
60 59 59 60 60 59 60 60 61 61 60 60 59 59 59 56 56 55 54 53 52 52 51 51 51 50 52 52 51 51 49 52 51 49 49 50 48 49 45 46 48 49
59 58 59 59 59 59 58 60 59 60 61 61 60 59 57 58 58 54 53 53 53 51 51 51 51 51 51 50 50 50 49 50 48 49 49 49 47 46 43 46 47 48
58 58 59 59 60 59 60 61 61 59 60 58 59 60 59 57 56 56 54 52 54 52 51 50 51 50 50 50 51 52 50 50 48 47 49 48 48 48 50 46 48 47
60 59 58 59 60 59 59 60 61 59 58 61 59 58 57 57 56 54 53 51 50 51 50 50 50 50 49 49 49 50 51 51 49 49 49 47 47 48 46 46 47 47
61 61 61 59 59 59 59 59 60 61 59 59 60 58 58 57 56 56 56 53 51 50 51 51 51 51 50 50 49 49 49 49 50 49 49 49 48 46 46 46 46 45
53 50 50 51 54 57 59 58 59 59 58 58 59 60 59 58 58 58 56 54 54 55 56 56 54 53 52 50 49 49 50 49 49 49 48 49 49 48 48 46 46 45
53 53 54 53 51 50 53 53 58 59 58 58 58 58 58 58 58 57 55 54 54 56 57 58 57 56 56 51 50 49 50 49 49 47 48 47 48 47 46 46 45 45
48 52 50 50 50 50 51 52 51 55 59 57 57 57 57 56 56 56 56 56 56 57 58 58 58 56 53 49 48 49 50 48 50 49 47 48 46 46 46 45 45 45
48 45 47 47 49 49 51 52 52 54 56 58 58 57 57 56 56 55 55 56 56 55 54 55 55 54 48 43 42 45 49 50 49 49 48 47 46 45 43 44 44 40
45 46 47 48 49 46 48 49 52 54 55 56 56 56 57 57 57 56 56 56 57 55 54 54 55 50 43 41 41 42 46 50 49 48 48 46 43 43 42 42 41 42
43 40 42 47 47 47 49 49 49 50 50 53 54 55 56 55 55 56 56 56 56 55 54 55 51 40 40 40 40 41 42 45 45 45 44 45 43 43 41 41 41 43
46 45 45 46 47 48 49 46 46 46 51 53 54 54 54 54 55 56 56 56 56 55 54 53 46 39 38 38 38 38 39 42 44 45 43 43 42 41 45 45 45 44
40 44 46 45 46 46 47 47 47 49 48 48 49 53 53 52 53 54 55 55 55 55 54 47 45 38 37 36 35 35 37 40 46 47 43 45 45 44 43 43 43 43
44 47 48 47 46 47 45 44 47 48 48 48 49 51 52 52 52 53 54 54 55 55 49 46 42 36 35 35 34 35 37 42 43 41 41 42 42 43 43 42 42 42
45 46 47 47 46 46 44 46 47 48 48 48 46 48 50 51 52 52 52 53 53 53 46 43 39 36 34 33 35 36 37 38 41 39 40 42 42 43 43 42 42 41
41 41 44 46 46 44 45 47 47 46 45 48 46 48 49 50 51 51 51 52 52 50 43 41 37 36 33 33 35 36 37 41 40 40 42 41 41 43 42 40 39 45
43 44 45 46 44 44 48 47 46 45 45 46 44 45 47 49 49 48 49 49 45 43 42 39 35 34 33 32 33 34 39 42 39 36 38 37 38 40 41 41 40 43
46 44 44 43 41 45 48 48 48 46 46 45 45 42 44 47 48 46 46 42 42 40 40 36 33 33 34 32 33 33 34 37 38 39 38 38 37 35 36 38 36 35

ECMWFNIL_sfc_dewp_021.txt.gz
Dewpoint
51 53 53 52 53 53 54 53 54 53 53 52 51 52 53 52 54 53 52 51 50 52 52 51 52 52 53 52 52 51 52 52 51 50 50 51 50 49 49 48 48 49
52 54 54 53 54 54 54 53 54 53 54 52 52 52 54 52 53 54 53 52 52 51 51 51 50 50 51 51 50 50 50 49 49 53 51 51 51 51 49 49 48 48
53 53 53 52 53 52 54 54 54 52 55 53 53 53 53 52 53 54 53 51 51 51 51 51 50 51 50 50 52 51 51 51 50 49 50 50 50 49 48 47 47 48
53 52 53 53 53 51 52 55 53 52 55 55 53 53 53 53 53 55 53 56 52 51 51 51 50 51 51 51 52 50 51 50 50 51 50 49 49 49 48 49 49 46
55 53 54 52 55 52 52 54 53 52 53 55 54 54 53 52 53 54 53 53 53 51 51 51 52 50 50 49 51 50 51 50 50 49 49 48 49 50 49 50 47 45
57 56 55 53 55 53 52 52 54 53 53 54 55 54 52 51 53 54 53 53 53 52 52 51 51 51 50 48 50 48 50 49 48 51 49 47 45 47 48 48 46 47
57 56 56 57 55 54 54 54 54 54 54 53 56 54 53 52 52 54 54 53 53 53 52 52 51 50 50 48 49 49 48 49 47 49 48 47 47 46 47 47 47 47
57 56 56 57 57 56 55 55 55 56 56 56 54 54 54 53 52 53 54 53 52 53 52 52 51 51 51 50 48 49 46 51 48 47 48 48 46 43 45 47 44 46
55 56 56 56 55 56 57 57 57 57 57 56 55 55 54 55 53 53 53 53 52 52 52 52 51 51 51 50 49 50 47 49 49 46 46 47 45 45 46 46 45 46
56 57 57 57 57 56 56 56 56 56 56 55 54 54 54 55 55 54 54 53 52 52 52 52 51 51 51 50 50 50 49 50 48 47 47 48 46 46 46 45 45 46
55 56 56 57 57 57 57 57 57 58 57 56 56 55 57 56 55 54 53 53 53 52 51 51 52 51 50 50 50 50 50 50 47 47 47 48 46 46 49 45 46 46
54 55 56 56 57 56 56 58 58 58 58 58 58 57 56 56 55 55 53 53 53 53 52 51 51 52 52 50 50 50 50 49 48 47 47 48 47 47 46 46 46 44
55 56 55 56 55 55 54 55 57 58 57 56 57 56 56 56 56 55 55 54 53 53 52 55 55 54 55 55 53 50 50 49 48 47 47 48 47 47 44 46 45 45
47 47 45 50 53 55 55 54 56 57 56 56 56 55 55 55 55 55 55 55 54 53 54 54 55 54 54 55 55 53 50 49 48 47 47 47 47 46 45 45 45 45
48 48 49 47 47 48 53 55 56 57 57 56 56 56 56 56 55 55 55 56 55 55 54 54 55 55 56 55 54 53 51 49 49 47 47 46 46 45 45 44 43 43
48 47 47 47 46 46 48 48 55 57 56 55 55 56 56 56 56 56 56 56 55 55 55 55 55 55 54 51 50 54 53 50 50 48 47 46 45 44 43 42 42 42
47 48 48 48 48 47 47 49 50 53 56 56 55 55 55 55 55 55 55 55 55 54 54 54 55 55 49 46 46 47 52 51 49 48 47 46 44 42 41 41 42 43
43 45 46 46 48 48 48 49 49 49 50 53 55 55 55 55 54 55 55 54 54 54 54 54 54 51 47 46 45 44 46 51 49 47 47 46 44 42 42 41 40 43
37 33 36 38 42 42 43 43 42 43 44 47 50 54 55 55 55 55 55 54 54 53 53 53 53 49 46 45 44 43 42 47 48 47 46 45 44 43 41 41 41 42
37 36 37 39 41 41 41 39 40 39 42 42 43 45 48 51 54 54 54 53 54 54 53 52 51 48 44 44 43 41 40 45 47 46 44 44 44 42 42 41 41 41
37 37 40 40 40 41 41 40 41 42 43 44 43 44 45 46 46 48 50 50 51 52 52 49 48 40 39 39 39 40 41 44 45 44 42 43 43 43 42 40 40 42
37 38 39 39 39 40 38 38 39 40 39 40 41 42 45 45 46 48 48 49 50 49 47 44 39 37 37 37 38 38 41 45 43 43 42 44 41 41 40 40 40 39
38 40 40 38 39 38 37 39 39 40 39 41 39 40 41 43 45 45 47 48 47 46 45 41 37 36 36 37 38 39 40 42 40 39 38 38 39 40 41 41 41 41
36 36 37 39 40 38 39 40 41 40 40 40 39 40 40 42 45 45 45 46 47 45 44 39 35 35 36 37 37 38 40 41 38 38 37 37 39 41 40 40 42 47
36 37 39 40 39 39 40 40 40 40 40 41 41 41 41 41 44 43 42 42 44 43 43 37 32 34 36 36 36 37 39 38 38 37 37 38 38 39 40 40 36 39
36 36 37 37 37 39 41 41 42 42 41 41 41 41 42 41 42 42 40 39 40 41 39 33 31 32 35 34 35 37 38 39 38 36 35 33 32 32 32 32 35 34

ECMWFNIL_sfc_dewp_024.txt.gz
Dewpoint
53 53 52 52 53 53 52 52 51 50 50 50 50 50 49 49 51 51 50 50 49 49 49 50 51 51 52 51 51 51 51 50 49 49 49 50 47 47 47 47 46 46
54 54 54 53 53 53 52 53 51 50 50 50 51 51 50 51 51 50 49 50 50 49 49 49 50 50 50 49 49 49 48 49 49 52 50 49 48 46 46 46 45 45
55 54 53 52 52 53 53 53 52 51 50 51 51 51 51 52 52 50 50 50 49 49 48 49 49 50 50 49 49 50 49 48 48 49 50 47 47 47 46 46 46 44
54 54 53 53 53 53 53 53 53 52 51 51 51 52 52 53 52 51 50 54 49 49 49 49 49 49 49 49 49 49 48 47 47 49 49 48 49 47 47 47 47 45
53 54 53 53 53 53 54 53 52 53 52 52 52 52 52 53 52 51 51 50 50 49 49 49 49 49 49 50 49 49 48 48 48 47 46 46 48 47 48 47 46 46
53 54 55 55 53 52 54 53 52 53 53 52 52 53 51 52 52 51 51 50 50 50 50 49 49 49 48 49 49 49 49 48 47 48 47 46 45 46 48 46 46 45
54 54 54 54 54 52 53 53 52 53 53 52 53 52 51 52 52 52 51 51 50 50 50 50 50 49 48 48 48 47 48 47 48 48 46 45 46 44 47 47 48 47
55 54 53 53 53 52 52 53 53 53 54 54 52 52 51 52 53 52 52 52 51 50 50 50 50 50 49 47 49 47 48 48 47 48 46 46 45 44 44 46 45 46
55 55 55 55 55 54 54 55 55 54 55 53 53 53 52 51 53 53 52 52 52 51 50 50 50 50 50 47 47 48 46 49 47 47 47 47 45 43 44 45 44 45
55 54 55 55 55 55 55 55 55 55 55 54 54 54 53 53 52 53 53 52 52 52 51 50 50 50 50 49 47 48 46 48 48 46 46 47 45 44 45 44 44 45
54 54 53 54 55 56 55 55 55 55 55 54 55 55 55 54 53 53 53 53 52 52 52 51 51 50 50 49 48 48 48 47 48 46 46 47 45 45 47 44 45 44
53 53 54 55 54 54 55 55 55 56 55 54 53 55 55 54 54 54 53 53 52 52 52 52 52 51 50 49 49 49 49 48 48 47 46 47 46 45 47 44 44 45
53 53 55 54 55 54 54 53 53 54 54 55 55 55 55 54 53 53 53 53 53 53 52 52 52 52 51 50 49 49 49 49 48 47 46 47 46 45 46 45 45 45
53 52 53 54 54 54 53 53 54 54 53 53 54 53 53 53 54 54 54 54 54 53 54 53 53 53 53 52 51 50 50 49 49 47 46 47 46 46 45 45 45 44
46 46 48 50 53 54 53 52 53 53 53 52 52 52 53 53 53 53 53 53 53 53 53 53 53 53 53 53 53 53 50 50 49 48 47 46 46 46 44 43 43 43
46 46 45 45 46 47 48 49 52 52 52 52 53 52 52 52 52 52 52 52 53 53 53 53 53 53 53 50 50 53 52 51 50 49 47 47 46 45 44 43 43 43
45 45 45 43 43 43 44 45 47 51 52 52 52 52 51 51 52 52 52 53 53 53 53 53 53 54 49 46 45 47 52 52 51 50 49 47 46 45 43 43 42 42
44 45 45 45 45 45 45 46 47 47 48 50 51 52 52 51 51 52 52 51 52 52 52 53 53 51 47 46 44 44 47 52 52 50 49 48 46 45 43 42 41 43
41 43 44 42 43 44 44 45 45 46 46 46 48 50 50 51 52 50 52 51 51 51 52 52 52 49 46 45 45 44 43 47 51 50 48 47 46 44 43 42 42 43
37 37 38 39 41 41 41 40 40 40 41 42 43 44 47 48 49 50 50 50 51 51 52 51 52 49 46 45 44 43 42 43 50 50 48 47 46 44 43 41 42 42
37 39 38 39 39 39 39 39 39 38 38 39 40 41 42 43 44 46 48 49 49 50 50 50 47 39 41 42 42 42 42 41 47 47 46 46 46 45 44 44 43 44
36 37 39 39 39 38 37 37 38 38 37 39 38 38 39 40 40 43 44 44 46 47 48 46 37 37 38 39 39 39 40 44 44 44 44 44 44 43 44 45 44 42
36 38 39 38 38 36 36 36 37 36 36 39 36 37 37 38 38 39 42 45 44 46 45 37 35 36 37 38 38 39 41 42 42 41 41 40 41 41 41 40 40 38
38 39 39 38 38 36 37 37 38 38 38 39 37 37 37 37 38 41 40 42 43 44 44 40 34 36 38 38 39 39 40 40 39 39 38 39 39 40 40 40 44 47
37 38 39 39 38 38 38 38 39 38 37 39 39 39 39 39 40 39 38 38 40 42 45 38 34 36 37 37 38 38 39 38 37 36 36 37 38 36 35 36 35 40
36 36 39 39 38 38 38 39 39 39 39 39 39 40 40 38 38 36 36 36 37 37 36 34 35 35 36 37 37 37 38 39 37 36 35 33 32 32 34 34 34 34

ECMWFNIL_sfc_dewp_027.txt.gz
Dewpoint
53 53 52 53 52 52 51 50 49 48 47 48 47 46 47 47 50 48 48 48 48 49 49 50 50 51 51 50 50 49 49 49 49 47 48 48 46 46 46 45 45 45
53 53 53 53 53 52 51 50 49 49 48 48 48 48 47 49 49 48 47 48 48 48 49 49 50 49 49 49 48 48 47 48 49 50 46 46 45 45 45 44 44 44
54 54 53 52 52 52 52 51 49 49 49 49 49 49 49 50 48 47 48 47 47 47 48 49 49 48 48 48 48 49 48 48 47 46 47 45 45 45 44 44 44 44
54 54 53 53 54 53 52 52 50 49 49 49 50 50 50 51 49 48 48 53 47 47 47 48 48 47 47 47 48 47 47 47 47 47 48 46 47 46 45 45 45 44
54 53 53 53 53 53 53 52 52 51 50 50 49 50 51 50 48 48 48 48 47 47 47 47 47 47 48 48 48 47 46 47 46 46 46 45 46 46 46 45 45 44
53 53 53 53 54 54 53 53 52 52 51 50 51 52 51 51 50 49 49 48 47 47 47 47 47 47 47 47 46 46 47 47 46 46 46 45 45 46 45 45 44 44
53 53 53 53 54 54 53 53 53 52 51 51 51 51 51 51 50 50 50 49 48 48 47 47 47 47 46 47 46 46 46 46 45 45 46 44 45 45 45 44 45 45
53 52 53 54 54 55 54 53 53 52 52 51 51 51 51 51 51 50 50 49 48 48 48 48 48 48 47 47 48 46 45 46 47 45 44 44 44 44 44 45 44 44
53 52 53 53 54 55 53 53 53 53 53 52 51 51 52 51 52 51 50 50 49 49 49 49 49 48 47 47 47 47 47 46 47 46 45 44 43 43 44 44 44 44
53 54 54 54 54 54 54 55 55 55 55 55 54 52 51 51 52 52 52 51 50 50 49 49 49 49 49 47 47 47 47 47 47 46 46 45 45 44 44 44 44 43
53 54 54 53 53 54 54 55 55 55 55 55 55 54 54 54 53 53 52 52 51 51 50 49 50 49 49 49 47 47 47 47 47 46 46 46 46 44 46 43 44 43
53 52 53 53 53 53 54 54 55 54 54 54 55 55 55 55 54 54 54 53 52 51 50 51 51 50 50 49 49 48 47 46 47 47 46 46 46 45 45 44 43 44
52 53 52 53 54 53 53 54 55 54 54 54 54 54 54 54 54 54 54 53 53 52 52 52 51 51 51 50 50 49 48 48 47 47 46 46 46 46 45 45 44 44
50 52 53 52 53 53 53 53 53 53 53 53 53 53 53 53 53 54 54 53 53 53 53 53 52 52 52 51 50 50 49 48 48 48 47 46 46 46 46 45 44 45
50 50 53 52 53 53 53 53 53 53 53 52 53 53 54 54 54 53 53 52 52 52 52 52 51 52 53 52 52 51 50 49 49 48 48 47 46 46 46 46 45 45
51 50 52 51 51 52 53 53 53 53 53 52 53 53 52 52 52 53 53 53 52 51 51 51 51 52 52 49 50 52 51 50 50 49 48 48 47 46 46 45 45 45
47 48 49 51 51 51 50 50 51 52 52 52 52 51 52 51 52 52 53 52 51 51 51 51 52 52 49 47 45 47 51 50 50 50 49 48 48 47 46 45 44 44
45 46 45 45 46 47 45 45 46 48 50 52 52 52 51 51 51 52 51 50 51 51 51 51 51 50 47 47 45 44 47 50 51 50 50 49 49 48 47 46 44 43
43 44 44 44 44 45 45 45 45 46 46 45 46 47 48 49 50 49 50 50 50 51 50 50 50 49 46 46 45 44 43 46 50 50 50 50 49 48 47 46 44 44
38 40 39 39 39 40 41 41 41 40 40 41 41 42 44 45 45 46 46 46 47 48 48 48 47 46 42 42 42 42 42 42 47 49 49 49 49 48 47 46 43 43
38 38 38 38 38 39 38 38 38 37 38 39 39 39 39 39 40 42 43 45 45 46 45 46 46 39 40 41 41 41 41 41 45 46 46 46 45 45 44 44 43 43
38 37 37 37 37 37 37 37 37 36 37 38 37 36 37 36 37 39 39 41 42 43 45 45 41 37 37 38 40 41 41 42 42 43 43 42 41 42 42 43 44 42
37 37 38 37 37 36 35 36 35 34 35 38 36 35 36 37 37 38 39 39 42 42 43 42 38 37 37 38 39 39 41 41 41 41 40 40 39 40 40 41 41 42
38 39 38 38 37 36 35 35 36 37 36 37 35 36 38 38 39 37 37 39 41 42 40 41 38 36 37 37 38 39 41 41 40 40 39 39 38 37 37 39 43 45
39 39 38 38 37 37 37 36 37 37 36 37 37 38 37 38 38 37 35 36 36 37 43 36 34 36 38 37 38 39 40 39 38 38 37 36 35 34 34 35 36 39
39 41 39 39 38 37 38 38 38 38 37 37 36 37 37 35 35 35 34 33 32 32 33 33 33 33 36 37 38 38 38 38 37 37 36 34 34 34 33 33 33 33

ECMWFNIL_sfc_dewp_030.txt.gz
Dewpoint
53 53 53 52 52 52 51 49 49 48 47 47 47 47 47 48 51 49 49 49 49 49 50 50 51 51 51 50 50 49 49 49 49 48 48 48 47 47 47 46 47 47
53 54 54 53 53 52 51 50 49 49 48 48 48 48 48 49 49 49 48 49 49 49 49 50 50 49 49 49 49 49 49 48 48 49 47 46 46 46 46 47 47 47
54 53 53 53 53 52 51 51 50 49 49 49 49 49 49 51 49 48 49 49 48 48 49 49 49 49 48 48 49 49 48 47 47 47 47 46 46 46 46 46 46 46
53 53 53 53 53 52 52 52 51 50 50 50 50 51 51 52 49 49 49 53 48 48 48 49 49 48 48 48 49 48 48 47 47 48 47 47 48 46 46 47 47 45
54 53 54 54 55 54 53 53 52 51 50 50 50 51 52 51 49 49 49 49 48 48 48 49 48 49 49 49 48 48 49 48 47 47 46 46 47 46 46 46 45 45
54 53 53 54 54 53 53 52 50 51 51 50 51 52 51 50 49 49 49 49 48 48 48 48 48 49 48 48 47 48 48 47 47 47 47 47 47 47 45 45 45 44
53 53 53 54 54 54 53 53 52 52 51 51 51 51 51 51 50 49 49 49 48 50 48 48 48 48 48 48 48 47 47 47 46 46 46 46 48 46 46 46 46 44
53 53 53 53 53 54 53 53 53 53 52 51 50 51 51 51 51 51 51 50 49 49 48 48 49 49 48 48 48 47 48 48 47 46 46 46 46 46 46 47 46 45
53 53 53 53 53 53 53 53 53 53 53 52 51 51 52 51 52 52 52 51 50 51 50 50 49 49 48 48 48 47 47 47 48 46 46 46 45 45 45 46 45 46
52 52 53 53 53 53 53 53 53 53 54 54 53 52 51 52 53 53 53 53 52 52 52 50 50 50 49 48 49 48 48 47 48 47 47 46 46 45 45 46 46 44
52 53 53 53 53 53 53 54 54 54 55 55 54 53 53 53 53 54 53 53 53 53 52 51 51 50 50 50 49 49 48 48 48 48 48 47 47 45 47 45 46 45
52 52 53 53 53 53 53 54 54 54 54 55 55 54 54 54 53 53 54 54 54 53 53 52 52 51 50 51 50 49 49 48 49 48 48 47 47 46 46 45 45 45
51 52 52 52 53 53 54 54 54 54 54 54 55 54 54 53 53 53 53 53 54 54 54 54 53 52 52 52 51 50 50 49 48 48 48 48 47 47 46 46 45 45
51 52 52 52 53 53 53 53 53 53 54 54 54 54 54 54 53 53 53 53 54 54 54 54 54 53 53 52 52 52 51 50 49 48 48 48 48 47 48 47 46 46
51 51 51 52 52 52 52 52 53 53 53 54 53 53 54 54 54 53 53 53 53 52 53 53 53 53 53 53 52 52 51 50 49 49 48 48 48 47 48 48 47 46
50 50 51 50 51 51 51 51 52 52 52 51 52 52 52 52 53 52 52 52 52 52 52 52 52 53 52 49 49 52 52 51 50 50 50 49 49 49 48 48 47 47
50 50 50 50 49 50 50 51 51 52 52 52 51 51 52 52 52 51 52 52 52 52 52 52 52 52 48 46 45 46 51 51 51 51 50 50 49 49 48 49 47 46
47 48 49 50 49 49 49 49 50 50 51 51 51 51 51 51 50 51 51 51 51 51 51 52 52 50 46 45 44 43 46 51 51 50 50 50 50 49 49 49 49 48
45 46 46 46 46 47 46 46 47 48 49 49 51 52 51 51 51 50 50 50 50 51 52 52 52 47 42 42 41 42 41 46 51 51 51 50 50 50 49 49 49 48
43 44 44 43 43 43 44 44 44 44 44 44 45 47 48 48 50 50 50 50 50 50 51 49 49 46 41 41 40 40 40 42 49 50 50 50 50 50 49 49 48 47
39 40 41 40 40 41 42 42 42 39 41 41 42 43 44 44 44 45 46 47 47 47 47 48 47 41 38 38 39 39 39 40 47 47 48 48 48 48 48 48 48 47
39 38 39 39 39 38 39 39 39 40 40 39 39 39 39 39 39 41 41 41 41 42 43 43 43 39 37 37 39 39 39 44 45 46 45 43 42 43 44 45 45 45
39 39 39 38 37 37 37 37 37 37 38 39 38 38 39 40 40 40 38 39 41 41 43 41 41 39 37 37 38 38 41 43 43 42 41 40 39 40 41 43 44 43
39 39 39 39 38 36 37 38 38 38 38 40 39 40 41 40 40 39 37 38 40 41 42 42 40 37 37 38 38 39 41 42 42 41 39 38 37 37 38 39 43 45
39 40 39 39 38 38 39 38 38 38 39 40 39 41 41 41 40 38 36 35 36 38 41 36 35 37 38 38 38 39 41 41 41 39 38 36 36 35 36 36 36 39
40 41 40 39 38 39 39 38 40 40 39 39 38 39 39 38 38 36 35 33 33 33 35 36 36 35 38 37 38 39 39 41 40 39 37 35 35 35 35 34 35 35

ECMWFNIL_sfc_dewp_033.txt.gz
Dewpoint
59 59 58 57 57 57 56 56 55 55 55 55 54 54 53 55 55 56 56 57 57 57 57 57 56 56 55 55 56 54 53 55 54 54 54 54 54 54 54 53 54 51
59 58 57 58 57 56 57 57 56 55 55 55 55 54 56 56 56 56 56 56 55 56 56 56 55 54 54 53 55 54 53 54 53 52 54 54 53 53 54 54 53 52
58 58 58 58 57 57 57 57 57 57 56 55 56 56 56 57 56 56 56 56 55 56 57 56 56 54 54 54 54 54 53 53 52 53 53 52 53 52 53 52 51 53
58 58 58 59 58 57 58 58 57 56 55 56 56 56 56 56 56 56 57 56 56 56 57 56 55 54 53 53 54 52 53 52 52 53 52 52 52 51 52 52 51 49
58 58 58 58 58 59 58 57 57 55 54 56 57 56 55 56 55 54 55 55 56 55 56 55 55 55 55 54 53 52 53 51 52 52 50 50 51 52 52 51 49 50
57 56 56 57 58 58 57 57 55 54 55 56 57 56 56 56 54 53 54 54 54 54 54 54 53 54 54 54 54 52 51 49 51 51 48 48 48 50 47 50 49 48
57 57 57 57 57 58 58 57 56 54 56 56 55 56 56 55 54 53 52 53 52 52 52 53 53 54 54 54 54 53 52 52 50 49 47 48 48 49 48 48 45 45
58 57 57 57 58 58 58 57 56 55 56 55 56 55 55 54 53 55 54 53 52 51 52 51 51 52 53 53 52 53 54 54 52 48 48 48 49 46 48 48 49 44
57 57 57 57 58 58 58 57 57 56 55 55 55 55 55 55 54 55 53 53 52 52 51 52 52 52 53 52 53 52 51 53 53 51 50 49 49 47 45 47 47 47
57 58 58 58 58 58 58 58 58 57 56 55 55 55 54 56 55 54 54 54 54 53 53 53 53 53 53 52 51 52 51 51 51 52 51 50 48 46 45 49 48 48
58 58 58 59 59 59 59 58 58 58 57 55 56 56 56 57 57 55 55 54 55 54 54 54 53 53 53 53 55 55 53 52 51 51 52 52 51 50 51 49 49 48
58 57 57 58 58 59 59 58 59 58 57 57 55 55 56 57 57 58 57 55 54 54 54 54 54 55 54 53 53 54 55 55 54 54 53 53 53 54 51 51 50 48
57 57 58 58 59 58 59 58 57 59 58 56 57 57 57 57 57 56 57 55 55 56 56 56 55 55 55 56 55 55 55 54 54 53 53 53 53 53 54 52 50 49
57 58 58 59 59 58 58 58 57 58 58 58 57 57 57 56 56 56 57 56 56 56 56 57 56 56 56 56 55 55 55 55 55 55 54 54 54 53 53 54 53 52
57 58 58 58 57 57 57 57 57 58 57 57 57 58 58 56 56 56 56 56 56 57 56 57 57 57 57 57 57 55 55 55 55 53 53 53 53 52 52 52 51 52
56 57 56 56 56 56 57 57 57 57 57 57 57 57 57 58 57 57 57 57 56 56 57 57 57 57 55 51 51 55 55 54 55 55 54 54 53 53 53 53 52 52
55 56 56 56 56 56 56 56 56 57 57 56 57 58 57 56 57 56 56 56 55 55 56 57 57 56 49 46 45 46 53 56 55 55 55 54 54 54 54 54 54 51
53 53 55 55 55 55 55 55 56 56 56 56 57 57 57 57 57 56 56 56 57 56 57 57 57 51 46 45 44 42 46 56 56 56 55 55 55 54 54 54 53 54
52 52 53 54 54 54 55 55 55 56 56 57 57 58 57 55 56 56 56 56 56 55 56 56 57 46 41 41 42 41 40 47 55 56 56 56 55 55 55 54 54 54
49 50 51 52 53 53 53 53 54 54 56 56 56 55 55 55 55 56 56 55 56 56 56 56 56 42 41 40 41 39 39 41 56 58 58 57 56 56 56 56 55 54
40 42 45 47 48 49 51 51 51 52 52 53 53 54 54 54 54 55 54 54 53 54 55 54 53 39 39 39 39 39 38 40 55 56 56 56 55 55 54 55 54 55
43 44 44 45 45 46 47 48 49 49 50 49 50 50 50 50 50 51 52 53 52 53 54 54 52 38 37 37 39 38 39 51 53 54 55 54 51 50 49 50 50 51
42 43 47 47 45 46 47 47 48 47 48 47 48 48 48 48 50 50 49 50 49 50 53 53 50 41 37 37 38 38 44 53 54 51 50 49 48 48 47 48 49 48
41 40 43 44 44 44 44 46 46 45 46 46 47 46 48 49 47 46 47 48 51 51 51 52 49 41 37 38 38 38 47 53 51 50 48 46 45 45 45 45 44 46
42 42 41 42 41 43 45 45 45 44 45 46 47 48 48 46 45 45 46 46 46 47 42 49 49 43 37 38 38 39 46 51 49 47 46 45 43 42 43 42 41 40
43 42 44 44 42 46 45 44 44 44 45 46 47 46 45 45 45 45 45 44 43 44 45 47 47 46 42 38 38 39 41 49 49 46 45 44 42 40 40 40 39 38

ECMWFNIL_sfc_dewp_036.txt.gz
Dewpoint
59 59 58 55 52 53 53 52 50 51 50 51 51 52 52 55 54 54 54 54 53 52 52 52 52 54 54 54 54 49 49 53 52 52 52 52 52 53 52 52 52 47
61 59 56 55 54 53 53 53 52 50 51 51 52 52 54 55 54 53 52 52 51 50 49 50 50 51 51 51 53 51 49 51 50 48 50 50 49 49 51 51 51 49
61 60 58 56 54 55 55 55 54 52 51 50 53 53 54 55 54 52 52 52 51 52 52 51 51 50 50 51 51 50 49 50 50 48 48 48 49 49 51 49 50 50
61 60 58 57 55 56 56 56 54 53 54 52 52 52 54 54 54 54 53 52 52 53 53 52 51 49 47 49 50 48 49 48 48 49 48 48 49 48 50 50 50 49
61 59 59 58 55 55 56 56 56 57 57 55 54 53 52 54 54 52 53 53 53 52 53 52 52 51 51 49 48 49 49 48 51 49 46 48 49 50 50 49 49 49
60 58 58 56 55 56 54 56 54 52 54 56 55 51 52 52 50 50 51 52 51 51 52 52 51 52 51 51 50 49 48 46 48 48 45 46 46 48 44 48 48 47
60 59 59 57 55 56 54 54 52 53 53 55 54 53 53 51 50 49 48 50 50 49 50 52 51 52 53 52 51 50 49 47 47 45 43 44 45 45 44 46 42 42
60 60 60 58 58 57 57 55 53 54 56 56 56 56 53 50 49 51 50 49 48 48 50 50 51 51 52 52 51 52 53 52 50 47 45 46 48 44 45 44 47 43
60 59 59 60 60 58 56 53 52 54 55 56 55 54 54 51 51 52 50 49 48 49 48 49 49 49 52 52 52 52 51 53 53 52 51 50 49 47 42 45 47 47
59 58 59 60 60 57 56 56 55 53 52 55 55 54 52 53 52 51 51 51 51 50 50 50 51 52 52 51 51 51 50 51 51 52 52 51 51 48 44 46 47 48
58 58 58 59 59 58 58 56 58 54 51 50 55 56 54 54 54 52 52 51 53 51 51 52 52 52 52 53 55 54 53 52 52 51 53 52 52 52 52 51 50 49
58 58 58 58 58 59 58 58 58 57 55 53 52 53 54 55 55 54 53 52 52 51 51 51 51 52 53 53 53 55 55 55 55 54 54 53 53 52 51 52 53 51
57 57 57 57 58 58 58 56 57 58 56 53 53 53 54 55 55 54 56 54 53 53 53 53 53 54 54 54 54 54 55 55 57 55 54 55 55 54 53 53 53 52
59 58 58 57 56 56 56 56 56 56 56 54 54 53 54 53 53 54 56 55 55 55 54 55 56 55 54 53 53 54 55 55 55 56 55 54 56 54 55 54 54 53
58 58 58 57 56 56 56 57 58 56 56 55 56 56 56 53 54 54 55 55 55 56 56 57 57 56 55 55 55 55 55 56 57 56 56 56 56 56 56 56 55 55
57 57 56 56 56 55 55 55 55 58 59 58 58 57 57 55 55 55 55 55 54 54 56 58 57 57 57 52 52 55 56 55 57 56 55 56 56 56 56 55 55 55
55 56 56 56 55 56 56 55 55 56 58 57 57 56 57 56 56 55 55 55 54 54 56 58 58 56 47 47 47 47 55 58 57 57 57 57 57 57 56 56 56 54
53 53 54 54 56 55 55 55 55 55 56 57 57 57 58 58 58 57 57 58 58 56 57 58 58 46 42 42 42 43 46 58 58 57 58 58 57 57 56 55 55 56
54 54 54 55 55 54 55 56 55 55 56 57 57 57 58 57 56 58 57 57 57 56 56 58 58 40 42 41 42 40 41 47 56 57 56 56 56 55 55 54 55 55
48 49 51 53 54 55 55 54 56 56 57 58 57 56 57 57 58 57 57 56 57 56 56 57 56 42 40 40 40 39 39 43 56 55 53 51 52 52 53 52 52 52
38 40 44 46 51 54 55 54 55 56 56 57 56 56 55 56 55 55 56 56 56 56 56 57 56 39 39 39 39 39 38 42 55 53 50 50 51 53 53 54 54 54
37 39 41 42 44 47 50 51 53 53 54 54 54 54 54 54 55 55 55 56 56 56 57 56 54 38 38 38 38 38 39 56 52 50 48 48 49 52 51 52 53 54
37 37 38 40 41 42 42 45 48 50 51 51 51 51 52 52 52 53 53 54 54 55 54 54 55 42 36 37 38 38 44 52 50 47 49 49 50 51 50 51 52 51
40 38 38 38 38 38 38 43 47 49 49 48 48 48 47 48 48 47 47 47 47 48 48 48 53 43 35 38 38 39 46 52 47 47 49 49 49 50 49 47 45 44
40 41 41 40 40 41 44 44 46 47 47 48 45 45 46 44 41 41 42 43 45 47 47 49 50 45 37 37 38 39 46 54 47 46 49 48 48 47 48 46 44 42
38 39 41 41 41 42 44 44 44 44 46 44 43 39 37 36 36 38 40 41 46 45 48 48 48 51 46 37 38 39 38 52 47 46 48 48 47 45 45 45 44 42

ECMWFNIL_sfc_dewp_039.txt.gz
Dewpoint
58 57 55 53 52 53 53 52 52 53 53 53 52 53 51 52 51 52 51 51 50 51 50 52 53 53 52 53 51 47 49 51 50 50 49 49 50 51 50 50 51 46
58 57 54 54 52 52 52 53 53 53 53 53 53 52 52 51 50 49 48 49 48 48 49 50 51 50 50 50 51 50 48 50 48 46 50 49 48 49 51 51 50 47
58 58 55 54 52 53 53 54 54 53 52 52 54 53 51 51 50 50 50 49 48 48 50 49 49 49 49 49 49 49 48 47 47 47 48 46 49 49 49 50 49 50
59 58 55 53 53 53 54 52 52 52 53 53 52 52 51 51 51 51 51 50 50 49 50 49 49 48 47 48 49 46 47 46 46 48 48 49 48 48 50 50 50 48
59 58 56 52 53 53 54 53 52 51 52 52 53 52 51 51 51 49 51 51 51 50 50 49 49 49 48 48 47 46 47 47 48 48 47 47 49 49 48 49 49 49
59 56 56 52 52 53 53 52 52 52 51 52 52 50 51 51 49 49 50 51 50 50 50 50 49 49 49 48 49 48 47 46 47 46 44 45 45 46 42 46 46 45
59 58 58 54 51 52 53 54 54 55 54 53 50 50 51 50 48 48 48 49 48 48 48 51 51 51 51 50 49 49 47 47 46 43 41 42 41 44 42 44 42 42
60 59 58 56 53 51 53 53 49 51 55 54 53 50 49 47 46 48 48 49 47 47 47 47 49 49 50 51 48 49 50 49 48 45 45 45 47 43 43 44 47 44
60 58 58 57 55 51 51 50 50 50 52 55 54 50 48 47 46 48 47 46 46 47 47 47 48 49 52 51 51 50 48 51 50 49 48 48 47 44 42 45 46 46
60 59 59 58 56 54 54 51 51 53 52 54 53 52 49 49 48 46 46 46 47 46 46 48 48 50 50 50 49 50 50 50 51 52 50 50 48 44 43 44 47 48
58 58 58 59 59 56 55 53 51 52 52 48 51 50 50 50 50 46 46 45 48 45 46 47 48 49 50 50 52 52 51 52 51 50 51 51 51 51 53 50 49 49
59 59 58 57 58 57 55 55 52 50 50 50 50 49 49 50 50 48 46 45 46 45 45 46 47 49 50 51 52 53 53 53 53 53 53 51 52 52 51 52 53 51
58 58 59 59 58 58 58 55 54 52 48 46 49 50 50 50 49 48 49 46 46 46 45 48 48 49 51 52 54 53 53 53 54 55 54 54 53 52 52 52 52 52
58 58 58 62 59 58 57 57 56 54 52 51 48 49 50 49 48 47 48 46 49 49 50 50 50 50 52 53 53 54 55 55 56 56 54 53 54 53 55 54 53 53
58 59 58 58 57 58 57 55 56 57 57 55 53 53 52 49 48 49 51 51 50 52 52 54 54 55 54 54 54 53 54 54 54 54 55 55 55 56 56 55 55 55
56 57 57 58 57 57 58 57 57 57 56 56 57 57 57 58 52 50 49 54 51 52 53 55 57 57 60 52 52 56 55 54 56 57 56 57 58 56 58 57 55 55
56 56 56 55 56 56 57 57 57 57 58 58 58 58 58 58 60 55 52 58 58 54 55 57 58 57 47 48 49 49 55 57 56 57 56 57 57 57 57 58 56 54
53 54 54 55 56 55 54 54 55 56 57 57 58 58 58 58 57 56 56 56 57 57 59 59 58 49 44 47 47 46 47 56 57 59 58 57 57 56 57 55 55 53
53 53 53 54 54 54 54 55 55 55 55 56 57 58 58 57 56 57 58 58 58 56 57 57 57 46 42 43 43 43 42 47 57 54 57 56 56 57 56 57 54 54
48 50 52 53 54 54 54 54 55 56 57 56 58 58 57 58 59 58 57 57 57 57 57 57 57 42 41 41 43 41 41 43 57 57 57 56 56 56 54 53 54 54
39 40 43 45 48 51 53 55 55 57 57 57 57 57 56 56 57 57 58 57 57 57 56 55 58 39 40 40 41 40 41 40 57 58 57 55 52 52 51 51 50 50
38 39 41 40 41 43 45 47 51 54 56 57 55 55 55 56 56 56 56 56 56 56 55 57 55 39 39 39 39 40 39 51 57 56 53 48 49 48 47 48 49 49
40 39 40 40 40 41 40 42 45 48 49 50 51 51 51 52 52 52 52 53 53 55 55 56 57 42 39 39 39 39 41 55 54 46 45 47 48 46 49 52 52 52
40 39 40 41 41 40 40 41 42 45 46 48 48 48 49 50 51 50 51 52 52 53 54 56 57 47 38 39 39 39 45 56 48 45 46 47 47 47 49 47 47 45
38 40 40 41 41 41 44 44 43 44 44 47 46 46 47 48 48 49 49 50 51 51 53 53 55 47 38 38 39 40 43 55 50 43 48 48 47 47 48 47 47 43
37 38 40 41 41 43 44 44 44 43 45 46 45 43 43 44 42 41 44 44 47 49 51 50 53 53 44 37 39 40 40 54 48 44 47 48 48 46 46 46 45 42

ECMWFNIL_sfc_dewp_042.txt.gz
Dewpoint
60 60 61 60 61 61 61 61 61 59 61 60 58 57 58 59 57 58 58 58 58 57 58 59 58 58 56 55 54 50 51 54 54 53 52 54 55 54 54 53 53 55
59 61 58 60 61 59 62 62 60 61 61 60 59 58 58 59 58 57 56 55 56 57 58 58 58 57 55 55 56 55 55 55 53 52 55 54 54 55 55 55 55 54
61 60 58 59 59 59 61 62 62 62 60 60 59 57 56 58 57 58 58 56 55 56 56 55 55 56 56 56 55 54 52 52 52 54 54 53 55 54 55 55 54 52
61 60 58 59 58 59 59 61 61 61 61 58 58 57 56 56 59 58 56 56 57 56 57 57 58 56 53 54 55 55 54 53 53 55 55 55 53 53 55 55 53 51
61 60 58 58 58 58 58 58 59 60 60 59 58 57 56 57 57 56 56 56 57 56 56 56 56 56 55 53 53 54 56 55 55 53 52 52 52 52 53 52 51 52
60 59 56 56 57 58 57 56 56 57 58 58 58 57 56 57 56 55 57 55 55 54 55 56 56 56 55 56 56 55 53 53 53 54 52 52 53 53 48 53 51 49
60 61 59 56 57 57 57 56 57 56 57 58 56 58 56 57 55 54 52 55 53 52 52 56 56 56 57 56 56 55 55 54 52 49 44 48 50 51 47 50 49 48
60 60 60 57 57 58 57 58 58 58 59 56 57 58 55 53 52 56 55 54 51 51 53 52 54 55 56 56 54 55 54 56 54 52 51 52 53 46 50 53 52 47
60 59 60 57 57 56 58 55 58 59 57 57 57 58 56 55 54 56 54 53 54 54 51 53 53 55 57 56 55 55 53 54 56 54 54 52 52 50 46 51 52 52
58 59 60 59 55 56 58 55 56 57 58 57 56 54 52 57 56 52 54 55 54 52 53 54 53 57 57 54 53 54 55 54 54 55 54 54 53 50 47 50 53 52
60 60 60 60 57 56 58 55 55 56 57 56 60 56 53 56 54 53 54 53 55 51 51 53 53 54 55 56 57 57 56 56 55 54 55 54 55 55 56 54 53 53
60 60 61 61 61 60 59 57 58 58 56 58 55 53 57 57 54 53 52 51 50 50 51 50 51 54 54 55 55 57 57 57 56 56 56 54 55 55 54 55 54 55
59 60 60 60 61 60 58 60 57 56 56 53 55 54 55 57 56 55 56 53 48 51 51 50 52 52 56 57 57 57 57 56 57 58 57 57 56 55 55 56 55 55
60 61 60 61 61 60 59 59 59 58 54 53 55 57 55 52 53 54 56 52 54 52 51 53 54 55 55 57 57 58 58 57 57 58 57 57 57 56 56 55 55 55
59 60 60 60 59 58 58 58 58 59 60 59 58 58 60 58 58 55 53 50 51 55 55 55 58 57 57 55 55 56 55 55 57 56 57 56 55 56 57 57 58 57
59 60 59 59 59 58 58 58 58 60 61 60 58 59 59 59 58 58 57 56 55 55 57 58 58 58 56 51 49 56 56 55 56 58 58 57 57 56 56 57 56 57
59 59 59 58 58 58 59 58 58 58 58 59 60 60 59 59 59 58 60 59 58 58 58 58 58 57 50 47 47 47 55 58 59 57 57 57 57 57 55 56 57 57
58 58 58 57 58 56 57 57 58 58 58 58 59 60 60 60 59 58 58 59 59 58 59 58 58 54 49 47 46 45 46 54 57 57 58 58 57 58 57 56 57 57
53 53 54 55 55 56 58 58 57 57 57 58 59 59 60 59 59 59 58 59 59 59 58 58 57 51 45 43 44 43 43 50 55 58 57 57 56 56 57 57 58 58
51 52 53 54 57 56 56 56 56 57 59 59 58 58 58 58 58 58 58 58 58 58 58 57 58 51 43 43 42 42 42 49 55 58 57 57 56 57 58 57 58 57
41 41 43 48 54 54 56 57 56 58 57 58 58 58 57 57 58 58 58 58 58 57 57 58 58 48 42 42 41 42 39 44 57 58 58 57 57 57 56 54 56 56
43 47 51 52 51 52 52 53 55 57 57 58 58 57 57 58 58 57 56 56 56 57 58 57 53 40 41 41 42 40 40 52 56 57 57 56 56 56 56 55 54 55
42 43 45 45 46 49 50 51 52 53 55 55 55 55 55 56 56 56 56 56 56 56 57 56 54 44 41 41 41 39 44 54 56 56 56 55 55 54 53 51 50 52
39 39 41 44 44 44 46 49 50 52 53 56 54 54 53 53 53 54 55 55 55 55 55 55 56 48 40 40 40 40 47 55 55 56 56 52 51 51 49 47 46 46
38 39 41 43 43 46 48 47 49 49 49 51 53 53 53 53 51 51 52 53 54 55 54 55 56 50 40 40 40 39 44 53 55 54 49 48 49 49 49 46 42 41
37 40 42 43 42 45 47 47 47 47 48 50 52 51 49 48 49 49 50 51 52 53 56 55 56 53 44 40 40 40 42 52 54 52 49 48 47 47 47 46 42 40

ECMWFNIL_sfc_dewp_045.txt.gz
Dewpoint
56 56 55 55 55 55 56 54 57 56 56 54 53 53 54 54 53 53 54 54 54 53 53 53 53 52 51 50 50 50 51 51 50 51 51 52 52 51 52 49 48 48
57 57 56 57 56 56 56 55 54 56 54 52 53 53 53 53 54 51 50 51 52 53 54 54 53 51 51 51 52 51 51 50 51 55 51 51 51 51 50 50 50 50
57 56 56 56 55 55 56 54 56 56 54 53 52 52 53 51 50 51 53 52 52 51 50 50 50 50 50 50 49 49 49 50 50 51 52 50 51 50 50 48 48 49
57 56 56 56 55 55 55 56 57 56 54 52 51 52 51 52 53 53 53 56 51 49 50 51 52 51 50 50 49 49 49 50 51 51 50 50 51 51 51 52 51 51
57 55 57 56 56 55 55 55 55 53 52 52 52 51 52 53 53 51 51 51 52 52 52 52 52 51 51 51 51 50 51 52 52 51 50 50 50 49 49 49 48 48
57 55 57 55 55 54 54 54 55 54 53 52 51 52 52 53 51 51 52 52 52 51 51 51 51 49 48 49 51 50 49 48 49 51 50 49 49 49 49 48 49 49
58 55 55 55 54 54 53 54 55 54 53 52 53 52 52 52 52 53 52 52 51 52 51 52 51 50 51 52 52 49 49 49 49 44 45 47 47 47 49 49 47 46
58 56 55 55 54 54 54 54 54 54 54 52 52 52 51 52 52 52 52 52 50 51 52 53 52 52 52 50 51 51 50 52 48 46 49 46 45 46 48 48 47 47
58 57 56 55 54 55 55 55 55 54 52 51 54 52 51 52 52 52 52 51 51 52 51 52 52 52 52 50 50 50 51 50 49 48 47 46 45 46 46 47 48 49
58 58 56 54 54 55 55 55 55 54 53 52 54 52 51 53 52 52 52 51 51 51 51 51 52 53 52 50 50 51 51 52 51 49 49 49 48 47 48 49 47 47
58 59 57 54 54 54 53 54 54 54 54 51 54 51 50 54 51 51 51 51 51 50 50 51 52 53 52 50 51 52 52 51 51 50 52 52 52 52 54 50 49 46
57 57 57 57 56 54 52 52 53 53 54 54 56 49 50 53 49 50 50 51 51 50 50 51 51 51 52 52 53 53 53 52 52 52 52 53 53 52 53 53 53 52
57 57 57 57 57 58 55 54 53 54 53 54 55 52 52 53 49 49 51 50 50 50 50 51 50 50 51 52 53 53 54 53 54 53 54 54 53 53 53 53 53 54
56 57 57 57 57 57 57 56 56 57 54 52 54 52 53 53 50 49 52 51 49 48 50 50 51 52 54 55 54 55 55 54 55 55 53 54 55 55 56 55 54 54
57 58 57 56 56 57 56 56 56 56 56 56 57 56 57 57 56 56 55 51 51 55 55 54 54 54 54 54 54 55 54 55 55 55 54 54 54 54 54 55 54 54
57 57 58 57 57 56 56 56 56 57 56 56 57 57 56 57 57 57 57 57 56 54 54 55 55 55 54 51 52 54 55 55 56 54 54 54 54 53 53 54 54 54
57 58 58 58 57 57 57 57 56 56 56 56 56 56 55 55 55 56 56 56 55 54 54 54 55 55 47 43 44 49 56 56 55 54 54 54 54 53 53 53 54 54
57 57 57 58 58 58 57 57 57 56 56 56 56 56 56 55 54 54 55 54 55 55 54 54 54 53 46 44 43 45 51 55 55 55 55 54 54 54 54 54 54 53
57 57 57 57 57 57 57 57 56 56 55 56 56 56 56 55 54 54 53 54 55 54 54 54 54 51 45 44 42 41 44 53 55 55 55 54 54 54 54 54 54 53
54 54 55 55 56 56 56 56 55 55 55 55 55 54 54 54 54 53 53 54 54 55 54 54 55 52 45 42 41 40 42 48 55 55 54 54 54 54 54 54 54 54
43 45 49 50 54 54 55 54 54 54 54 53 53 53 53 52 52 52 52 53 53 54 54 54 55 51 45 42 41 40 40 44 54 55 54 54 54 54 54 54 54 55
39 41 42 43 44 45 47 52 53 54 54 54 53 53 52 52 52 52 51 52 52 52 52 53 54 46 41 41 41 40 40 49 53 54 54 54 53 53 53 52 53 53
36 40 42 42 44 44 44 45 47 51 53 54 53 53 52 52 53 53 52 51 50 51 51 51 54 47 39 40 40 39 44 51 52 53 54 53 53 52 51 50 50 52
35 39 40 41 41 43 44 44 44 44 47 52 52 52 53 53 54 53 53 52 51 52 53 52 53 49 40 40 40 40 46 52 52 53 52 53 51 49 46 44 45 49
37 38 39 39 39 41 42 41 42 42 43 45 45 47 51 53 53 53 53 53 52 52 53 53 53 51 42 41 40 40 45 51 52 53 53 50 47 45 43 42 41 43
38 39 39 39 38 38 38 39 40 40 41 42 44 45 44 45 48 52 53 53 53 52 52 52 52 51 45 40 41 40 42 50 53 52 51 48 46 44 42 40 40 40

ECMWFNIL_sfc_dewp_048.txt.gz
Dewpoint
54 53 53 53 54 54 54 56 55 53 53 53 53 53 52 52 53 54 53 52 51 51 51 51 51 51 51 50 51 50 51 51 52 51 51 51 50 49 49 47 48 48
54 54 54 54 54 55 55 56 55 54 53 53 53 53 52 53 53 52 52 52 52 52 51 51 50 50 51 51 50 50 49 50 50 52 49 49 49 48 48 49 48 48
54 54 54 54 54 54 55 56 55 54 53 53 53 52 52 52 50 51 51 52 52 51 50 49 49 49 49 49 49 49 49 49 49 50 49 48 48 48 48 49 49 48
55 55 54 55 55 55 55 55 54 53 53 52 51 51 51 51 51 51 52 54 50 49 49 49 49 48 48 48 49 49 49 49 49 49 49 49 50 50 49 49 49 49
55 55 55 55 55 56 56 54 53 52 51 51 51 50 51 52 51 51 50 49 49 50 50 50 49 48 49 48 48 48 49 49 49 49 48 48 47 48 48 48 48 48
55 56 55 55 55 55 54 53 51 51 51 50 50 51 51 51 50 50 50 50 50 51 50 49 49 49 49 49 49 49 49 49 48 48 48 48 47 48 48 48 47 47
55 55 54 54 54 54 54 52 51 51 50 49 51 51 51 49 49 50 51 51 50 50 49 49 48 48 48 49 48 48 47 48 48 48 48 47 48 47 48 47 47 47
55 55 54 53 54 54 53 53 52 51 51 51 50 51 50 49 49 51 51 51 50 50 50 49 48 48 50 49 48 48 47 49 46 46 47 46 46 46 46 48 47 46
56 55 54 53 54 54 53 53 52 51 52 50 50 51 51 50 51 51 51 50 50 51 52 50 50 50 50 49 48 49 49 47 47 47 46 46 46 46 46 47 47 47
56 57 54 53 54 54 53 53 53 52 52 51 50 50 51 51 51 51 51 50 50 51 51 51 51 50 49 49 49 49 48 47 48 46 46 46 46 46 47 47 47 45
57 57 57 56 54 54 54 54 52 52 52 51 51 50 51 52 52 51 51 50 51 50 50 50 52 51 48 48 50 50 49 49 48 47 48 47 47 47 51 47 47 45
57 56 56 57 57 54 54 53 53 52 52 53 51 50 51 52 51 51 51 50 50 50 50 50 52 50 48 48 50 50 49 49 49 50 50 50 49 50 50 49 47 46
56 56 56 56 56 56 55 54 53 53 52 53 53 50 50 52 50 50 51 50 50 50 50 51 51 51 49 49 50 51 51 50 50 51 52 52 52 51 51 51 51 50
56 57 56 56 56 56 55 55 55 54 54 53 54 52 51 52 50 49 50 50 50 50 50 51 50 51 50 50 51 52 51 51 52 53 53 52 52 52 52 51 52 51
55 56 55 55 55 55 54 54 55 55 55 55 54 54 54 53 50 49 51 50 50 50 50 51 51 51 52 52 52 53 53 53 53 53 53 53 52 52 53 52 52 52
56 56 56 55 55 55 54 54 54 54 55 55 55 55 54 54 54 54 53 52 53 52 52 52 52 52 53 51 51 54 54 54 54 54 53 53 53 52 52 53 52 52
56 56 56 55 55 55 55 55 55 55 54 55 55 54 54 53 54 53 53 53 53 53 52 52 53 53 47 47 48 50 54 54 54 53 53 53 53 52 52 53 51 52
55 55 55 55 55 55 55 54 54 55 55 54 54 54 54 52 53 53 53 52 52 52 52 52 52 51 42 45 46 48 50 54 53 53 53 53 53 52 52 52 53 53
55 55 54 54 54 54 54 54 54 53 53 53 54 54 53 52 52 52 52 53 53 52 52 52 52 46 42 43 45 45 47 51 54 54 53 53 53 53 52 52 52 52
53 53 53 54 54 54 53 53 53 53 52 52 54 54 53 52 52 51 52 52 52 52 52 52 52 47 41 43 42 42 43 49 54 53 53 53 53 53 53 53 53 53
42 44 48 51 52 52 52 51 52 52 52 52 52 53 53 52 52 51 52 51 51 52 52 52 52 45 41 41 41 41 41 46 52 52 52 52 53 53 53 53 53 53
40 41 43 45 44 44 45 47 50 51 52 53 52 52 51 50 50 49 49 50 51 51 51 52 52 45 41 40 41 41 41 48 51 52 52 52 52 52 52 53 53 53
39 40 41 39 39 39 39 41 42 45 46 50 51 51 50 50 51 51 50 49 49 50 51 52 51 46 41 40 40 40 41 49 50 51 52 51 52 52 53 52 52 53
38 37 38 38 37 38 38 38 39 39 40 44 45 45 46 46 48 49 50 50 50 50 52 51 51 49 41 41 40 39 45 50 50 51 52 52 51 51 51 50 50 52
37 37 37 37 37 37 38 38 38 39 39 40 41 42 43 44 44 46 48 48 49 49 52 51 51 50 43 40 40 39 44 50 50 51 51 51 50 48 43 42 42 46
37 37 38 38 37 37 37 38 38 37 37 38 38 39 39 40 41 42 43 45 47 49 49 51 51 51 48 41 40 40 42 50 51 51 50 49 48 48 44 41 40 40

ECMWFNIL_sfc_dewp_051.txt.gz
Dewpoint
53 53 53 54 54 55 55 54 53 52 52 53 53 52 53 53 53 52 51 52 52 52 51 51 51 51 51 50 50 51 51 51 51 50 49 49 48 48 49 48 49 51
53 54 55 54 54 55 55 54 53 53 53 53 53 52 51 53 52 52 52 52 51 51 50 50 50 50 49 49 49 50 49 49 49 51 49 48 48 48 48 48 48 48
54 54 54 54 54 55 55 54 53 53 53 53 52 52 52 51 51 50 51 51 50 50 49 49 49 49 49 49 49 49 49 48 48 48 48 47 47 47 47 48 47 47
54 54 54 54 55 55 55 54 53 53 53 52 51 52 52 51 51 51 53 53 49 48 48 48 48 48 48 48 48 48 48 48 48 48 49 48 49 48 47 48 49 48
54 54 55 55 55 55 55 53 53 53 52 51 51 51 52 50 50 50 49 48 48 48 48 47 47 47 48 47 47 48 48 47 47 47 47 47 47 48 48 47 47 46
55 55 55 55 55 55 54 53 53 52 51 50 50 51 50 50 50 49 49 48 48 49 48 47 47 47 47 47 47 48 48 48 46 46 47 46 46 47 47 47 46 46
56 55 55 55 55 55 54 53 52 51 51 50 51 50 50 49 49 49 50 50 50 50 48 47 47 46 47 47 48 47 46 47 46 47 47 46 47 46 47 47 47 47
57 56 55 54 54 54 53 52 51 51 50 50 49 50 49 49 49 49 50 50 50 49 48 48 47 47 48 47 47 46 46 48 46 46 46 45 45 45 45 47 46 46
56 55 54 54 55 54 53 51 51 50 51 50 50 50 49 49 49 50 50 50 50 50 49 48 48 48 49 48 47 47 47 45 47 46 46 45 45 45 46 46 45 46
56 55 55 55 55 55 52 51 51 51 51 50 50 50 49 49 50 50 50 49 50 50 49 49 49 49 49 48 48 48 47 46 46 45 45 45 46 46 46 46 45 45
56 56 55 54 54 54 53 52 51 51 51 50 50 50 49 50 49 49 49 49 50 50 49 49 49 49 48 48 48 48 47 46 46 45 45 45 46 47 52 46 46 44
56 55 55 55 54 54 53 52 51 51 51 51 50 49 49 50 50 49 49 49 49 49 49 49 50 49 48 48 49 48 47 47 47 46 47 46 46 47 49 47 46 45
56 56 55 55 55 55 54 53 52 51 51 50 51 50 50 50 50 50 50 49 49 49 49 49 50 50 48 48 49 49 48 47 47 48 49 48 47 48 48 48 47 47
56 56 57 56 55 55 54 54 53 52 51 51 51 50 50 51 50 50 50 50 49 50 50 49 49 49 48 48 49 49 49 48 48 49 50 50 50 50 50 49 50 49
56 56 56 56 55 55 54 54 54 54 54 53 52 50 51 51 51 50 50 49 49 50 50 50 50 50 50 49 49 49 49 49 50 51 50 51 50 51 51 51 50 50
55 55 55 55 55 54 54 54 54 55 55 54 53 52 51 51 51 50 50 50 50 50 50 50 50 51 51 49 49 50 51 51 52 52 52 51 52 51 51 51 51 50
55 55 55 55 54 54 54 55 55 55 54 54 52 51 51 52 51 51 50 50 50 50 50 51 51 51 48 46 45 46 51 52 52 52 52 52 52 52 52 52 51 51
56 56 55 55 54 54 52 53 53 54 54 54 53 52 51 50 51 50 51 50 50 50 50 51 51 50 45 45 44 44 48 52 52 52 52 52 52 52 52 52 52 52
54 54 53 53 53 53 53 53 53 53 53 53 53 52 51 51 50 50 50 51 50 50 50 50 50 48 44 43 44 44 45 50 53 52 52 52 52 52 51 52 51 52
45 46 47 49 51 51 52 52 51 51 51 50 50 51 51 50 49 50 50 50 51 51 50 50 50 48 42 42 43 43 43 47 52 52 52 52 52 52 52 51 51 51
39 40 40 40 40 41 42 44 47 49 51 50 49 49 49 49 49 49 49 48 49 50 51 50 52 48 42 41 41 40 40 41 50 51 50 51 51 51 52 52 52 52
38 38 38 38 38 38 38 39 41 42 44 47 47 48 48 48 48 48 47 49 50 49 49 51 51 44 41 41 41 40 40 46 50 51 51 51 51 51 51 52 51 51
37 37 38 37 38 37 37 37 38 38 40 43 42 43 44 45 46 46 47 48 48 49 49 50 50 46 41 41 41 40 41 47 49 50 50 51 51 51 51 51 51 51
37 37 37 37 36 37 37 37 37 37 38 39 39 39 39 41 43 43 44 47 47 48 48 48 50 48 44 42 41 40 43 49 49 50 50 50 50 50 50 50 50 51
39 38 37 36 36 37 37 36 37 37 37 37 37 37 38 38 39 39 40 41 43 45 49 48 48 48 46 42 41 41 42 47 49 49 50 49 50 50 49 48 48 49
37 38 37 36 36 36 36 37 37 36 36 36 36 36 36 37 37 38 38 38 40 41 42 43 45 46 46 43 42 41 40 45 50 49 49 50 49 50 50 49 47 46

ECMWFNIL_sfc_dewp_054.txt.gz
Dewpoint
55 55 55 55 55 54 54 53 53 53 53 53 53 52 52 52 54 53 53 53 53 53 53 53 53 52 52 52 53 52 52 52 52 51 51 52 50 51 52 52 54 56
55 55 55 55 55 55 54 54 53 53 53 53 53 53 53 53 52 53 53 53 53 51 51 51 51 51 51 51 51 51 51 51 51 52 50 50 50 50 50 51 52 54
54 55 55 54 55 55 54 54 54 53 53 53 53 53 53 53 51 52 52 52 51 50 50 50 50 51 50 50 50 50 49 49 49 49 50 48 49 49 49 49 50 53
54 54 54 55 55 55 54 53 53 53 53 52 52 53 53 52 51 52 53 54 50 49 49 49 50 49 49 49 50 49 49 49 49 50 50 49 51 49 50 50 50 49
54 54 55 55 55 55 54 53 53 53 53 52 52 52 53 51 51 51 50 49 49 49 49 49 48 49 49 49 49 50 50 49 49 49 48 48 49 50 50 49 48 48
55 54 55 55 55 55 54 53 53 53 52 51 52 52 51 51 50 49 49 49 49 49 48 48 48 48 49 49 49 49 49 48 48 48 47 47 47 48 47 48 48 47
54 55 55 55 55 54 53 53 53 53 52 52 52 51 50 50 50 49 49 49 49 50 48 48 48 48 49 49 49 48 49 48 48 48 47 47 48 48 48 48 48 48
55 55 55 55 55 54 53 53 53 53 52 51 50 51 50 50 49 50 50 50 49 48 48 48 48 48 48 49 48 48 48 48 48 47 47 46 47 47 48 48 48 48
55 55 55 55 54 54 53 52 52 52 52 50 50 50 50 49 50 50 50 50 49 49 48 48 48 49 49 48 48 48 47 47 48 47 47 47 47 47 46 47 48 49
55 55 55 55 54 54 53 52 52 52 52 51 50 50 49 50 50 50 50 50 50 49 48 48 49 50 49 49 48 48 48 47 47 47 47 47 47 47 46 47 47 48
55 55 55 55 54 54 52 52 51 51 51 50 51 50 49 49 51 50 49 49 50 49 49 48 49 49 49 49 49 49 48 48 47 47 47 47 47 47 52 47 48 48
55 55 55 54 54 53 52 52 51 51 51 51 51 50 49 50 50 50 50 49 49 50 49 49 49 49 49 49 49 49 48 48 48 47 47 47 47 48 51 48 48 48
55 55 55 54 54 54 53 52 52 51 51 51 52 50 50 50 50 50 51 49 49 50 50 50 50 49 49 49 49 49 49 48 48 48 49 49 48 48 49 49 48 48
55 55 55 55 55 55 55 54 53 52 52 52 51 51 50 50 50 50 50 50 50 50 50 51 50 50 48 48 49 50 49 48 48 50 51 51 51 50 51 51 50 49
55 55 55 55 55 55 54 54 54 54 54 53 52 51 52 51 51 50 50 50 50 50 51 51 50 50 50 49 49 50 49 49 50 50 51 51 51 51 52 52 52 51
54 54 55 55 55 54 54 53 54 54 53 53 53 52 51 51 51 51 50 50 50 50 50 51 51 51 52 49 48 50 50 49 50 51 51 51 52 52 51 52 52 52
54 54 54 54 54 54 55 55 55 54 54 53 53 52 52 52 52 51 50 50 50 50 50 50 51 51 47 45 44 46 50 51 51 52 52 52 52 52 52 52 52 52
55 54 54 54 53 53 54 54 54 54 54 53 53 52 52 51 51 51 51 50 50 50 50 50 50 49 46 45 44 43 47 51 52 52 52 52 52 52 52 52 53 52
53 53 53 53 53 53 53 53 53 53 52 52 52 52 52 52 51 51 51 50 51 51 51 51 51 48 45 45 44 43 42 47 52 52 52 52 52 52 53 53 53 52
42 42 43 44 46 48 49 50 50 50 50 50 51 51 51 51 51 51 50 50 51 51 51 50 51 46 41 40 41 41 41 44 51 52 52 52 52 52 53 53 53 53
41 39 38 39 40 42 43 42 43 45 46 47 48 49 49 48 49 49 49 49 49 49 50 51 51 42 41 40 39 39 39 41 50 51 52 52 53 52 52 53 53 53
39 40 37 37 37 37 38 39 39 41 42 44 44 44 45 45 45 45 46 48 49 49 49 50 51 43 42 42 41 40 40 46 49 51 51 52 52 52 52 53 53 52
38 38 40 39 39 38 38 39 39 39 40 42 41 40 41 43 43 43 44 45 45 46 47 47 48 44 41 41 41 41 43 48 49 50 51 51 52 52 53 53 52 52
39 38 37 38 37 37 39 40 41 41 41 41 40 39 38 39 41 41 41 42 42 43 44 44 44 43 40 40 41 41 43 48 49 50 50 50 51 51 51 51 51 51
38 38 39 38 38 38 37 38 39 38 37 38 39 40 39 39 41 39 38 39 40 41 42 42 43 43 40 39 40 40 43 47 48 49 50 51 51 51 50 49 50 50
38 38 38 36 36 36 36 36 37 36 36 36 37 37 37 37 38 37 36 37 38 38 39 40 42 42 41 39 39 40 41 46 48 49 50 51 51 50 50 50 50 49

ECMWFNIL_sfc_dewp_057.txt.gz
Dewpoint
62 62 61 61 60 61 61 60 60 61 60 60 58 59 59 61 61 62 62 62 63 62 61 61 60 61 60 60 61 59 60 61 61 61 62 62 62 63 62 62 63 62
62 62 61 61 60 60 60 61 61 60 60 61 60 59 60 60 61 61 61 61 60 60 59 59 58 58 58 57 59 59 58 60 58 56 60 60 60 61 62 63 63 62
61 61 61 60 60 60 60 61 61 61 60 60 60 60 60 60 60 61 61 61 59 58 58 58 58 58 57 57 57 57 57 57 57 56 57 56 58 59 59 60 61 62
60 60 60 61 60 60 60 59 60 60 60 58 59 59 59 59 60 60 60 59 59 58 58 57 58 57 55 56 56 55 55 55 55 56 55 55 56 56 58 59 60 60
60 59 60 60 60 60 59 59 59 59 59 59 59 58 57 58 59 58 59 58 58 57 56 56 56 57 56 55 55 55 55 53 55 55 54 54 55 55 56 58 60 60
59 58 58 59 59 59 59 59 58 58 58 59 59 57 58 58 58 57 57 57 56 55 55 55 54 55 55 55 55 55 54 52 54 55 51 52 52 53 52 57 59 59
59 59 60 59 59 59 59 60 59 58 58 59 57 57 57 57 56 56 55 55 54 53 53 54 54 55 56 55 54 54 55 54 53 51 48 51 52 53 52 55 56 57
59 59 59 59 60 59 59 58 58 58 58 57 58 57 56 55 55 56 55 54 52 52 53 52 53 53 54 54 52 54 55 55 54 50 49 50 54 50 53 54 57 55
58 58 59 60 59 59 59 57 58 58 57 58 57 56 56 55 55 55 54 53 52 52 51 52 52 53 55 54 53 52 51 53 55 53 51 51 51 51 47 51 53 55
58 59 59 59 59 59 59 59 58 57 56 57 56 55 54 56 56 54 53 53 52 51 51 51 52 53 53 51 50 50 50 50 51 52 52 52 50 48 47 50 52 52
59 59 59 59 59 59 59 58 58 57 56 55 56 55 55 55 55 55 54 52 53 49 50 50 51 51 51 52 54 54 52 52 51 50 52 51 52 52 54 52 51 52
59 59 59 59 59 59 58 58 57 56 56 56 54 54 55 55 54 54 53 51 50 49 49 49 50 51 49 49 51 53 54 54 53 52 51 50 51 51 51 52 53 51
58 59 59 59 59 58 57 55 55 55 54 53 54 54 54 53 54 53 54 52 51 52 51 50 50 51 52 53 52 52 53 52 54 54 53 54 52 50 51 52 52 51
58 59 58 58 57 56 55 55 54 54 54 54 53 54 54 52 51 52 54 52 54 53 53 54 54 53 52 52 52 53 54 54 54 54 53 54 55 52 53 52 53 53
58 58 58 57 56 56 56 56 56 56 55 54 53 54 55 53 54 53 52 52 52 54 53 55 55 55 54 54 53 53 54 54 54 51 53 52 54 53 54 54 53 54
58 58 57 57 56 56 56 57 57 58 58 57 56 55 55 54 53 54 53 53 52 52 54 56 56 57 54 49 49 53 54 51 55 55 54 53 54 54 56 55 54 56
57 57 57 57 56 55 56 57 57 57 58 59 57 56 57 55 55 54 54 54 53 54 54 56 57 55 46 45 45 46 53 56 54 56 56 55 55 55 53 56 57 56
57 56 56 56 56 56 57 57 58 58 58 58 58 56 55 56 55 55 55 55 55 54 55 56 56 43 40 43 44 43 45 55 55 55 57 56 56 56 55 56 57 58
52 52 53 54 55 55 55 56 55 55 55 56 55 56 56 55 55 56 56 56 57 55 56 57 54 41 40 40 40 42 41 46 53 55 55 55 56 56 56 57 57 58
47 45 46 46 46 47 48 48 49 50 51 52 53 53 52 54 55 54 55 55 56 57 57 54 49 42 40 40 39 38 38 45 54 56 56 55 55 55 57 57 58 57
41 42 43 44 43 42 43 43 44 45 46 48 49 49 49 49 50 51 51 52 53 54 54 51 45 39 39 40 39 39 39 43 56 57 57 57 57 57 57 57 57 57
42 41 40 41 43 42 41 42 43 44 44 46 47 47 47 47 46 47 47 47 49 51 51 49 45 38 39 39 39 40 41 53 55 57 57 57 57 57 57 57 57 57
40 40 41 42 40 40 41 42 42 42 42 43 43 43 45 45 44 43 43 44 45 45 47 47 44 40 38 39 39 39 46 53 54 55 56 57 58 58 57 57 57 57
38 38 38 39 38 38 40 42 43 44 44 46 45 44 46 45 44 43 42 42 43 43 43 45 44 41 38 38 39 39 43 51 51 53 55 55 56 57 57 57 56 53
38 38 37 37 38 39 40 39 40 40 40 41 42 42 42 43 41 41 41 41 43 43 43 44 44 42 38 38 39 39 44 50 50 51 53 53 53 54 56 56 56 53
38 39 39 38 37 38 38 38 38 38 39 39 40 40 40 42 43 40 42 40 40 42 43 43 45 44 40 37 38 38 39 48 49 50 50 50 51 51 52 54 55 55

ECMWFNIL_sfc_dewp_060.txt.gz
Dewpoint
65 62 61 60 59 59 60 59 58 59 59 57 56 57 57 60 60 61 61 60 60 60 60 61 61 61 61 62 62 57 58 63 63 63 63 63 62 63 62 62 62 61
61 62 62 61 59 60 60 60 60 58 58 58 58 57 59 60 61 60 60 60 59 58 58 60 60 59 59 58 61 59 58 61 61 60 63 64 62 63 63 63 64 63
60 61 62 61 60 61 61 60 60 59 58 58 59 59 59 61 61 60 60 59 58 57 58 59 59 58 57 58 59 57 58 59 59 59 58 59 61 62 62 63 63 63
61 61 62 62 61 61 61 60 59 59 59 59 59 58 58 60 60 60 60 58 58 57 57 57 58 57 55 56 57 56 56 55 55 57 57 57 58 59 61 62 62 61
62 63 63 62 60 60 60 60 59 59 59 59 60 59 57 59 60 59 59 58 57 55 55 55 57 58 57 56 55 56 54 52 56 55 54 56 57 59 60 61 61 62
62 62 62 62 61 61 60 58 58 58 59 60 60 58 58 58 57 57 58 57 56 54 54 53 55 56 55 55 55 54 52 51 52 52 49 51 53 56 55 60 61 60
61 62 62 60 61 60 59 59 58 59 59 60 58 58 58 57 57 57 56 56 54 53 51 52 54 56 55 54 53 53 51 51 50 49 48 48 51 55 54 57 55 55
62 62 62 60 61 60 59 58 58 58 60 59 59 58 57 56 55 56 56 55 53 51 50 48 51 54 54 53 51 52 52 50 49 47 48 49 50 51 54 55 56 53
62 62 61 62 62 60 59 57 58 59 58 58 57 56 56 56 55 55 54 53 52 51 47 47 50 52 54 52 51 50 48 50 50 48 50 50 49 49 49 53 54 55
62 61 62 62 61 59 58 58 58 58 57 57 55 55 54 55 54 52 53 53 51 49 47 46 48 52 52 50 49 49 48 47 47 49 48 49 48 46 45 49 52 53
62 62 62 61 61 59 58 58 58 58 58 55 55 54 54 54 53 52 52 51 52 47 47 46 46 47 50 51 52 51 49 48 47 47 49 49 50 49 52 49 50 51
61 62 62 62 61 59 60 59 59 58 57 57 54 53 53 52 52 51 50 48 47 46 46 45 45 46 47 49 49 51 50 50 50 50 48 47 48 47 47 50 50 49
59 60 61 61 60 60 60 58 57 58 57 55 55 53 52 52 50 50 50 47 47 47 46 46 46 47 48 49 48 48 49 49 51 51 50 50 48 47 47 48 48 48
59 60 59 61 61 60 58 58 58 57 57 56 55 53 51 49 48 49 51 49 49 47 47 48 48 48 48 48 47 49 50 50 50 51 49 50 51 49 50 50 50 49
58 60 59 58 58 58 58 57 57 57 56 56 55 55 53 49 49 49 48 49 49 51 49 49 49 49 49 50 49 48 49 50 50 47 49 48 49 49 49 50 50 52
57 58 57 57 57 57 57 57 56 56 56 54 53 53 53 53 52 51 47 49 49 50 51 53 53 58 51 47 47 52 49 46 51 51 49 48 49 49 50 50 50 52
56 57 57 57 57 56 56 56 56 58 57 56 56 55 56 54 54 52 53 49 49 49 51 56 57 50 40 40 43 45 55 53 50 50 50 49 49 50 50 51 51 49
57 57 57 57 57 55 54 55 55 57 58 59 58 58 58 58 57 56 56 56 55 54 58 56 51 43 39 39 40 41 44 57 53 52 52 51 51 51 51 51 52 52
54 54 57 57 57 58 58 58 58 57 58 59 58 58 58 58 57 58 58 58 57 54 52 50 48 41 39 40 39 38 40 46 52 54 53 52 52 52 51 51 52 55
54 53 53 54 54 55 56 56 56 55 56 57 56 56 56 55 55 56 56 57 54 50 48 47 46 41 39 39 39 39 38 41 55 55 55 53 53 54 55 55 55 56
50 50 50 50 51 52 51 51 52 51 52 51 51 51 51 52 52 52 54 55 53 49 47 46 44 39 39 39 39 39 39 39 59 59 57 56 56 56 57 57 57 57
47 48 49 47 47 47 48 49 48 47 47 47 48 48 48 47 48 48 50 51 51 49 46 43 43 37 38 39 39 39 39 57 59 59 58 57 58 58 58 57 57 58
43 44 44 45 46 46 44 45 46 47 47 46 46 45 46 46 46 46 45 46 47 47 45 43 42 39 38 38 39 38 47 56 57 56 57 58 58 59 58 58 59 58
40 40 40 43 42 42 42 43 44 45 47 49 47 47 45 45 45 44 45 45 45 46 46 43 42 40 37 37 37 37 42 53 51 53 55 56 57 58 57 56 57 57
39 40 38 38 39 41 42 42 42 43 43 44 44 45 45 45 44 43 43 44 45 46 46 47 44 41 37 37 37 37 43 51 48 48 50 53 52 51 54 54 56 55
39 39 39 38 38 39 40 40 40 41 41 41 41 39 41 43 43 43 42 42 43 44 44 46 46 42 39 37 37 36 37 46 47 48 48 49 51 50 50 50 52 54

ECMWFNIL_sfc_dewp_063.txt.gz
Dewpoint
65 66 64 63 61 60 59 58 58 58 59 58 57 58 57 59 59 60 59 60 60 60 60 60 60 60 59 60 60 56 61 63 63 63 63 62 62 63 62 62 63 60
64 64 63 63 62 60 60 60 59 58 59 59 57 57 58 59 60 59 60 59 59 59 59 60 60 60 59 59 59 58 61 63 63 60 63 63 63 63 62 62 63 63
65 64 64 64 62 61 61 61 60 59 58 57 59 58 58 60 60 60 60 59 57 58 58 58 59 58 57 58 59 58 58 58 58 60 61 61 62 63 63 62 61 63
64 64 63 64 63 60 60 60 59 59 58 58 58 58 58 60 61 59 59 57 57 57 57 58 58 57 55 56 58 56 57 57 57 58 59 60 61 61 62 62 61 60
64 64 64 64 63 59 60 59 58 58 58 58 59 59 59 59 59 58 57 57 57 55 56 57 57 57 56 56 56 56 56 55 56 56 56 57 58 60 61 62 61 60
64 63 63 63 61 59 58 57 57 58 57 59 59 57 57 58 57 57 56 57 55 53 53 55 56 56 55 55 56 55 54 53 54 54 53 55 56 58 58 60 61 60
63 62 63 62 59 57 58 57 58 58 57 58 58 58 57 57 57 56 55 56 53 51 50 54 55 55 55 55 54 52 52 52 50 49 50 52 54 55 55 59 59 58
62 63 63 61 59 58 58 56 57 57 59 58 58 58 57 55 56 56 55 54 52 49 50 51 54 53 53 53 51 52 53 51 50 48 49 51 54 52 54 53 57 58
64 63 62 60 59 58 57 56 57 58 58 58 57 57 57 56 56 56 55 54 51 50 48 50 53 52 53 53 53 52 49 50 50 50 51 52 53 53 51 52 53 54
63 63 61 60 58 57 57 58 58 58 58 57 57 56 55 57 56 55 54 54 51 48 46 49 52 52 51 51 50 49 49 49 49 51 51 51 51 50 51 52 52 53
63 63 62 59 58 57 58 58 58 57 57 55 56 55 55 56 55 52 52 52 52 46 45 48 52 51 50 50 50 50 48 48 47 48 50 49 49 50 54 52 52 53
64 63 63 60 57 58 58 58 58 56 56 56 53 53 55 55 52 52 50 50 48 45 44 45 48 50 48 48 48 48 48 47 47 49 49 48 49 48 49 51 52 50
62 62 62 60 58 58 58 57 57 57 55 54 53 53 53 52 51 51 51 49 47 46 44 44 45 47 49 49 47 47 47 48 49 50 50 50 48 47 48 49 49 48
62 62 62 58 58 57 57 57 57 57 56 55 54 52 50 49 48 50 51 47 47 46 45 46 46 45 47 47 46 48 50 50 50 51 49 49 49 48 49 49 49 49
61 62 62 60 57 56 55 55 56 56 56 55 54 52 51 48 48 49 48 47 47 47 45 47 48 56 54 53 53 48 49 50 50 47 49 50 49 49 50 49 48 49
59 60 60 60 58 56 56 56 56 57 57 55 53 51 50 49 48 49 48 50 48 48 48 58 56 55 46 43 43 51 51 47 50 50 49 49 49 49 49 50 50 52
58 58 58 58 57 57 57 55 55 56 55 54 53 52 53 52 52 47 48 50 49 52 57 56 53 48 41 40 40 41 51 53 50 51 49 49 50 50 50 50 50 49
56 56 56 57 57 56 56 56 56 55 54 54 55 55 54 54 53 55 56 57 57 56 55 54 52 44 39 40 40 40 41 53 52 50 49 50 49 48 49 49 49 50
56 56 56 57 56 56 58 57 56 57 57 57 58 59 59 57 56 57 57 55 53 52 51 50 48 40 39 40 40 40 40 46 51 52 51 49 49 49 48 49 50 51
58 56 56 56 58 57 56 55 56 55 57 57 58 57 57 57 58 58 55 52 50 50 48 46 45 41 39 39 39 39 39 41 54 54 54 51 49 49 50 51 52 52
56 56 56 55 55 55 55 54 55 55 55 55 57 57 56 56 56 55 52 50 48 47 44 43 41 38 38 39 39 39 38 40 58 56 53 53 52 52 53 56 56 57
54 54 55 54 54 54 54 53 53 53 53 54 54 55 55 55 55 56 54 50 48 45 44 42 40 37 37 37 37 38 38 53 57 55 53 52 54 55 56 56 56 55
52 52 50 49 51 52 50 52 52 54 54 53 52 51 51 51 50 50 50 49 46 45 44 41 40 38 36 36 36 37 42 55 55 52 51 55 56 56 57 57 57 58
47 49 49 49 48 49 48 48 50 50 49 49 49 49 47 47 47 47 48 48 47 45 43 42 40 39 36 36 36 36 39 52 52 52 54 54 55 57 57 56 60 56
46 44 45 44 44 44 46 46 45 45 46 47 47 47 48 46 45 45 46 46 47 48 49 45 42 40 37 36 36 36 41 49 48 49 51 52 52 51 52 52 55 51
42 40 40 40 40 41 42 43 43 43 43 43 43 43 43 44 44 44 46 48 45 45 47 48 45 41 39 36 36 36 37 45 45 44 44 45 46 45 46 48 49 53

ECMWFNIL_sfc_dewp_066.txt.gz
Dewpoint
65 65 63 62 62 62 61 61 61 61 62 63 63 60 63 63 63 65 64 65 65 64 64 64 64 64 64 64 63 61 63 64 66 66 65 64 64 64 63 63 64 64
65 64 63 63 62 62 62 63 61 61 63 63 63 63 62 63 63 64 63 63 63 64 64 64 64 64 64 63 64 63 63 64 65 63 65 64 64 64 63 64 63 64
65 64 64 63 62 62 63 63 63 62 64 63 63 63 63 63 63 63 64 63 63 62 64 64 64 64 63 63 63 62 62 62 62 64 64 62 63 62 64 64 64 64
64 64 63 63 63 62 63 63 63 63 63 63 62 62 62 62 63 63 63 62 61 63 63 64 63 63 59 61 63 62 62 62 62 63 64 63 63 63 63 63 63 63
64 63 64 63 62 62 62 61 61 62 61 63 62 63 61 62 63 61 63 62 60 61 62 63 63 63 61 60 61 61 62 62 62 62 61 62 63 63 63 63 62 62
63 62 63 62 62 61 61 60 59 61 61 62 63 61 62 61 61 59 62 59 59 60 60 61 61 60 60 61 61 61 61 58 59 60 58 59 59 62 60 64 62 62
62 63 63 62 61 61 60 60 59 60 61 62 61 62 61 61 62 58 58 58 57 57 57 60 61 60 62 60 60 60 60 59 57 56 55 58 59 59 58 60 62 62
62 63 62 61 61 61 60 59 60 61 62 60 61 61 60 58 58 59 58 58 55 53 57 57 59 59 60 60 58 58 59 59 59 57 55 56 58 56 59 59 61 59
62 63 62 61 61 60 59 58 60 61 60 61 60 60 59 59 59 59 58 57 54 56 54 57 58 58 60 59 60 58 55 57 59 58 56 58 58 56 55 57 60 61
62 62 61 60 60 60 59 59 60 59 59 60 59 60 57 61 60 56 58 59 55 54 53 55 59 58 59 58 55 56 56 55 56 57 57 57 58 56 53 55 57 58
62 62 61 61 60 60 60 60 60 59 59 58 60 60 58 60 58 59 58 57 57 52 51 53 57 55 57 58 57 57 56 56 54 55 57 56 56 56 58 56 57 57
62 62 61 60 59 60 60 59 59 59 60 60 58 58 59 61 57 60 55 54 52 51 50 51 54 56 55 54 53 56 57 55 55 56 56 55 56 54 55 57 57 56
60 62 62 60 59 60 60 59 58 59 58 57 58 58 58 58 57 59 59 55 51 52 51 55 54 54 56 56 52 54 54 53 57 56 57 55 54 54 54 55 56 55
60 60 61 63 61 60 60 58 58 59 58 56 57 58 57 54 52 55 58 55 55 54 50 55 54 52 51 52 53 54 55 57 56 57 56 55 55 56 56 56 56 55
60 61 62 63 62 59 59 58 57 58 58 57 58 56 56 56 55 53 56 55 52 54 55 54 53 51 48 47 49 54 59 57 56 54 56 55 55 55 55 55 54 56
61 61 61 61 61 59 58 58 58 58 58 56 54 54 57 54 55 54 54 56 53 56 55 54 51 49 45 43 44 48 54 51 58 58 55 56 55 55 55 56 55 55
61 61 60 60 60 60 58 57 57 58 57 55 54 54 55 55 55 55 56 56 55 55 53 52 49 46 41 40 41 43 50 56 58 57 57 54 56 53 55 56 56 56
61 61 60 60 60 56 56 56 57 57 57 57 57 57 56 58 57 56 55 55 54 54 53 51 47 42 39 40 41 41 44 53 54 57 59 58 55 56 55 55 55 55
60 59 58 58 58 58 58 57 58 58 58 58 58 58 58 56 54 54 54 54 53 50 48 47 46 39 39 40 40 41 40 51 53 55 58 57 56 55 54 55 57 58
58 57 56 56 56 55 56 56 57 57 57 57 57 57 57 54 52 51 50 49 48 46 44 43 40 39 37 38 39 39 39 47 57 59 56 55 54 55 55 55 57 56
56 55 54 54 53 54 54 54 55 55 56 56 56 56 55 53 51 49 48 46 45 44 42 41 40 37 36 37 37 39 42 50 59 60 57 55 54 55 56 55 57 58
53 54 53 53 53 53 53 53 52 52 54 55 54 54 54 54 53 50 47 46 45 42 41 40 40 36 36 36 37 37 46 57 58 57 55 55 55 55 56 57 58 58
51 51 51 52 52 52 52 52 51 52 53 54 53 53 53 53 52 51 49 46 43 42 40 40 39 37 36 36 36 37 46 55 55 53 54 57 55 56 58 58 56 57
48 48 49 49 50 49 49 50 51 53 53 54 52 52 51 51 51 50 49 47 45 43 41 40 39 38 36 36 36 38 42 52 51 51 52 52 55 58 58 57 52 51
47 47 47 47 47 48 48 48 48 49 50 51 50 48 47 47 47 46 47 48 48 47 47 42 40 39 36 35 36 38 44 49 47 46 46 47 47 47 51 54 50 46
47 46 46 46 46 47 48 48 49 49 47 47 46 45 45 45 46 46 45 45 44 44 47 46 42 39 38 36 36 37 40 45 45 43 43 43 44 45 46 48 51 47

ECMWFNIL_sfc_dewp_069.txt.gz
Dewpoint
63 63 62 61 61 60 60 60 60 60 59 59 59 60 59 60 60 60 60 61 61 61 61 61 61 62 62 62 62 62 62 62 63 63 63 62 62 62 62 61 60 60
63 62 61 61 60 60 60 60 59 59 59 59 59 60 60 60 60 60 61 60 61 61 61 61 61 61 61 61 61 62 62 62 62 64 63 63 62 62 62 61 61 61
62 61 61 60 60 60 60 59 60 60 60 59 59 60 60 60 60 59 59 59 60 60 60 60 60 60 60 61 61 61 61 60 60 62 63 63 62 62 61 62 61 61
62 61 61 61 60 60 61 60 59 60 60 59 59 60 60 60 60 58 59 62 59 60 60 60 60 60 59 60 60 60 60 60 61 61 62 62 62 62 62 62 61 61
63 62 61 61 61 61 61 60 59 60 59 59 60 60 60 59 59 59 59 57 57 58 59 59 59 59 58 59 59 59 59 60 60 61 61 60 61 62 62 62 61 60
63 62 62 61 61 60 60 59 59 59 60 59 59 59 59 59 58 59 56 56 56 57 58 58 59 58 58 58 57 57 59 58 59 60 60 60 60 61 62 61 61 60
62 62 61 61 61 60 59 59 59 60 60 60 59 59 58 58 58 58 55 55 55 55 56 57 56 57 58 57 56 57 57 56 57 58 58 58 59 59 60 61 61 60
62 61 62 61 60 59 59 59 59 60 59 59 59 59 58 59 58 57 55 54 54 53 55 57 56 57 57 56 56 56 56 57 56 56 56 57 58 58 58 60 59 60
62 61 62 60 60 59 58 59 60 59 58 58 58 58 58 58 57 56 55 54 53 53 54 56 56 56 56 56 55 53 52 54 56 55 56 56 57 58 59 60 59 59
61 62 61 60 59 59 58 60 60 59 59 58 57 57 57 58 57 56 56 54 53 52 54 55 56 55 56 54 53 52 52 54 55 55 55 55 56 56 57 58 59 59
62 62 60 59 59 59 59 59 59 59 58 58 57 56 58 57 56 57 56 53 53 52 54 54 54 54 55 53 53 54 53 53 53 53 54 54 55 55 58 57 58 58
60 60 60 59 59 58 59 58 58 58 58 58 57 56 58 56 56 56 55 53 51 51 51 53 53 54 54 52 53 53 51 51 52 53 54 55 54 56 56 57 56 55
60 60 60 60 59 59 59 58 58 58 58 57 58 57 56 55 55 55 54 50 51 50 52 53 50 50 51 52 51 51 49 47 51 53 55 54 53 54 55 55 56 55
60 60 60 60 60 59 59 59 58 58 57 57 56 54 53 52 52 53 53 51 52 51 50 50 48 47 48 49 52 50 50 52 54 53 52 53 53 53 54 55 55 55
60 60 60 59 59 58 58 58 57 56 55 56 55 53 54 53 53 53 52 53 52 50 49 49 48 47 47 47 49 52 54 52 52 52 52 52 52 53 54 54 53 53
59 59 59 59 58 58 57 57 56 55 55 54 54 54 54 54 54 55 53 51 50 50 49 49 48 47 45 43 44 49 53 54 54 53 52 51 51 52 53 52 52 52
58 58 58 58 58 58 57 57 56 55 53 52 54 56 55 54 54 53 52 52 50 48 47 47 46 44 42 40 41 46 52 54 54 51 51 52 50 50 52 52 51 51
58 58 57 58 58 58 57 57 56 55 55 56 55 54 53 53 52 52 51 50 49 47 46 44 42 40 38 40 40 43 49 54 53 54 54 52 51 51 52 52 52 52
58 57 56 56 57 57 57 57 57 57 56 54 53 53 52 51 50 49 47 46 44 42 41 40 39 38 38 39 40 42 47 53 55 53 53 53 54 54 55 55 56 56
56 54 55 55 56 55 56 56 56 56 54 53 51 50 48 47 46 45 44 43 41 40 38 37 37 38 37 38 39 41 46 52 56 54 54 54 55 55 56 56 56 56
53 53 53 53 53 53 53 53 54 54 53 52 50 48 47 46 45 43 43 42 40 39 37 36 37 37 37 38 38 39 42 51 54 55 54 55 56 56 56 56 56 57
52 52 52 52 52 51 51 51 51 52 51 51 50 49 48 46 44 42 41 40 39 37 36 35 35 36 36 38 39 40 45 53 54 54 54 55 56 56 56 56 56 56
49 50 50 50 50 51 51 50 50 50 51 51 50 49 48 47 45 44 42 40 39 37 36 35 35 36 36 37 39 41 46 51 53 53 54 55 55 54 53 54 56 57
47 48 48 48 48 48 49 50 51 51 51 50 50 50 49 49 47 46 44 42 39 38 37 35 34 36 36 36 38 40 44 47 47 46 48 53 54 52 50 50 51 52
46 47 47 47 47 47 48 48 48 49 49 50 49 49 49 49 48 47 47 46 44 42 42 35 34 36 36 36 38 39 42 43 44 44 44 45 49 51 50 48 44 44
47 46 46 46 46 46 47 47 48 48 48 48 48 48 47 47 47 46 45 43 43 42 40 36 33 34 36 35 37 39 40 42 42 42 42 43 44 46 49 48 43 39

ECMWFNIL_sfc_dewp_072.txt.gz
Dewpoint
62 62 61 61 61 61 60 60 60 60 60 60 59 59 59 60 60 60 60 60 60 61 61 61 61 61 62 62 63 63 62 62 61 61 61 61 60 60 60 59 58 59
62 61 61 61 60 60 59 60 60 60 60 59 59 59 60 60 59 60 60 60 60 60 61 61 61 61 61 61 62 62 61 61 61 63 61 61 60 60 60 59 59 58
62 61 61 60 60 59 59 59 60 59 60 59 59 60 60 60 60 60 60 60 60 60 60 61 60 61 61 61 61 61 61 60 61 61 61 61 60 60 60 59 59 59
62 61 61 60 60 59 60 59 59 59 60 59 59 60 60 60 59 59 60 62 60 59 59 60 60 60 60 60 60 60 60 60 61 61 61 60 60 60 60 60 59 58
61 61 61 61 60 60 60 59 59 60 59 60 60 60 60 59 58 59 60 59 59 59 59 59 59 59 60 60 60 59 59 59 59 61 60 60 59 60 60 60 59 58
62 62 61 61 60 60 60 59 59 59 58 59 59 60 59 58 59 59 58 58 59 59 58 58 58 58 59 59 59 59 59 59 59 60 60 60 59 59 62 60 59 58
61 61 61 61 60 60 60 59 59 59 59 59 59 59 58 58 58 57 57 58 58 58 58 58 58 57 58 58 57 58 58 58 59 60 60 59 60 59 60 60 59 59
61 61 61 61 60 59 60 59 59 59 59 59 59 58 58 58 56 56 55 56 56 56 57 57 57 57 57 56 56 57 57 57 58 58 59 59 59 60 59 60 59 58
62 61 61 60 60 59 59 59 59 59 59 59 58 59 58 57 56 55 54 54 54 55 56 56 56 57 56 56 56 56 56 56 57 57 58 58 58 59 59 59 59 58
61 61 61 60 59 58 58 59 59 59 60 58 58 59 58 56 55 54 54 53 53 54 55 55 56 56 55 55 55 54 54 54 56 56 57 57 58 58 59 59 58 58
60 61 61 60 59 59 59 59 59 58 59 58 58 58 58 56 55 54 53 52 53 53 55 55 54 54 54 52 52 52 53 54 55 56 57 57 57 58 60 58 58 58
59 60 60 60 59 59 59 59 58 58 58 57 57 57 57 56 56 54 52 51 51 53 54 54 54 53 52 51 51 51 52 54 54 55 56 56 56 57 58 58 58 57
59 59 60 60 59 59 59 58 58 58 57 56 57 57 56 56 55 54 53 52 52 53 52 51 51 51 51 51 51 49 49 51 53 54 55 55 56 57 57 57 57 56
59 59 59 59 58 58 59 58 57 57 56 56 57 56 56 55 54 52 52 51 51 50 50 50 49 48 49 50 51 49 50 52 53 54 54 54 54 55 55 56 56 55
59 59 59 57 58 58 58 58 58 57 56 56 56 55 55 53 52 52 50 50 49 49 49 49 48 48 48 48 50 52 52 52 52 53 53 53 53 54 54 54 53 52
59 59 59 58 58 58 58 58 58 57 55 54 54 54 53 52 51 50 50 49 49 48 48 48 48 47 46 44 45 50 51 52 52 52 53 53 53 53 52 52 51 52
58 58 58 58 58 58 57 58 57 56 54 54 54 53 52 51 50 49 49 48 47 47 46 46 45 43 41 40 44 48 53 52 51 51 52 53 52 51 50 50 51 52
58 58 58 58 57 57 57 57 56 55 54 54 53 52 51 50 50 49 48 47 46 44 44 44 43 41 39 42 45 46 49 53 53 53 52 52 52 51 52 54 55 56
57 57 57 57 56 56 56 56 56 55 54 52 51 51 49 48 47 46 45 44 43 42 41 42 41 40 40 43 45 46 46 51 53 53 54 54 54 54 55 55 54 54
55 56 56 56 56 56 56 56 54 52 51 50 49 48 46 45 44 43 42 41 41 40 40 40 40 40 39 42 45 46 46 49 54 54 55 55 55 55 54 54 54 53
53 53 54 54 54 54 53 52 51 50 48 47 46 45 44 43 42 41 40 39 39 39 39 38 38 38 39 42 44 46 47 49 54 55 55 54 54 55 55 55 55 53
50 51 52 52 52 52 51 50 50 49 48 47 44 43 42 41 40 39 38 38 37 37 37 36 37 37 39 41 44 46 48 54 55 55 54 54 54 54 55 56 54 52
48 49 50 50 51 50 50 49 49 48 48 46 44 43 41 40 39 39 38 37 36 35 34 34 36 38 38 39 42 46 49 54 54 54 53 52 51 52 53 53 52 51
47 47 47 48 49 49 49 49 48 49 48 48 45 44 43 42 40 40 39 37 35 34 34 34 36 38 38 39 39 41 46 52 53 52 51 50 49 48 48 48 48 49
47 47 47 47 47 47 48 48 48 48 48 48 48 47 46 45 43 39 38 36 35 36 38 33 34 36 37 37 38 39 43 46 49 50 49 50 48 45 44 42 39 41
46 46 47 46 46 47 47 47 48 48 47 47 46 46 45 44 43 40 38 37 36 35 36 35 36 35 37 36 37 38 40 44 45 46 48 48 48 46 43 39 38 38

ECMWFNIL_sfc_dewp_075.txt.gz
Dewpoint
62 62 61 61 61 61 61 60 59 59 60 60 60 59 60 60 60 61 61 61 61 61 61 61 61 61 62 62 62 62 61 61 60 60 60 60 59 59 59 58 58 58
62 62 61 61 61 60 61 60 60 59 60 59 59 59 60 60 60 61 60 60 60 60 61 61 61 61 61 62 61 61 60 60 60 61 60 59 59 59 59 59 58 57
61 61 61 60 61 60 60 59 59 59 60 59 59 59 59 59 60 59 60 60 60 60 60 60 60 61 61 61 61 61 60 60 60 60 60 59 58 59 59 58 58 58
61 61 61 61 61 60 59 59 59 59 59 59 59 59 59 60 60 59 59 62 59 59 60 60 60 60 60 60 60 60 60 60 60 60 59 59 59 59 58 58 58 58
61 61 61 61 61 60 59 59 59 59 59 60 60 60 60 59 59 59 59 59 59 59 59 59 59 59 59 60 60 60 59 58 58 60 60 59 59 59 58 59 58 58
60 61 61 61 60 59 59 59 59 59 59 59 59 60 60 59 59 59 59 58 58 59 58 58 59 58 59 59 59 59 59 59 59 59 59 59 58 57 60 58 58 58
60 60 60 60 59 59 59 59 59 59 59 59 59 59 59 58 59 59 59 59 58 58 58 58 58 58 58 58 58 57 57 58 58 59 59 58 58 58 59 58 58 58
61 60 59 59 58 58 59 59 59 59 59 59 59 59 58 58 58 58 58 58 58 58 57 57 57 57 57 57 57 56 56 58 58 59 59 58 58 59 58 59 58 58
60 60 59 59 59 58 59 59 60 59 60 59 59 59 58 58 58 58 58 58 58 57 57 56 57 56 56 56 56 57 56 56 58 58 58 58 58 59 59 58 57 57
59 60 59 59 59 59 59 58 59 59 59 59 59 58 58 57 57 57 57 57 56 56 56 56 56 55 55 55 56 56 56 56 56 56 58 58 58 58 59 58 58 56
59 60 59 59 59 59 59 58 59 59 59 59 58 58 57 56 56 56 55 55 55 55 55 55 56 56 55 54 54 55 56 55 56 56 56 57 57 58 60 58 58 57
59 60 60 59 59 59 59 59 59 59 59 59 58 58 56 56 55 55 55 54 54 54 55 55 55 55 54 54 54 53 54 54 55 55 56 56 56 56 58 57 57 57
59 58 59 59 59 59 59 60 59 59 59 58 58 57 56 55 54 54 54 53 53 55 55 54 53 53 52 52 52 52 53 54 54 54 54 55 55 56 56 55 55 53
59 59 59 59 58 59 59 59 60 60 59 59 58 57 55 55 54 53 53 52 53 52 52 51 51 50 50 50 50 51 53 53 54 54 54 54 55 55 55 56 55 54
59 59 59 59 58 59 58 59 59 59 58 58 58 56 56 55 53 52 51 50 50 50 49 49 49 49 48 49 49 50 52 53 54 54 54 54 54 53 53 54 54 54
59 59 59 58 58 58 58 58 58 58 58 57 57 57 55 53 51 51 50 49 49 49 49 49 48 48 47 46 48 49 51 52 53 53 54 54 53 52 52 52 53 52
59 58 58 58 58 58 58 57 57 57 57 57 56 55 53 51 50 49 49 49 48 48 47 46 45 44 42 41 41 45 51 52 53 53 53 53 52 51 50 50 51 51
58 59 58 58 58 58 58 57 57 56 56 55 55 53 51 50 49 48 48 47 46 45 45 44 43 43 43 44 44 46 49 52 52 53 52 51 50 50 51 53 53 52
53 58 58 57 57 57 57 56 56 55 54 53 52 52 51 49 48 47 46 45 45 44 44 43 43 41 43 45 44 45 46 50 53 52 51 51 52 53 53 52 52 52
51 53 56 56 56 56 56 55 55 54 52 51 51 50 48 46 45 44 43 43 44 44 43 42 42 41 44 43 43 44 46 49 53 53 54 54 53 53 52 52 52 51
49 50 52 54 55 55 54 53 52 51 50 49 48 47 45 43 42 42 42 42 42 42 43 42 42 40 43 43 43 45 47 49 54 54 54 54 54 53 52 51 51 51
48 48 50 51 52 52 51 49 49 48 47 46 46 45 44 41 40 39 39 39 40 41 43 42 41 39 43 44 44 46 48 53 53 53 53 53 53 52 52 51 50 49
48 47 47 48 49 49 48 47 46 45 45 46 44 44 43 42 38 37 37 37 38 39 41 40 40 39 40 43 45 46 49 52 52 51 50 49 48 49 49 48 47 46
47 47 47 47 47 47 47 47 46 46 45 45 43 43 42 40 38 35 36 36 36 37 38 38 38 39 38 40 43 46 49 52 51 50 48 45 44 42 41 40 42 45
47 47 47 47 46 47 47 46 46 46 46 45 44 43 42 42 37 35 36 37 38 39 41 38 38 39 38 39 40 44 49 52 50 49 47 45 43 42 42 40 39 41
46 46 47 47 46 46 46 46 46 45 44 43 43 43 42 42 41 39 38 39 40 40 40 39 38 38 38 37 39 40 43 49 49 47 45 44 45 44 42 42 42 42

ECMWFNIL_sfc_dewp_078.txt.gz
Dewpoint
61 61 61 61 61 61 61 61 61 61 60 60 60 61 61 61 61 62 62 62 62 63 62 62 62 62 62 62 62 62 61 61 61 61 61 61 61 60 60 59 59 59
61 61 61 61 61 61 61 61 61 61 60 60 60 60 60 60 61 61 61 62 62 62 62 62 62 61 62 62 62 62 61 61 61 61 61 60 60 60 60 60 59 59
61 60 61 61 61 60 61 61 61 60 60 60 60 59 60 60 60 61 61 61 61 61 61 61 61 61 62 62 62 62 61 61 60 61 61 60 60 60 60 60 60 59
61 61 61 60 60 60 61 60 60 60 59 59 59 60 60 60 60 60 60 63 61 61 61 61 61 61 61 62 61 61 61 61 61 61 60 60 60 60 60 60 59 59
61 61 61 61 60 60 60 60 60 59 59 60 59 60 60 60 60 60 60 61 60 60 60 60 61 61 61 61 61 61 60 60 60 61 60 60 59 60 59 60 59 59
61 61 61 61 60 59 57 59 59 59 59 59 59 60 59 59 60 60 60 60 59 60 60 60 60 60 61 61 61 61 60 60 60 60 60 60 59 59 59 60 59 59
61 60 60 60 60 60 59 59 59 59 59 59 59 59 60 59 59 60 60 59 59 59 59 59 59 59 60 60 60 60 60 60 60 60 60 60 60 59 60 59 59 59
61 60 60 59 59 59 59 59 59 59 60 59 59 59 59 59 59 59 59 59 59 59 59 59 59 59 59 59 60 59 59 59 60 60 60 59 60 60 60 59 59 59
60 61 60 60 59 59 59 59 59 59 60 59 59 59 59 59 59 59 59 59 58 58 58 58 59 59 59 59 59 59 59 59 60 60 60 59 59 60 60 59 59 59
59 60 60 59 59 58 59 59 59 59 60 59 59 59 59 59 59 59 59 58 58 58 58 58 58 58 58 58 58 58 58 59 59 59 60 59 60 60 60 59 59 58
59 58 58 59 58 59 59 59 59 59 59 60 60 59 59 58 58 58 58 58 58 57 57 57 57 57 57 57 57 57 58 58 58 59 59 59 59 60 61 60 59 58
59 59 59 59 58 59 59 60 60 59 60 60 60 59 59 59 58 58 58 58 57 57 57 57 57 57 57 56 56 56 57 57 58 58 58 58 58 59 60 59 59 58
59 59 59 59 59 58 59 59 59 60 60 60 59 59 58 58 57 57 57 57 57 57 57 57 56 56 56 56 55 55 56 56 57 57 57 57 57 58 58 57 57 56
57 59 59 59 59 59 59 59 59 59 60 60 60 59 58 57 56 56 56 56 56 56 56 56 56 55 55 54 54 55 55 55 56 56 56 56 57 57 57 56 56 57
55 58 59 59 59 59 59 59 59 59 59 59 59 58 58 58 56 55 54 53 54 54 54 53 54 54 53 52 52 53 54 55 55 55 56 56 56 56 56 56 56 56
53 56 59 59 59 59 59 59 59 59 59 58 58 58 57 57 55 53 53 53 52 51 51 51 52 52 51 49 49 52 53 53 54 55 55 55 55 54 54 54 54 55
51 52 55 58 59 59 59 59 59 58 58 58 58 57 57 56 54 52 52 52 51 50 50 50 49 49 44 43 45 48 52 54 54 55 55 54 54 53 53 52 52 51
49 51 53 56 58 58 59 59 59 57 57 57 57 56 56 54 54 52 51 50 50 49 49 48 47 45 42 41 42 45 49 54 54 54 54 53 52 52 52 52 52 51
48 49 51 54 57 58 58 58 58 57 56 56 55 55 54 53 52 50 49 48 48 47 47 47 46 42 44 44 43 44 46 51 54 54 52 52 52 52 52 52 52 52
48 48 49 51 53 57 57 57 56 56 54 53 53 53 52 51 50 48 46 46 46 46 45 45 44 42 43 43 43 43 45 48 52 52 52 53 53 52 52 52 52 52
47 47 48 49 50 51 54 54 53 51 50 50 50 50 49 48 48 45 45 45 45 45 45 44 44 41 41 42 42 44 46 48 54 54 53 53 52 52 51 51 52 52
47 47 47 47 47 47 47 47 47 47 47 47 46 45 45 45 45 44 43 43 44 45 46 45 44 40 41 42 44 45 47 53 54 53 52 51 50 49 49 49 50 50
46 47 46 46 46 46 46 45 45 45 45 45 43 42 42 41 42 43 43 43 43 44 44 44 44 42 42 42 44 46 49 53 52 50 49 48 47 46 47 46 46 45
46 46 46 45 45 45 45 45 44 44 43 43 42 41 41 41 42 42 42 42 41 42 42 43 43 41 41 43 44 45 49 51 49 46 44 42 41 41 42 43 44 45
45 46 46 46 44 44 44 43 43 43 43 43 43 42 42 42 42 41 41 41 42 42 43 41 41 41 40 41 43 45 48 48 46 44 43 43 41 42 43 41 40 41
44 45 45 46 45 44 44 44 44 43 43 43 43 43 42 42 42 42 41 41 41 41 41 41 40 40 39 39 41 43 45 47 46 45 44 44 44 43 43 43 43 42

ECMWFNIL_sfc_dewp_081.txt.gz
Dewpoint
63 63 65 64 64 64 64 65 64 63 62 64 63 64 62 64 64 64 64 65 65 65 65 65 65 65 65 65 66 64 64 64 64 63 63 63 63 64 63 63 64 63
63 63 63 64 65 65 64 65 64 63 63 64 63 63 64 64 63 63 64 64 64 64 65 65 65 65 65 65 65 65 64 65 65 63 63 63 64 64 64 63 63 64
63 63 63 63 63 63 63 63 63 63 63 63 62 63 63 63 63 63 64 64 63 64 65 65 65 65 65 65 65 65 65 65 65 64 64 63 64 64 64 63 63 64
62 63 62 62 62 63 63 62 62 62 63 63 63 63 63 63 63 63 64 64 64 64 64 65 65 65 65 65 65 65 65 65 65 65 64 64 64 63 63 63 63 63
62 62 62 62 62 62 62 61 61 62 62 62 63 63 63 63 63 63 63 64 64 65 64 64 64 64 65 65 65 65 64 65 65 64 63 63 63 63 63 64 63 62
61 61 61 62 62 62 61 61 61 62 62 63 63 63 62 62 62 63 63 64 64 64 64 65 65 64 65 65 65 65 64 63 63 63 62 62 62 63 62 63 63 63
62 62 62 62 63 62 62 61 61 61 62 62 62 62 62 62 62 63 63 63 63 63 63 64 64 65 65 65 65 64 64 64 63 61 61 62 62 62 62 63 62 62
60 61 61 61 62 62 62 61 61 61 62 62 62 62 62 61 61 63 63 63 62 62 63 63 64 64 64 64 64 64 64 63 63 62 62 62 63 62 63 62 64 62
60 61 61 61 61 61 61 61 62 62 62 62 62 62 62 62 62 62 62 62 62 63 62 63 63 63 64 64 64 64 63 63 63 62 63 63 63 63 61 62 63 63
59 61 61 60 60 61 61 61 61 61 61 62 62 62 61 62 62 62 63 62 62 61 62 62 62 63 63 63 63 63 63 63 64 64 63 63 63 62 61 62 63 63
56 59 60 60 60 61 61 61 61 61 61 61 62 62 61 61 62 62 62 62 62 62 61 61 62 62 62 63 64 64 63 63 63 63 64 64 64 63 63 63 63 63
55 56 58 59 60 60 60 61 61 61 61 61 61 61 61 61 62 61 61 61 61 61 60 60 61 61 61 62 62 63 64 64 64 64 64 63 63 62 62 61 63 62
52 54 56 58 60 60 61 60 60 61 61 61 61 61 61 61 61 61 61 61 61 60 59 61 61 61 62 62 62 62 63 63 63 64 64 64 63 62 62 62 63 62
51 52 53 55 58 60 60 60 60 60 60 60 61 61 61 60 60 60 60 61 61 61 59 60 61 61 61 61 61 61 62 62 62 63 62 63 63 62 63 62 63 63
50 51 52 53 55 58 59 60 60 60 60 60 60 61 61 61 60 60 60 59 60 61 59 60 60 60 60 60 60 60 61 61 61 61 62 62 62 62 62 62 62 63
49 50 50 52 54 55 57 59 59 60 60 60 60 60 60 60 60 60 59 59 59 59 59 60 61 61 58 53 54 59 60 59 60 61 61 61 62 62 62 62 62 62
48 49 49 50 52 53 56 58 59 60 60 60 60 61 61 60 60 59 59 59 59 58 58 60 60 59 50 46 47 50 58 60 60 60 60 61 61 61 61 60 60 59
47 48 48 49 50 51 53 56 58 59 59 60 60 60 60 61 60 59 58 59 58 57 58 58 58 49 44 44 44 45 51 59 60 60 60 60 60 60 60 59 58 58
47 47 47 48 48 49 51 53 56 58 59 59 59 59 58 58 59 58 57 58 56 57 55 54 53 41 41 42 43 44 46 53 58 60 59 60 60 59 58 58 57 57
46 46 46 47 47 48 48 48 49 51 53 56 58 58 57 57 56 56 55 53 53 53 52 51 50 43 42 41 42 43 45 51 58 59 59 58 58 58 58 57 57 56
46 46 45 46 46 46 46 45 46 47 47 48 50 51 51 51 51 51 50 50 50 51 52 50 48 40 41 41 42 43 46 51 58 58 57 57 57 57 57 57 57 57
45 45 45 44 44 44 44 44 44 45 45 46 46 47 47 48 48 48 48 48 48 49 51 50 48 39 40 41 42 44 47 56 57 57 56 56 55 55 55 56 56 57
45 45 44 44 44 43 43 44 43 43 44 45 44 44 44 45 45 46 47 46 46 47 49 49 48 41 40 42 43 45 50 56 55 54 54 54 53 53 53 54 55 55
44 44 44 44 43 43 43 43 44 44 44 44 44 44 44 44 44 44 44 45 44 44 46 47 46 43 40 43 44 47 50 54 53 52 52 51 50 50 51 50 48 48
44 44 44 44 43 43 44 43 43 43 44 44 44 44 43 43 44 43 43 43 44 44 44 44 44 43 39 40 42 45 50 52 49 49 48 48 47 45 46 45 43 42
43 44 44 44 44 44 44 44 44 44 44 44 44 43 43 43 43 42 41 41 42 43 42 41 42 41 40 38 40 41 43 48 48 47 47 46 45 45 44 44 45 42

ECMWFNIL_sfc_dewp_087.txt.gz
Dewpoint
62 63 63 64 65 64 64 65 64 64 64 63 65 64 65 66 66 66 66 66 65 66 67 67 66 65 66 66 66 66 66 65 64 66 65 65 66 65 64 63 64 63
62 62 62 62 63 64 65 65 64 65 65 66 64 65 64 65 66 66 65 65 65 65 65 66 65 65 65 65 65 67 66 66 64 64 64 64 66 65 64 65 64 63
61 61 62 63 63 63 66 64 64 64 64 65 64 65 63 64 64 64 65 65 64 66 67 66 65 65 65 65 65 66 65 65 64 66 65 64 66 65 65 65 64 65
60 60 61 61 62 64 63 66 64 63 64 64 64 64 64 63 64 65 65 65 65 65 65 66 66 65 64 64 66 66 66 64 65 65 65 66 66 64 63 65 64 62
59 59 60 61 62 63 64 63 63 63 63 63 64 64 64 63 64 64 64 64 65 65 65 66 65 66 65 65 65 66 66 64 64 65 66 65 65 65 63 64 63 62
58 58 59 61 62 63 64 63 62 63 62 62 63 63 63 63 63 64 63 63 63 65 65 64 65 66 66 65 65 65 64 64 64 64 63 63 63 63 62 62 63 61
57 58 59 59 61 62 64 63 62 63 63 63 64 63 63 63 64 63 63 63 62 63 63 65 64 65 65 65 63 63 64 64 63 63 62 63 63 62 62 63 62 61
57 57 57 58 60 61 62 62 62 63 63 63 62 63 63 61 63 62 64 62 61 62 63 62 63 63 64 63 63 64 64 63 63 62 62 63 64 62 61 63 64 61
56 56 56 57 58 59 60 60 62 62 62 63 63 63 63 63 63 63 63 63 63 64 63 62 63 63 64 64 64 63 63 63 63 63 62 63 63 62 62 62 63 63
55 55 56 56 56 57 58 59 60 61 61 61 61 61 62 63 63 63 62 63 63 63 62 61 63 64 64 63 63 62 63 63 63 63 62 62 62 61 61 61 61 62
54 54 55 55 55 55 57 57 59 60 60 60 61 61 61 62 62 62 63 63 63 61 61 62 64 63 64 64 63 64 63 63 63 63 63 63 63 63 62 61 62 62
53 53 53 53 54 54 55 55 56 57 58 60 59 60 61 62 62 63 62 62 62 61 62 62 62 62 62 62 62 63 64 64 63 65 64 63 63 63 63 61 62 60
52 52 52 53 53 53 54 54 54 56 56 57 59 60 60 61 61 61 62 62 61 62 62 63 64 63 64 63 63 62 63 63 63 63 64 64 63 62 62 62 62 61
50 51 51 50 52 52 52 53 53 54 55 57 58 59 60 60 60 61 62 62 62 62 62 63 63 62 62 62 62 63 63 64 64 64 62 62 62 62 61 61 62 61
49 50 50 50 50 50 51 51 52 52 53 54 55 57 59 60 61 61 61 61 61 62 61 62 63 63 63 62 62 62 62 62 63 62 63 63 62 62 61 62 61 62
47 48 48 49 49 49 50 50 50 51 52 52 52 53 54 57 59 60 60 61 61 61 61 62 62 63 61 55 55 62 62 61 62 62 62 63 63 62 61 61 62 62
47 47 48 48 48 48 49 49 49 50 50 50 51 51 53 54 55 56 59 61 61 61 60 63 63 62 55 50 51 52 60 62 63 62 61 62 62 61 61 61 62 61
47 47 47 47 48 47 47 48 48 49 49 49 49 50 50 51 51 52 54 56 58 60 61 62 61 49 46 48 48 49 52 62 62 62 61 63 63 63 62 63 61 62
46 46 46 46 47 47 47 47 47 47 48 48 48 49 49 49 48 49 50 52 54 55 57 61 60 42 40 41 42 44 46 53 62 63 62 62 63 62 62 62 61 61
46 46 46 46 46 47 47 46 47 47 47 48 48 48 48 47 47 47 48 49 50 52 54 56 51 42 39 40 41 41 41 45 60 62 62 62 62 61 61 61 62 60
46 46 46 46 46 46 47 46 47 47 47 47 46 46 46 46 45 46 45 46 46 48 50 51 50 40 38 39 40 40 39 41 57 60 60 61 62 62 60 60 60 61
46 46 46 45 45 46 46 46 46 46 46 46 46 45 45 45 45 45 44 44 44 45 46 48 48 40 38 38 39 40 43 54 57 59 59 60 62 58 58 58 60 60
45 46 46 45 45 45 45 46 46 45 46 45 45 45 44 44 44 44 44 44 44 44 44 45 46 42 38 38 38 39 47 56 57 58 59 59 59 61 59 56 55 57
45 45 45 45 44 44 44 45 45 45 45 45 44 43 43 43 43 43 43 43 43 43 43 43 44 43 38 38 38 39 47 57 58 59 60 59 60 62 58 56 51 47
43 44 44 44 44 44 44 44 44 44 44 44 44 43 43 42 42 42 42 42 43 43 44 42 42 43 39 37 38 39 48 56 59 60 59 60 60 59 56 55 52 47
42 43 44 43 43 43 44 43 43 43 43 44 43 42 41 41 41 41 41 41 42 42 43 43 42 42 41 37 38 39 43 53 55 57 56 55 54 51 49 48 47 46

ECMWFNIL_sfc_dewp_090.txt.gz
Dewpoint
61 60 60 61 62 63 64 65 65 64 64 64 64 64 64 64 65 66 66 65 66 66 66 66 66 65 66 66 66 66 65 65 65 66 64 64 63 64 64 64 64 64
59 59 60 61 61 63 63 64 65 64 63 64 64 64 64 64 64 64 65 66 65 65 65 66 65 65 65 65 65 65 65 65 65 65 65 65 64 64 64 64 65 64
58 59 59 60 61 63 64 64 64 65 64 63 64 64 65 65 64 64 64 64 65 66 66 66 64 65 66 65 65 64 64 64 64 65 65 65 65 65 65 65 64 65
58 59 59 59 60 62 63 64 63 63 64 64 63 64 64 65 65 64 64 64 65 65 65 64 65 66 65 64 64 64 64 64 65 65 64 65 65 65 64 64 64 64
57 58 58 58 59 60 62 63 63 63 62 63 64 64 63 64 65 65 64 64 64 64 64 64 64 64 64 64 64 64 64 65 65 65 64 64 64 64 64 64 63 63
57 56 56 57 57 58 59 61 61 62 62 63 63 63 63 63 63 63 64 63 65 64 64 64 64 64 64 64 64 64 64 64 65 64 64 64 64 64 64 64 63 63
56 57 57 56 57 57 58 58 59 60 61 62 63 63 63 64 63 62 62 63 62 63 63 64 64 63 62 63 64 64 64 64 64 64 64 64 64 64 64 64 62 62
56 56 56 56 56 56 56 56 56 58 59 60 62 63 63 62 62 63 64 64 62 64 64 64 64 63 63 64 64 63 63 63 63 63 62 63 63 62 62 62 62 62
55 55 55 56 55 55 55 55 55 56 57 58 58 60 62 63 63 62 62 63 62 63 62 62 63 63 64 64 63 63 63 63 63 62 63 62 62 62 62 62 62 61
53 54 54 55 54 54 54 54 54 55 55 56 57 58 59 61 62 62 62 62 62 62 63 62 63 63 64 64 64 64 63 62 62 62 62 62 63 63 63 63 62 62
53 52 52 53 53 53 53 53 53 53 54 54 55 55 56 58 61 63 63 63 61 61 62 62 62 63 63 63 64 64 63 62 62 62 63 63 63 63 63 62 62 61
51 51 51 51 51 52 52 52 52 52 52 53 53 54 55 56 57 58 60 61 63 62 61 61 63 62 62 62 62 63 63 64 63 63 63 62 63 63 62 63 62 62
50 50 51 51 51 51 51 50 50 51 51 51 52 52 52 53 54 55 57 59 61 63 61 62 62 63 63 63 63 63 62 62 63 63 62 63 63 63 63 63 62 62
50 50 50 50 50 49 49 50 49 49 50 50 50 50 51 51 51 52 54 55 56 59 62 62 62 62 62 62 61 62 63 63 63 62 63 63 63 63 63 63 63 62
49 49 49 49 49 48 48 48 48 49 49 49 49 49 50 49 49 49 50 51 53 55 58 61 61 59 52 52 58 62 63 62 62 63 63 62 62 63 63 63 62 62
47 48 47 48 48 48 47 48 48 48 48 48 48 48 48 48 47 48 48 48 50 51 54 57 54 48 46 44 43 49 59 62 62 63 63 63 62 62 63 62 61 61
47 47 47 47 47 47 48 47 47 48 47 47 47 47 47 47 47 46 46 46 47 48 50 54 51 45 41 39 40 41 50 59 61 61 62 62 62 62 62 62 63 62
46 46 46 46 46 46 46 46 47 47 47 46 46 46 46 46 46 45 45 45 46 45 47 50 50 44 39 39 39 39 42 50 58 61 60 61 62 62 62 62 61 61
46 45 45 45 45 46 46 46 46 46 46 46 45 46 45 45 45 45 44 44 44 44 44 46 48 42 39 39 39 38 39 43 53 59 62 62 61 62 63 62 61 60
45 45 45 45 45 45 45 45 45 45 46 46 45 45 45 44 44 44 44 44 44 43 43 44 46 42 39 39 38 38 38 40 50 56 60 61 61 62 63 63 62 61
44 44 44 44 44 44 45 44 44 45 45 45 44 44 43 43 43 43 43 43 43 43 43 43 44 40 39 38 38 38 38 40 52 56 59 61 62 62 62 62 62 62
43 43 43 43 43 43 43 43 44 44 44 44 44 43 43 43 43 43 42 42 42 42 42 42 42 40 39 38 38 38 38 47 54 56 59 61 61 60 59 59 59 61
41 41 42 42 42 42 42 43 43 43 44 44 43 42 42 42 42 42 42 41 42 42 42 42 42 41 39 38 38 38 40 47 53 57 59 60 60 58 54 52 50 52
40 40 40 41 41 41 42 42 42 42 43 44 43 42 42 41 41 41 41 41 41 41 42 42 42 42 40 39 38 38 40 46 51 57 59 59 58 56 54 52 49 46
40 40 39 39 38 38 39 40 41 41 42 43 42 42 42 41 41 40 40 41 41 41 43 42 42 42 40 39 39 38 40 45 53 56 54 54 52 51 50 50 49 46
38 39 40 38 37 38 38 39 39 40 41 41 41 40 40 41 41 40 40 40 41 40 40 41 41 41 41 39 39 39 39 43 49 50 51 50 49 49 48 47 47 46

ECMWFNIL_sfc_dewp_093.txt.gz
Dewpoint
57 58 58 58 59 60 62 62 62 62 62 62 62 62 62 62 62 63 63 63 62 63 64 64 64 64 65 65 64 63 64 64 64 64 64 64 64 63 63 63 63 63
58 58 58 58 58 59 60 61 62 62 62 61 61 62 62 62 62 62 63 63 63 63 64 63 63 64 64 64 64 63 63 64 64 64 63 63 63 63 63 63 63 63
57 57 57 56 57 58 59 60 62 62 62 62 62 62 62 63 62 61 62 62 62 62 63 63 63 63 64 64 64 63 63 63 63 64 64 63 63 63 63 63 64 64
56 56 57 56 56 56 57 58 58 58 60 61 61 62 62 62 62 62 62 63 62 62 62 63 63 63 63 64 64 63 63 63 64 64 63 64 64 64 63 63 63 64
56 56 56 55 56 56 56 55 55 56 57 59 60 61 62 62 62 62 62 62 62 62 62 62 62 62 63 63 63 62 62 62 63 63 63 63 63 63 64 63 63 63
55 55 55 55 55 55 55 54 54 55 55 57 58 59 60 61 62 62 61 61 61 61 62 62 62 62 62 63 63 63 63 62 63 63 63 63 63 63 64 63 62 62
54 53 54 53 53 53 54 53 53 54 54 55 57 57 58 58 59 61 61 62 62 61 61 61 62 61 61 61 62 62 62 62 62 62 62 63 63 63 63 63 62 62
51 52 53 51 52 52 52 52 52 53 53 54 54 55 56 56 57 58 60 61 61 61 61 61 61 61 62 61 61 61 62 62 62 62 62 62 62 62 62 63 62 62
51 51 50 50 51 51 50 50 51 52 52 52 52 53 53 54 55 56 57 59 60 61 61 61 61 61 61 62 62 62 62 62 63 62 62 61 61 62 62 63 62 62
49 50 50 49 49 49 49 49 50 50 51 51 51 51 51 51 52 52 54 56 57 58 60 61 61 61 61 62 63 62 61 61 61 61 61 61 61 61 62 62 61 61
48 48 48 49 48 48 48 49 49 49 49 50 50 50 50 49 49 50 51 52 54 56 58 59 56 55 56 58 60 61 62 62 61 61 60 60 61 61 63 62 62 61
48 48 48 48 48 48 48 48 48 48 48 49 49 48 48 48 47 48 49 49 50 51 56 51 49 49 48 48 49 51 57 62 62 61 61 61 61 61 62 62 62 62
47 47 47 48 48 48 48 48 48 48 48 48 48 47 47 47 46 46 46 47 47 48 51 50 48 46 45 44 45 47 50 55 61 61 61 61 62 62 62 62 62 62
47 47 47 48 48 47 47 47 47 47 47 47 47 46 46 46 46 45 45 46 45 46 47 50 46 45 44 43 43 44 47 50 55 60 60 61 61 61 61 61 62 62
47 47 46 46 47 47 47 46 47 47 46 46 46 45 46 45 45 45 45 44 44 45 45 49 46 44 44 43 42 42 43 47 51 55 61 61 61 62 61 62 61 61
46 46 45 46 45 45 45 46 46 46 46 45 45 44 44 44 44 44 44 44 43 43 44 46 45 44 45 42 42 42 42 44 48 52 56 60 60 60 61 61 61 61
45 45 45 45 45 45 45 45 45 45 45 44 44 44 44 43 43 42 42 43 43 43 43 44 44 43 41 39 39 40 42 42 45 49 54 57 60 60 60 60 61 61
44 44 44 44 44 44 44 44 44 44 44 43 43 43 43 43 42 42 42 42 42 42 42 43 43 43 39 39 39 39 40 42 43 47 52 56 59 60 60 60 60 60
43 43 43 43 43 43 43 43 44 43 43 43 42 43 42 42 41 41 41 41 41 41 42 42 42 41 39 39 39 39 39 41 42 47 51 55 57 60 60 61 60 59
41 41 42 42 43 43 42 42 42 43 43 43 42 42 41 41 41 41 41 41 41 41 41 42 42 41 39 39 39 38 38 39 44 47 51 54 56 59 60 59 59 59
40 39 39 38 39 39 41 41 41 42 43 43 42 41 41 41 41 40 40 41 40 40 41 41 41 39 38 38 39 38 38 41 48 51 54 56 57 59 60 59 59 59
39 38 37 37 37 38 38 39 40 41 41 42 42 41 41 41 41 40 40 39 40 40 40 40 40 39 38 38 39 38 39 45 50 53 54 55 58 53 52 52 53 56
39 39 38 37 37 37 37 38 38 39 41 41 40 40 40 40 40 40 39 39 39 39 39 39 39 39 38 38 38 38 40 44 47 51 52 52 51 51 50 49 49 50
39 38 36 34 34 35 36 36 37 37 38 39 39 39 39 39 40 39 39 39 39 39 40 39 39 39 38 38 38 38 41 43 45 47 49 48 48 49 48 47 48 47
39 38 34 33 33 34 35 35 35 36 37 37 36 37 38 39 40 38 38 38 38 39 41 39 39 39 38 37 38 38 40 43 43 45 46 45 45 45 46 46 45 45
38 39 36 34 34 34 34 34 35 34 35 35 35 35 36 37 38 38 37 38 38 38 39 39 39 38 39 37 38 38 38 42 42 42 43 43 43 43 43 43 44 43

ECMWFNIL_sfc_dewp_096.txt.gz
Dewpoint
58 57 57 57 57 58 58 58 59 59 60 61 61 61 62 62 63 62 62 62 62 62 62 62 62 62 63 63 63 63 64 64 64 64 63 63 62 63 63 63 63 63
57 58 57 56 56 56 57 57 57 57 58 59 59 60 61 62 62 62 62 62 62 62 62 62 62 62 62 63 63 63 63 63 63 63 63 63 62 62 62 63 63 63
55 55 55 55 55 55 55 55 55 56 56 57 58 59 59 60 61 61 62 62 62 62 61 61 62 62 62 62 62 63 63 63 63 63 62 62 62 62 62 63 63 63
55 55 54 54 55 55 54 54 54 54 55 55 56 57 57 58 58 59 61 62 62 62 62 62 61 61 62 62 62 63 63 63 63 63 62 62 62 62 62 62 62 62
54 53 53 53 53 54 53 52 53 53 53 54 54 55 55 55 56 57 59 59 60 61 62 61 61 61 61 62 62 62 62 62 62 62 62 62 62 63 62 62 62 62
51 51 52 52 51 51 51 51 51 51 52 52 53 52 52 53 53 53 56 57 59 60 61 61 61 61 61 62 62 62 62 62 62 62 61 61 62 62 63 63 62 62
49 49 49 50 50 50 49 49 50 50 51 51 51 51 51 50 50 50 53 54 56 57 54 53 54 55 56 59 61 62 62 62 62 62 61 61 62 62 62 62 62 62
49 48 48 48 48 48 48 48 49 49 50 49 49 49 49 48 48 49 50 50 53 54 50 50 50 50 50 51 52 55 58 62 62 61 61 61 61 61 62 62 62 62
49 48 48 48 48 48 48 48 48 48 49 48 48 48 48 47 47 47 48 47 49 51 49 49 47 48 48 48 49 49 51 54 59 62 62 61 61 61 61 62 62 62
48 48 47 47 47 47 47 47 47 47 48 47 47 47 46 47 46 46 47 46 46 47 49 46 46 45 44 44 45 45 47 49 52 56 60 61 61 61 61 61 61 61
47 47 47 47 46 46 46 46 46 46 46 46 46 45 45 45 45 46 46 45 45 45 49 45 44 44 43 43 43 43 44 46 48 51 55 59 61 61 61 61 61 61
46 46 46 46 46 46 46 45 45 45 45 45 44 43 43 44 44 44 45 44 44 44 46 45 43 43 43 42 42 42 42 44 46 48 52 56 60 61 61 61 61 61
45 45 45 45 45 45 46 45 45 44 44 44 44 43 42 42 42 43 43 43 43 43 44 45 43 43 42 42 41 41 42 42 44 46 49 53 56 60 61 61 61 61
45 45 45 45 45 45 45 45 44 44 44 44 43 43 42 41 41 41 42 42 43 43 43 44 43 42 42 41 41 41 41 42 42 44 47 50 53 58 60 61 61 62
45 45 45 45 45 44 44 44 44 43 43 43 43 42 43 42 41 41 41 41 41 42 42 43 43 42 42 41 41 41 41 41 42 43 45 48 52 55 59 60 60 61
44 44 43 43 43 44 44 44 43 43 43 43 42 42 41 42 41 41 41 41 41 41 42 42 42 42 43 41 41 41 41 41 42 43 44 46 50 54 57 60 60 60
44 44 43 43 42 42 44 44 43 42 42 42 42 42 41 41 40 40 40 40 40 40 41 41 41 41 40 38 39 40 41 41 42 42 44 46 49 53 56 58 59 60
40 40 40 41 42 42 42 43 43 42 41 41 41 41 41 40 39 39 40 40 40 40 40 40 41 41 38 38 39 39 41 42 44 44 45 47 49 52 55 57 59 59
38 38 38 38 39 40 41 42 42 42 41 40 40 41 40 39 39 39 39 39 40 39 39 40 40 39 38 38 38 38 39 42 46 49 49 49 51 53 55 56 58 58
37 37 37 37 38 38 38 40 41 41 41 41 41 40 40 39 39 38 39 39 39 39 39 39 39 39 38 38 38 38 38 41 45 49 50 52 51 51 51 51 51 54
35 35 36 36 36 36 37 37 37 38 38 40 40 40 39 39 39 38 38 39 38 39 39 39 39 38 37 38 38 38 39 41 44 47 47 48 48 48 48 47 48 48
34 34 34 34 34 35 35 35 35 35 36 37 38 38 39 39 38 39 38 38 38 38 38 38 38 38 37 38 38 37 39 43 43 45 45 45 45 46 46 46 47 47
33 33 34 33 33 33 33 34 34 34 34 36 35 36 37 38 38 38 38 38 38 38 38 38 38 38 37 37 38 37 40 42 43 44 44 44 44 44 44 45 45 45
34 33 33 34 33 33 33 33 34 34 34 35 33 34 35 36 38 35 36 38 37 37 38 37 38 38 38 37 38 38 39 41 42 43 43 43 43 43 43 43 44 45
35 34 34 34 33 34 34 33 33 33 34 32 32 32 34 35 38 34 34 35 36 37 39 37 38 38 38 37 38 38 39 40 41 42 42 42 42 42 42 42 42 43
35 36 35 34 34 34 34 34 34 32 32 31 31 31 32 33 35 34 33 34 35 35 36 36 37 37 38 37 38 38 38 40 40 41 41 41 41 41 40 41 42 41

ECMWFNIL_sfc_dewp_099.txt.gz
Dewpoint
56 56 56 55 55 56 55 55 56 56 56 57 57 57 57 58 59 60 60 61 61 62 62 62 62 61 61 62 62 63 63 63 64 64 64 63 63 63 63 63 62 62
54 54 55 55 54 54 54 54 55 55 55 56 56 55 56 56 57 58 59 59 60 60 61 62 62 62 62 62 62 62 63 63 63 64 63 63 63 63 63 62 62 62
52 52 52 52 53 53 52 53 53 53 53 53 53 53 54 55 55 55 57 57 58 57 56 57 59 60 60 61 62 62 62 63 63 63 63 63 63 63 62 62 62 62
50 51 51 50 51 51 51 51 51 51 52 51 51 51 51 52 51 52 54 54 56 53 53 53 54 54 54 56 58 60 62 62 63 63 63 63 62 62 62 62 62 62
49 49 50 50 50 50 49 50 50 50 50 50 50 49 49 49 49 50 50 51 54 51 51 51 51 51 51 51 53 55 57 59 61 62 62 62 62 62 62 62 62 61
48 48 49 49 49 49 49 49 49 48 48 49 49 49 48 48 48 48 48 49 52 51 48 48 48 48 48 49 49 51 52 53 54 56 59 61 62 62 62 62 62 61
48 48 48 48 48 48 48 47 48 47 47 48 48 47 47 47 47 47 46 47 48 50 46 46 46 45 46 47 47 47 47 49 51 52 54 57 60 61 62 62 62 61
48 48 48 47 47 46 46 46 46 46 46 45 45 46 46 46 46 46 45 45 46 48 47 45 44 44 44 44 44 44 44 45 47 47 49 52 56 58 61 61 61 61
47 47 47 46 46 45 45 45 45 45 44 43 43 44 44 45 45 45 45 44 45 46 46 44 44 43 43 43 43 43 42 43 44 45 46 49 52 55 58 60 61 61
46 46 46 46 45 45 44 44 44 44 44 42 42 42 42 43 44 44 44 44 44 44 44 44 43 43 42 42 42 42 42 42 43 43 44 46 49 52 55 59 60 61
46 46 45 45 45 44 44 44 43 43 43 43 42 41 41 41 42 43 43 43 43 43 43 43 43 42 42 42 41 41 41 41 42 43 44 44 46 49 54 56 59 60
45 45 45 45 45 44 44 44 43 43 42 42 42 41 41 41 41 41 42 42 42 42 43 43 42 42 41 41 41 41 41 41 42 42 43 44 45 47 50 53 57 60
44 44 45 44 44 44 44 44 43 43 42 42 42 41 41 40 41 41 41 41 42 42 42 42 42 41 41 41 40 40 40 41 41 42 43 44 46 46 48 50 54 58
44 44 45 45 45 44 43 43 43 43 43 42 42 41 41 40 40 40 40 41 41 41 41 42 41 41 41 40 40 40 40 41 41 42 43 44 45 46 48 49 52 56
44 44 43 44 44 44 43 42 42 42 42 42 41 40 41 40 40 40 40 40 40 40 40 41 41 41 41 40 40 40 40 41 41 42 44 45 46 47 48 50 52 55
42 43 42 42 43 43 43 42 41 41 41 41 40 40 39 40 39 39 40 39 39 39 40 41 41 41 42 41 41 40 40 41 42 44 46 47 48 48 49 51 53 54
39 39 39 40 41 42 42 43 42 41 40 40 40 40 39 39 39 38 39 39 39 39 39 40 40 40 39 38 38 39 41 42 43 46 48 49 49 48 49 49 49 50
38 38 37 38 38 38 39 40 40 40 40 40 40 40 39 39 38 38 38 38 39 39 39 39 39 40 38 38 38 38 40 42 44 46 46 46 46 46 47 47 47 47
36 36 36 36 36 37 37 37 37 37 38 39 39 40 39 38 38 38 38 38 38 38 39 39 39 39 38 38 38 38 38 41 43 45 45 45 45 45 45 45 45 46
35 35 34 35 35 35 35 34 34 35 36 37 38 38 37 37 37 37 37 37 38 38 38 38 38 39 38 38 38 38 38 40 42 44 44 44 44 44 44 44 44 44
34 34 34 34 34 34 34 33 33 33 34 36 36 36 37 36 36 36 37 37 37 37 38 38 38 38 37 37 37 37 38 40 42 43 42 42 42 42 43 43 43 44
33 33 33 33 33 33 32 32 32 32 33 34 35 34 35 36 35 35 36 36 36 37 37 37 38 38 37 37 37 37 38 40 41 41 41 41 41 41 41 42 42 43
33 33 33 32 32 32 32 32 32 31 32 35 32 33 34 35 35 34 35 35 36 36 37 36 37 38 37 37 37 37 39 39 40 40 40 40 41 41 41 41 41 42
34 33 32 33 32 32 32 32 32 31 31 33 32 32 33 34 35 34 34 35 35 35 37 36 37 38 37 37 37 37 39 39 39 40 40 40 40 41 41 41 41 43
34 34 32 32 31 32 32 32 32 32 32 32 32 32 33 33 36 33 34 34 34 35 38 36 37 38 38 37 37 37 38 38 39 39 40 40 40 40 40 40 40 42
34 35 34 32 31 31 32 32 33 31 31 31 32 32 33 33 34 34 33 34 34 34 35 35 37 37 38 37 37 37 38 38 38 38 38 39 39 39 39 39 40 40

ECMWFNIL_sfc_dewp_102.txt.gz
Dewpoint
52 53 53 52 52 53 52 52 53 53 53 53 53 53 53 54 54 55 56 57 56 54 54 55 55 54 55 57 58 61 62 63 63 63 63 63 63 63 63 63 62 62
50 51 52 51 50 51 51 52 51 51 51 51 51 51 51 51 52 53 54 55 53 52 51 52 53 52 52 53 54 57 58 60 61 62 62 62 63 63 63 63 63 63
49 49 49 49 49 49 50 50 50 50 50 49 49 49 50 50 50 50 50 53 53 50 50 50 49 49 50 50 51 53 53 55 56 56 58 60 62 62 62 63 63 62
49 49 49 49 49 49 49 49 49 49 49 49 48 49 48 49 48 48 48 50 51 50 48 48 47 47 47 48 49 51 50 51 52 53 54 56 58 61 62 62 62 62
48 48 48 48 48 48 48 47 47 46 47 47 47 48 47 47 47 47 46 47 48 49 46 46 46 45 46 46 46 48 47 49 49 49 51 52 54 56 59 61 61 61
48 48 48 47 47 46 45 44 44 44 44 45 45 46 46 46 46 46 45 46 46 48 46 45 44 44 44 44 45 45 45 45 46 46 47 48 50 52 55 57 60 61
47 47 46 46 45 45 44 44 44 44 43 44 43 43 44 45 46 45 45 45 45 45 45 44 43 43 43 43 43 43 43 44 44 44 44 45 47 48 51 53 56 58
46 46 46 45 45 44 44 44 44 43 43 42 42 42 43 43 44 44 44 44 44 44 43 43 43 42 42 42 42 42 42 43 43 43 43 44 46 46 47 49 52 53
46 45 45 44 44 44 43 43 43 43 43 42 42 42 42 42 43 43 43 43 43 43 43 42 42 42 42 42 41 41 41 41 42 42 43 44 44 45 46 47 49 51
45 45 45 44 44 44 43 43 43 43 44 42 41 41 41 42 42 42 42 42 42 42 42 41 41 41 41 41 41 41 40 41 41 42 42 43 44 44 45 47 48 49
45 45 45 44 44 44 44 43 43 42 43 42 41 41 41 41 41 42 41 41 41 41 41 41 41 41 41 40 40 40 40 40 41 41 42 43 43 45 47 47 48 49
44 44 44 44 44 43 43 43 43 42 41 41 41 40 40 40 41 41 41 40 40 40 41 40 40 40 40 40 40 40 40 41 41 42 42 43 44 45 46 47 48 49
44 44 44 43 43 42 42 42 42 42 41 40 41 40 40 39 40 40 41 40 40 40 40 40 40 40 40 40 39 40 40 41 41 42 43 44 45 46 48 48 49 50
43 43 44 44 44 43 42 42 41 41 41 41 41 40 40 39 39 39 40 40 40 40 40 40 40 40 40 39 39 40 41 41 42 43 45 46 47 47 47 48 49 49
42 42 42 42 43 42 42 41 41 41 41 41 40 40 41 39 39 39 39 39 39 39 39 40 40 40 40 39 39 40 41 41 42 43 45 45 45 45 45 45 45 46
39 39 39 39 39 40 40 40 40 40 40 40 39 39 39 40 38 39 39 39 39 39 39 40 40 40 41 40 40 40 41 42 43 44 44 44 44 44 43 44 44 44
37 37 37 37 37 37 37 37 38 39 38 38 38 38 38 38 38 38 38 38 38 38 38 39 39 40 39 38 38 39 41 42 42 43 43 43 43 42 42 42 43 43
36 35 35 35 35 35 35 35 36 36 37 37 37 37 37 37 37 37 37 37 38 38 38 39 39 40 37 38 38 38 40 41 42 42 42 42 42 41 41 41 42 42
34 34 34 34 34 34 34 34 34 34 35 36 36 37 36 36 36 36 37 37 37 37 38 38 38 39 37 38 38 37 38 40 41 42 41 41 41 41 41 40 41 42
34 34 33 33 33 33 33 33 33 33 34 35 36 36 36 35 35 36 36 36 37 37 38 37 38 39 37 37 37 37 37 39 40 41 41 40 40 40 40 40 41 41
33 33 33 32 32 32 33 32 32 33 34 35 34 35 35 35 35 35 36 36 36 37 37 37 38 38 37 37 37 37 37 39 39 40 40 40 40 40 39 39 40 41
32 32 32 32 32 32 32 32 32 32 33 34 35 34 34 35 35 35 35 35 36 36 37 36 37 37 37 37 37 37 38 39 38 39 39 39 39 39 39 39 40 40
32 32 32 32 32 32 31 32 32 32 33 35 33 34 34 34 35 34 35 35 36 36 37 36 37 38 37 37 37 37 38 38 38 38 39 38 38 39 38 38 39 39
32 32 32 32 32 31 32 32 32 32 33 34 33 33 34 34 36 34 35 36 36 36 38 36 37 38 37 37 37 37 38 37 37 37 38 38 38 38 38 38 39 41
33 32 31 31 31 32 32 32 32 33 34 33 33 33 34 34 37 34 34 35 35 36 39 37 37 38 38 37 37 37 38 37 37 37 37 37 37 37 38 38 38 39
34 34 33 32 31 32 33 33 34 33 32 33 33 33 34 34 35 34 34 35 35 35 36 36 37 37 38 37 37 37 37 37 37 37 37 37 37 37 37 37 37 38

ECMWFNIL_sfc_dewp_105.txt.gz
Dewpoint
53 53 53 53 52 53 53 53 53 53 53 52 52 52 52 53 53 54 55 55 53 52 52 52 52 52 52 53 53 55 56 57 57 58 58 59 59 61 61 61 61 62
52 52 52 52 51 52 52 52 52 52 52 52 52 52 52 52 52 52 53 53 53 51 50 50 50 50 50 50 51 52 53 53 54 54 54 56 57 58 59 60 62 62
51 51 51 51 50 51 51 51 51 51 50 50 51 51 51 52 51 50 51 51 52 50 49 49 49 48 48 49 49 50 50 50 51 51 52 53 55 55 56 57 58 60
50 50 50 49 49 49 49 49 49 49 49 49 49 50 50 50 50 50 50 50 49 49 48 48 48 47 47 47 48 48 49 49 49 49 50 51 52 52 53 54 56 56
49 48 48 47 47 47 47 47 46 47 47 47 48 48 49 49 48 48 48 48 47 46 46 45 45 45 46 46 46 46 47 46 47 47 47 48 50 51 51 52 52 53
48 46 46 46 46 47 46 46 45 45 46 46 46 46 47 47 46 46 46 46 45 45 44 44 44 44 44 45 45 45 45 45 46 46 46 47 48 49 50 50 51 51
47 46 46 46 46 46 46 46 46 46 45 46 45 45 45 45 45 44 44 44 44 44 43 43 43 44 44 44 44 44 44 45 45 45 44 45 46 47 48 49 49 50
46 47 46 46 46 46 45 45 45 45 45 45 45 44 44 44 44 44 44 43 43 42 42 42 42 42 43 43 43 43 44 44 44 44 44 45 46 46 47 48 49 49
46 46 46 46 46 45 45 44 45 45 44 44 43 43 43 44 43 43 43 42 41 42 41 41 42 42 43 42 42 42 42 43 44 44 44 45 45 45 46 47 48 49
46 45 45 45 45 45 45 44 44 44 44 43 43 43 42 43 43 42 42 42 42 41 41 41 41 41 41 41 41 42 42 42 43 44 45 45 46 46 46 47 48 48
44 44 44 44 44 44 44 44 44 43 43 42 42 42 42 42 42 42 41 41 42 41 40 40 41 41 40 41 41 42 42 43 43 44 45 45 46 47 48 47 47 47
44 44 43 44 44 44 44 44 44 43 42 43 41 41 42 41 41 41 41 39 39 40 40 40 40 41 40 40 40 41 42 43 44 44 45 45 46 46 45 46 46 46
44 44 43 43 43 43 43 42 42 43 42 41 42 41 41 41 40 40 40 40 40 40 40 40 40 40 40 40 40 41 42 43 44 45 45 45 45 44 44 45 45 45
43 43 42 42 42 42 42 42 42 41 41 41 42 42 41 40 39 39 40 39 39 39 40 40 40 39 39 39 40 41 42 43 43 44 44 44 44 44 44 44 43 44
42 42 41 41 40 41 41 41 41 41 41 40 41 41 42 40 40 39 39 39 38 39 38 40 40 40 40 39 39 40 42 42 43 43 43 43 43 42 43 42 42 43
39 40 39 40 40 40 40 40 40 41 41 40 40 40 40 40 40 40 39 39 38 39 39 40 40 40 41 40 40 40 41 42 43 43 42 42 42 42 42 42 42 42
38 37 37 38 39 39 39 39 39 40 40 40 40 40 40 40 40 39 40 39 39 39 39 39 39 39 38 37 38 38 40 42 42 42 42 42 41 41 41 41 41 41
36 36 36 37 37 37 38 38 39 39 39 39 40 40 40 41 40 40 40 40 40 39 39 39 39 39 37 38 38 37 39 41 41 42 42 41 41 40 40 40 40 41
35 34 35 36 37 37 38 38 38 38 39 39 40 41 40 40 40 40 40 40 39 38 38 38 39 38 37 38 37 37 37 39 39 41 41 41 40 40 40 40 40 40
34 34 35 36 37 37 37 37 38 38 39 39 40 40 40 40 40 40 40 38 38 38 38 37 38 38 37 37 37 37 37 37 39 40 41 40 40 40 40 39 39 40
34 35 35 36 36 37 37 37 38 39 38 39 39 39 39 39 39 39 40 38 38 38 37 37 38 38 37 37 37 37 37 37 39 40 40 40 40 40 39 39 39 40
34 35 36 35 36 36 37 37 38 39 39 39 39 39 39 39 39 39 39 38 38 38 38 37 39 37 37 37 37 37 37 38 37 38 39 38 39 39 39 39 39 39
34 35 36 36 36 36 36 37 38 38 39 39 38 38 38 38 39 38 38 37 38 37 37 38 38 38 37 37 37 37 37 37 37 37 38 38 38 38 38 38 38 39
34 34 35 35 35 36 37 37 38 38 38 39 38 37 37 38 38 37 38 37 37 38 38 37 39 39 37 37 37 37 38 37 36 37 38 37 37 38 38 38 38 40
34 35 35 35 35 36 37 37 37 38 38 39 38 38 38 37 37 36 37 38 39 39 39 39 39 38 37 36 37 37 38 38 36 36 37 37 36 36 37 37 37 38
35 36 36 35 35 36 37 37 37 37 38 38 38 36 36 36 36 36 37 37 38 39 39 39 39 39 38 36 37 37 37 38 37 36 37 36 36 36 36 37 37 37

ECMWFNIL_sfc_dewp_108.txt.gz
Dewpoint
55 55 55 54 54 54 54 54 54 54 54 53 53 53 52 54 53 54 54 54 54 53 53 53 53 53 53 53 54 54 54 55 55 56 55 56 56 58 57 58 58 57
54 54 53 53 53 53 53 53 53 53 53 53 53 53 54 53 53 53 53 53 53 52 52 51 51 51 51 51 52 52 52 53 53 53 53 54 54 55 56 57 57 57
53 53 52 52 52 53 53 53 53 53 52 52 53 53 52 53 52 52 52 52 51 50 49 50 50 49 49 49 50 50 50 50 51 51 51 52 53 54 54 55 55 56
51 51 51 51 51 51 52 52 52 52 52 51 51 51 51 51 51 51 50 50 49 49 49 49 49 48 47 48 49 48 50 49 49 50 50 51 52 51 52 53 53 53
51 50 50 50 50 50 51 50 50 49 49 49 50 50 49 49 49 48 48 48 48 48 48 48 48 48 47 47 48 48 49 48 49 49 48 49 50 51 51 51 51 52
50 47 48 48 50 50 50 49 49 49 47 49 49 48 48 48 47 46 47 47 46 46 46 47 46 47 47 47 47 48 48 48 48 48 47 48 49 49 50 50 50 50
50 49 50 49 50 50 50 49 49 50 48 49 48 48 47 47 46 45 45 45 45 45 45 45 45 46 47 47 46 46 47 48 47 47 47 47 48 49 49 50 49 49
49 48 48 49 50 49 49 47 48 49 49 49 48 47 46 45 44 45 45 45 44 43 44 44 44 44 45 46 45 46 47 47 47 47 47 47 48 47 48 49 50 49
48 48 47 49 49 49 48 47 47 48 47 48 46 46 46 45 45 45 44 43 43 44 43 43 43 43 45 44 44 44 44 46 47 46 47 47 47 47 46 48 48 49
47 47 48 49 48 48 48 48 47 47 46 46 46 46 45 45 45 43 43 43 43 42 41 41 41 42 42 43 43 43 43 44 44 46 46 46 46 46 46 46 47 47
47 48 48 48 48 47 48 47 47 46 46 44 45 45 44 44 44 44 43 42 42 40 40 40 40 40 40 41 43 44 43 44 44 44 45 45 46 45 46 45 45 45
47 47 47 47 47 47 47 47 46 46 45 45 44 44 44 44 44 43 41 39 38 39 40 39 39 40 40 40 41 43 43 44 44 44 44 44 44 44 44 44 45 44
46 46 45 46 46 46 45 44 44 45 44 43 44 43 43 42 42 41 42 40 39 40 39 39 40 40 40 41 41 42 42 42 43 44 43 44 44 43 43 44 43 43
44 45 45 44 44 44 44 44 43 43 43 43 44 43 42 41 40 41 40 39 40 39 40 40 40 40 40 40 40 41 43 41 42 43 42 42 44 42 43 43 43 43
44 44 43 43 42 43 43 43 43 43 42 42 42 43 43 41 41 40 40 39 39 40 39 41 41 41 41 40 40 40 43 40 41 41 42 41 41 41 42 41 41 42
41 42 41 42 42 42 42 42 42 42 42 41 41 41 41 41 41 42 40 40 39 39 41 42 41 41 39 39 39 40 42 40 41 41 40 41 41 41 41 41 41 41
40 40 39 39 40 41 41 40 40 41 41 41 41 41 42 42 42 41 41 41 40 40 40 41 41 39 38 37 38 39 41 42 39 39 40 40 40 40 39 40 40 40
38 38 38 38 38 38 39 39 40 40 40 41 42 42 42 44 43 42 42 42 41 40 40 41 41 39 37 37 38 37 39 43 40 40 40 40 40 39 39 39 40 40
37 37 37 37 37 38 39 39 38 39 40 40 41 42 43 43 42 42 42 42 41 40 40 39 39 38 37 37 37 37 37 40 38 38 39 39 39 39 39 40 40 40
36 36 36 37 38 38 38 37 39 39 41 41 41 41 42 42 43 43 42 41 41 41 40 40 39 38 37 37 37 37 37 38 38 38 39 39 38 39 40 39 40 40
36 36 36 37 37 38 39 39 40 41 40 40 40 40 41 40 41 41 42 42 41 41 40 41 40 37 36 36 36 37 37 38 39 37 38 39 39 39 39 39 39 40
36 36 37 37 37 37 38 39 40 41 40 40 40 40 41 40 40 40 40 40 41 41 40 40 39 36 36 36 36 36 37 40 38 38 37 37 38 38 38 38 39 39
35 35 36 36 37 38 38 39 39 40 40 39 39 40 39 39 40 39 40 40 39 40 40 39 39 37 36 36 36 36 39 39 38 35 34 37 37 37 37 38 39 39
34 34 35 37 37 37 38 39 39 39 40 39 38 39 38 39 38 38 39 39 39 39 39 39 38 38 36 36 36 36 38 39 37 36 37 36 36 37 37 37 38 42
35 35 36 37 37 38 39 39 39 39 39 39 38 38 39 38 37 38 39 39 39 39 39 39 38 37 36 36 36 36 38 40 36 35 35 35 35 34 36 36 36 38
36 37 37 36 36 38 38 38 38 39 40 39 38 36 37 37 37 38 38 38 39 39 38 38 38 37 38 35 36 36 36 39 37 34 35 34 33 32 33 36 36 36

ECMWFNIL_sfc_dewp_111.txt.gz
Dewpoint
56 56 56 55 55 55 55 55 54 54 54 55 54 54 53 54 54 54 54 54 54 53 52 53 53 53 53 53 53 52 52 53 53 53 53 53 54 54 54 54 55 55
55 55 54 54 54 54 54 54 54 54 53 54 54 53 53 53 53 53 52 52 52 52 52 52 52 51 51 51 52 51 51 51 52 51 52 52 52 53 53 53 54 53
54 54 54 54 53 54 53 54 54 53 53 53 53 53 52 52 52 52 52 52 52 51 51 51 51 50 50 51 51 51 50 50 50 50 51 50 51 51 52 52 52 53
53 53 53 53 53 53 53 53 53 52 53 52 51 51 51 52 52 51 51 51 50 50 51 50 50 50 49 50 51 50 50 49 49 50 50 50 50 50 50 51 51 51
52 52 51 51 51 51 51 51 51 50 51 50 51 52 51 51 50 49 50 49 50 49 50 49 49 50 50 50 49 49 49 48 49 49 48 48 50 49 49 49 50 50
51 49 49 50 50 51 51 50 49 49 49 51 51 50 50 49 48 48 48 48 47 47 47 47 47 48 49 48 48 48 48 47 48 48 47 47 48 48 48 49 49 48
50 51 50 49 50 50 51 51 50 50 51 50 49 49 49 48 47 47 46 46 44 44 44 44 45 46 48 48 47 47 46 47 45 46 46 46 47 47 47 48 48 47
50 50 50 49 49 50 50 50 51 51 51 49 49 48 47 46 46 46 45 44 43 41 42 41 42 43 45 46 46 46 46 46 46 44 44 45 46 45 46 47 48 46
49 49 49 49 50 50 49 49 50 50 48 49 47 46 47 46 45 44 43 42 41 41 40 40 40 41 43 44 45 45 44 45 45 44 44 44 45 44 43 45 45 46
48 47 48 49 50 49 49 49 48 48 47 47 46 46 45 45 44 41 41 41 41 39 39 38 39 40 41 43 44 44 44 44 43 44 43 43 44 43 43 44 44 44
47 47 48 50 49 48 48 48 48 47 46 45 46 45 44 44 43 41 40 40 40 38 38 38 39 40 41 42 43 45 44 44 43 42 43 42 43 43 45 44 43 43
46 48 48 48 48 48 48 47 46 47 46 45 43 43 44 43 43 41 39 38 37 37 38 38 39 40 41 41 42 43 44 44 44 43 42 41 41 43 42 43 43 42
47 47 47 47 47 47 46 45 45 46 44 43 43 42 42 41 40 40 40 39 38 38 38 39 40 40 41 42 42 42 42 42 42 42 42 42 41 40 41 42 41 41
46 46 46 45 45 45 44 44 43 44 44 44 43 42 42 40 40 40 40 38 39 39 39 40 39 39 40 40 41 42 43 41 41 41 41 40 42 39 40 40 41 41
45 45 45 44 43 44 44 43 42 43 42 42 42 42 43 41 40 39 39 38 38 39 38 39 40 41 41 41 40 40 41 41 40 39 40 39 39 38 40 40 40 40
43 44 43 43 43 42 42 42 41 42 42 41 41 42 42 42 41 40 38 38 38 38 39 41 40 41 40 39 39 40 41 44 40 40 39 38 39 40 40 40 40 40
41 41 41 41 41 41 41 40 40 41 41 41 43 43 43 42 42 41 40 39 37 38 39 40 40 39 38 37 37 39 41 43 39 39 38 38 39 39 39 39 40 39
39 39 39 39 39 38 38 38 40 40 41 41 42 43 43 43 43 42 42 41 39 38 39 39 39 38 36 37 37 37 38 42 40 39 39 38 38 38 38 39 39 39
37 38 38 38 38 38 39 39 39 39 40 40 41 43 43 43 42 43 42 42 40 38 39 38 38 37 36 37 37 36 37 40 38 38 37 37 38 38 38 38 38 38
36 37 37 37 38 38 39 38 39 39 41 41 42 42 42 41 43 43 43 41 40 39 38 38 37 37 36 36 36 36 36 38 37 38 38 37 36 37 38 38 38 37
36 36 37 37 37 38 40 39 39 40 39 39 40 40 40 40 41 42 43 42 41 39 39 38 38 36 36 36 36 36 36 40 39 38 37 37 37 37 37 38 38 38
36 37 38 37 38 39 39 39 40 40 40 40 39 39 40 40 40 41 41 42 42 40 38 37 37 35 35 36 36 36 36 40 38 38 37 36 36 35 35 39 37 37
36 37 37 37 37 38 38 40 40 39 39 39 39 39 39 39 40 39 40 40 41 41 39 37 36 36 35 36 35 36 38 40 38 35 35 36 36 36 34 38 38 36
36 36 36 37 37 37 38 39 39 39 39 39 39 38 38 39 39 39 38 38 39 39 39 38 36 36 35 36 35 36 37 40 37 37 36 35 36 36 36 36 41 42
37 37 38 37 37 38 39 39 38 38 38 39 38 38 38 38 38 39 39 38 38 38 40 39 37 36 36 35 35 35 37 39 36 36 37 36 35 35 36 35 35 39
38 38 38 37 37 38 38 39 39 39 40 39 38 36 36 36 37 39 39 39 39 37 36 37 38 36 37 35 36 36 36 38 38 37 38 37 35 33 33 34 34 35

ECMWFNIL_sfc_dewp_114.txt.gz
Dewpoint
58 57 57 56 56 57 57 56 56 55 56 55 55 54 54 55 54 55 55 54 54 54 54 53 53 53 53 53 54 53 52 53 52 51 52 53 53 53 52 52 52 51
57 57 56 55 55 56 56 56 55 54 54 55 55 55 55 54 54 53 54 53 52 52 52 52 52 51 52 51 53 52 52 51 50 51 51 50 51 51 52 52 52 52
56 56 56 55 54 55 55 55 55 55 55 54 55 55 54 55 54 55 54 54 52 53 53 52 52 51 51 51 51 51 50 50 49 50 50 50 51 51 51 52 51 51
55 55 54 54 54 54 55 54 54 54 54 54 53 53 53 53 55 54 53 52 52 51 51 50 50 51 50 50 50 50 49 49 48 49 49 50 50 49 50 50 50 49
54 53 53 53 54 54 54 52 52 52 53 53 53 52 53 54 52 50 51 50 49 48 48 48 49 49 50 49 49 50 49 49 48 49 49 48 48 49 49 48 47 47
52 50 51 51 52 53 52 51 51 51 51 52 52 52 51 51 49 47 47 46 45 45 45 45 45 47 48 48 49 49 48 48 48 47 45 46 46 47 47 47 46 45
51 51 51 51 51 52 52 51 52 51 51 51 50 51 51 49 46 45 43 44 42 42 41 42 43 45 47 48 47 47 48 47 46 45 44 45 45 45 45 45 44 43
51 51 50 51 51 51 52 51 51 51 51 50 50 49 48 45 44 45 44 42 41 39 40 40 42 43 45 46 46 47 46 47 46 45 44 44 44 43 43 44 44 43
50 50 50 51 51 51 51 50 50 50 48 49 48 47 46 44 44 43 41 40 39 40 39 41 41 42 44 45 46 45 44 45 45 44 44 43 42 42 42 42 42 42
49 50 51 51 51 50 49 49 49 49 48 47 46 45 43 44 42 40 40 40 39 39 39 40 42 42 43 44 44 44 43 43 42 43 42 42 42 41 41 41 41 41
49 49 50 50 50 50 50 49 49 47 48 45 46 45 44 43 42 40 39 39 40 39 39 40 41 41 42 43 43 45 43 43 42 42 42 41 41 41 42 41 40 40
48 49 49 49 49 49 48 48 48 47 46 46 43 42 43 42 42 41 39 37 38 38 39 39 40 40 40 41 41 43 45 43 43 42 41 40 40 40 40 40 40 40
47 48 49 48 48 48 48 47 46 47 44 43 44 43 42 41 40 40 40 39 38 39 39 39 40 39 40 40 41 41 43 45 42 41 41 41 40 40 40 40 40 40
47 47 47 47 46 46 46 46 46 45 45 45 44 43 42 39 39 39 40 38 39 39 39 40 39 39 39 39 40 40 42 45 41 41 40 40 40 39 40 39 39 39
47 46 46 45 44 44 44 44 44 44 44 44 44 44 44 40 39 38 37 38 38 39 38 39 40 40 40 39 39 40 41 43 41 39 40 40 39 39 39 38 38 38
44 45 43 44 43 43 43 43 43 44 44 44 43 43 43 42 39 39 37 37 38 38 38 40 40 40 40 39 39 40 41 42 44 40 39 39 39 39 39 39 38 38
43 43 42 42 42 43 43 42 42 44 44 44 44 44 45 44 41 38 38 38 37 37 38 39 39 38 38 37 37 38 40 41 44 41 41 40 39 39 38 38 38 37
42 41 40 41 41 40 41 41 43 43 43 43 44 44 45 45 44 40 39 39 38 37 37 38 38 38 36 37 37 37 38 41 45 43 44 42 40 38 38 37 37 38
39 39 38 39 39 39 41 41 41 41 42 43 43 45 45 44 43 43 41 40 38 36 36 36 36 37 36 37 36 36 37 40 42 43 43 42 41 39 39 38 37 39
38 38 38 39 40 40 41 40 40 41 43 43 43 44 44 45 44 43 41 40 38 37 37 36 36 37 36 36 36 36 36 38 42 45 44 40 39 40 40 38 38 38
38 38 38 39 39 40 41 40 41 42 42 43 43 43 44 44 44 43 42 40 39 38 36 37 37 36 35 35 35 36 36 41 43 43 42 41 40 41 40 39 37 37
37 38 39 39 40 40 40 40 42 41 41 42 42 43 43 43 44 44 43 41 40 38 37 35 35 35 35 35 35 35 37 43 44 40 40 41 39 41 40 39 38 36
38 38 39 39 39 39 39 41 42 42 42 42 42 42 41 41 42 41 41 42 41 39 37 35 35 35 35 35 35 35 38 42 42 39 38 38 39 41 41 39 40 36
37 37 38 39 39 39 41 42 42 43 42 43 42 41 40 39 39 38 39 40 40 40 38 36 36 36 35 35 35 35 37 40 39 39 40 39 37 39 39 42 42 42
38 38 38 39 39 40 41 41 42 42 43 44 44 42 42 40 38 38 38 38 38 40 43 39 37 38 36 35 35 35 37 38 38 37 38 39 38 36 38 37 36 40
40 40 40 39 39 40 40 41 41 41 42 42 43 39 39 40 40 39 39 38 39 38 40 40 40 40 38 35 35 35 36 38 36 35 35 36 37 35 35 34 36 34

ECMWFNIL_sfc_dewp_117.txt.gz
Dewpoint
55 55 55 55 55 55 55 54 55 54 53 53 53 53 52 52 53 52 53 52 52 51 51 51 51 51 51 50 50 50 50 49 50 50 50 50 49 50 50 49 49 49
55 55 55 54 54 54 54 54 54 53 53 53 53 52 52 51 51 52 52 51 52 51 51 51 51 50 50 49 49 49 48 48 47 51 49 48 49 49 47 47 48 47
54 54 54 54 53 53 53 53 52 52 52 52 52 52 52 53 51 51 52 51 49 50 49 49 50 50 49 49 49 48 48 47 47 48 50 48 48 47 46 45 46 46
53 53 53 53 53 52 53 52 53 53 53 52 52 52 53 53 51 49 48 50 47 47 48 48 48 49 49 49 49 48 48 47 47 48 46 46 48 46 45 45 46 44
52 53 53 53 53 53 53 52 52 51 50 50 50 52 51 48 47 46 45 45 45 45 45 45 46 47 48 48 48 47 48 46 45 45 44 44 44 44 44 44 43 43
52 51 52 52 52 51 51 51 51 51 50 50 50 50 48 45 44 43 44 42 42 43 43 44 45 46 47 47 47 46 46 45 44 43 43 43 42 43 43 43 42 42
51 51 51 51 51 51 50 50 50 50 50 50 49 47 45 45 44 42 41 42 41 43 42 43 44 44 46 46 45 45 45 44 43 43 42 42 43 42 42 42 42 41
50 50 50 50 50 50 50 50 50 50 49 47 44 44 43 42 41 42 41 41 41 41 42 43 43 44 44 45 45 44 44 45 43 42 42 42 41 41 41 42 41 40
50 50 51 51 50 49 48 48 48 47 47 44 44 43 42 41 40 40 41 41 41 42 42 42 42 42 43 43 44 43 42 42 43 42 41 41 40 40 40 41 40 41
50 50 50 50 50 50 49 49 48 46 44 42 41 41 40 40 39 40 40 40 41 41 41 41 41 41 41 42 43 44 42 41 41 41 40 40 40 40 39 40 40 40
49 49 49 49 48 48 47 47 46 46 45 43 43 43 42 41 41 40 39 40 41 40 40 40 40 40 40 41 42 43 43 41 41 40 40 40 40 40 43 39 40 40
48 48 48 48 47 46 46 45 45 44 43 43 41 40 40 41 40 40 40 39 40 40 40 39 39 39 39 40 40 42 43 42 41 41 40 40 39 39 39 39 39 40
48 47 47 47 47 47 46 44 44 43 42 42 42 41 40 40 40 40 40 39 40 40 40 40 39 39 38 39 39 40 42 42 40 40 40 40 39 39 39 39 39 41
47 47 46 47 46 45 45 44 44 44 44 43 42 40 40 39 39 40 40 39 40 40 40 41 39 38 38 38 39 39 42 42 40 40 40 39 39 38 39 38 40 41
46 45 45 44 44 43 43 43 43 43 43 43 42 40 40 38 39 39 39 39 39 39 39 39 39 39 39 39 39 39 41 42 40 39 40 39 38 37 38 38 39 40
45 45 44 43 43 43 43 43 43 43 43 42 41 40 39 39 39 39 38 38 38 38 38 38 38 39 39 39 39 39 39 41 41 40 39 39 38 37 37 38 39 40
43 42 42 42 43 42 43 44 44 44 43 43 43 40 39 39 38 37 37 36 36 36 37 38 38 38 38 37 37 39 40 40 41 40 39 38 38 37 37 38 39 39
42 42 42 42 42 42 42 42 43 43 43 43 43 42 40 39 38 37 37 36 36 35 35 36 36 39 36 37 37 37 39 41 42 40 40 39 38 37 37 38 38 39
41 41 41 41 41 42 43 42 43 43 42 42 42 42 41 40 39 39 37 37 35 34 35 35 35 37 36 37 37 37 38 42 42 39 39 39 38 37 37 37 36 37
40 40 40 41 41 41 41 41 41 42 42 43 43 43 42 40 38 38 38 38 37 35 34 34 34 37 36 36 36 37 38 41 42 40 39 39 39 38 38 37 35 34
40 40 40 40 40 40 41 41 41 41 42 42 42 42 41 39 38 38 38 37 36 35 34 33 35 36 35 35 36 37 39 41 39 41 40 39 39 38 37 36 34 34
40 40 40 40 40 40 41 41 40 40 40 41 41 41 41 42 42 40 37 35 35 34 33 32 34 35 35 35 36 37 39 41 40 39 40 40 40 39 38 36 35 33
39 40 40 40 40 40 39 39 39 40 40 41 40 39 39 39 39 40 40 38 37 35 34 33 33 35 35 35 35 37 37 37 37 37 38 38 39 39 38 37 38 38
40 40 40 40 39 39 40 40 40 40 40 40 38 37 37 37 38 38 38 39 36 35 35 34 34 36 35 35 35 36 37 35 35 35 35 36 37 37 38 37 37 39
40 40 39 39 40 40 40 39 39 40 41 40 38 37 37 37 38 36 37 37 37 38 42 36 35 36 35 35 35 36 37 35 34 32 33 34 36 36 35 34 34 37
40 40 40 40 40 40 40 40 41 40 40 39 38 37 37 37 37 36 36 36 37 37 38 36 35 34 36 35 35 35 36 37 35 32 33 34 34 38 35 34 34 34

ECMWFNIL_sfc_dewp_123.txt.gz
Dewpoint
58 57 57 56 55 54 53 52 52 51 51 51 50 50 50 50 51 50 49 50 49 48 48 48 48 47 47 46 46 46 46 45 45 43 43 43 42 42 42 41 41 41
56 56 56 55 54 54 53 52 52 51 50 50 50 50 50 49 48 48 48 48 48 48 48 47 47 46 45 44 44 44 44 44 43 45 42 42 42 41 41 41 42 42
55 55 54 53 52 52 52 52 51 51 50 50 50 49 49 48 47 47 47 46 46 46 46 46 45 45 44 43 43 42 42 42 42 42 43 41 42 41 41 41 41 41
54 54 53 52 52 52 52 51 51 51 50 48 47 47 47 47 46 45 46 48 45 45 45 45 44 44 43 43 42 42 42 42 42 42 41 42 42 41 41 41 41 40
53 53 53 52 52 52 51 51 50 49 47 46 45 46 46 44 44 44 44 44 44 44 44 44 44 43 43 42 42 42 42 41 42 41 41 41 41 41 41 40 40 39
53 52 52 52 52 51 50 49 47 45 44 43 44 45 44 44 44 44 44 43 43 43 43 43 43 43 42 42 41 41 41 41 41 41 40 40 40 40 40 40 39 39
52 52 52 51 51 50 48 46 45 44 43 43 43 43 43 43 43 43 43 43 43 44 43 42 42 42 42 41 41 40 40 40 40 40 39 40 40 39 39 39 40 39
51 51 51 50 49 48 46 44 43 42 43 42 42 43 43 43 43 43 42 42 42 42 42 42 41 41 41 40 40 40 40 40 40 39 39 39 39 38 39 39 38 38
50 50 49 49 47 44 42 42 42 41 42 41 42 42 43 42 42 41 41 41 41 41 41 41 41 40 40 40 40 39 39 40 40 39 39 39 38 39 38 38 38 39
49 49 48 46 44 42 41 41 41 41 42 41 41 41 41 42 41 41 41 41 41 41 41 41 41 40 40 39 39 39 39 39 39 39 40 40 39 39 38 38 37 36
48 48 46 44 42 41 40 40 40 41 41 40 41 41 41 41 41 40 40 40 40 40 40 40 40 40 40 40 40 39 39 39 39 39 39 39 40 40 43 38 38 37
47 46 44 42 41 41 40 40 40 40 40 41 40 40 40 40 40 40 40 39 39 39 39 40 40 40 40 40 39 39 39 39 39 39 39 39 39 39 39 39 38 38
47 45 43 42 42 41 40 40 40 40 40 40 41 40 40 39 39 39 40 39 39 39 39 39 39 39 39 39 38 38 38 38 38 38 39 39 38 38 38 38 38 38
46 45 43 42 41 41 40 40 40 40 40 40 40 39 39 39 39 39 40 39 39 39 40 40 39 39 39 39 39 39 39 38 38 38 38 37 38 37 38 37 38 37
45 44 43 42 41 41 40 40 39 39 39 39 39 39 40 38 38 38 38 38 38 38 39 39 39 39 39 38 38 38 38 38 38 37 37 37 36 36 36 36 35 36
44 44 42 41 41 40 40 39 39 39 39 39 38 38 38 38 37 37 37 37 37 37 38 38 38 39 42 43 42 38 37 37 38 37 37 36 35 34 33 34 33 34
43 42 42 41 40 39 39 39 38 38 37 37 37 37 37 39 36 36 36 36 36 36 36 37 37 38 39 39 40 41 38 37 37 36 36 35 35 33 33 34 33 33
42 42 41 40 39 38 38 37 37 37 36 36 36 36 37 36 35 35 35 35 36 36 36 36 37 39 37 39 40 39 40 39 37 36 37 35 34 33 33 33 33 34
42 41 40 39 39 38 37 36 36 36 36 35 35 36 35 34 34 34 34 35 35 35 36 36 36 38 38 39 39 39 39 39 37 36 36 35 34 33 33 33 33 35
42 41 40 39 39 37 36 35 35 35 35 36 36 36 34 34 34 34 34 34 35 36 36 36 36 39 38 39 39 38 38 39 36 36 36 36 36 35 35 34 34 35
43 41 40 40 39 38 36 36 36 37 37 36 35 34 34 33 33 33 34 36 35 35 36 36 36 38 38 39 38 38 38 39 37 38 37 36 35 36 35 35 35 36
42 42 41 40 40 38 38 37 37 36 35 35 35 34 34 34 34 34 34 34 34 34 34 34 34 37 38 38 38 38 39 40 37 36 35 36 35 35 36 35 34 35
44 43 42 40 40 39 38 38 36 36 36 36 34 33 33 33 33 33 34 33 34 33 33 33 33 36 37 38 38 38 38 37 36 36 35 34 33 35 34 34 34 36
42 43 42 41 40 39 38 37 37 36 36 36 33 33 33 33 34 33 33 34 32 32 32 33 32 36 36 36 36 37 38 35 34 34 32 33 33 33 33 32 34 39
43 42 42 41 40 39 39 38 37 36 37 36 35 34 34 35 35 33 32 32 33 35 39 34 33 35 36 36 36 36 37 34 34 33 32 30 32 33 32 31 31 36
44 43 42 42 41 40 39 38 39 38 37 36 35 35 35 35 34 34 34 34 33 34 34 33 33 33 35 36 36 36 36 35 34 33 33 31 31 35 32 30 31 31